HappyWetter - St.Margarethen im Burgenland
Wetterdaten: Samstag, 07.01.2012
Datum Zeit Temp. A. Feuchte A. Luftdruck Regen Wind Richtung Richtung Sonnenschein ET Solar Taupunkt Windchill Windben Empfang
07.01.2012 00:00 4,8 C 60 % 1016,1 hPa 0,0 l/m 15,9 km/h (3 Bft) NW 306 0 min 0,000 mm 0 W/m -2,3 C -1,6 C 24,1 km/h (4 Bft) 100,00 %
07.01.2012 00:01 4,8 C 59 % 1016,0 hPa 0,0 l/m 11,3 km/h (2 Bft) NW 308 0 min 0,000 mm 0 W/m -2,5 C 1,0 C 29,0 km/h (5 Bft) 100,00 %
07.01.2012 00:02 4,7 C 59 % 1016,1 hPa 0,0 l/m 19,1 km/h (3 Bft) W 281 0 min 0,000 mm 0 W/m -2,6 C -3,2 C 29,0 km/h (5 Bft) 97,83 %
07.01.2012 00:03 4,7 C 59 % 1016,1 hPa 0,0 l/m 18,0 km/h (3 Bft) W-NW 295 0 min 0,000 mm 0 W/m -2,6 C -2,7 C 33,8 km/h (5 Bft) 100,00 %
07.01.2012 00:04 4,7 C 59 % 1016,1 hPa 0,0 l/m 25,6 km/h (4 Bft) W 275 0 min 0,000 mm 0 W/m -2,6 C -5,5 C 40,2 km/h (6 Bft) 100,00 %
07.01.2012 00:05 4,7 C 59 % 1016,2 hPa 0,0 l/m 23,0 km/h (4 Bft) W-SW 246 0 min 0,000 mm 0 W/m -2,6 C -4,7 C 35,4 km/h (5 Bft) 100,00 %
07.01.2012 00:06 4,7 C 59 % 1016,1 hPa 0,0 l/m 27,7 km/h (4 Bft) W-NW 284 0 min 0,000 mm 0 W/m -2,6 C -6,2 C 38,6 km/h (5 Bft) 100,00 %
07.01.2012 00:07 4,7 C 59 % 1016,1 hPa 0,0 l/m 19,7 km/h (3 Bft) W 281 0 min 0,000 mm 0 W/m -2,6 C -3,4 C 37,0 km/h (5 Bft) 100,00 %
07.01.2012 00:08 4,7 C 59 % 1016,2 hPa 0,0 l/m 17,1 km/h (3 Bft) W 275 0 min 0,000 mm 0 W/m -2,6 C -2,3 C 25,7 km/h (4 Bft) 100,00 %
07.01.2012 00:09 4,7 C 59 % 1016,1 hPa 0,0 l/m 10,3 km/h (2 Bft) W-NW 289 0 min 0,000 mm 0 W/m -2,6 C 1,5 C 20,9 km/h (4 Bft) 100,00 %
07.01.2012 00:10 4,7 C 59 % 1016,1 hPa 0,0 l/m 22,3 km/h (4 Bft) W 278 0 min 0,000 mm 0 W/m -2,6 C -4,4 C 32,2 km/h (5 Bft) 100,00 %
07.01.2012 00:11 4,7 C 59 % 1016,2 hPa 0,0 l/m 18,3 km/h (3 Bft) W-NW 285 0 min 0,000 mm 0 W/m -2,6 C -2,9 C 25,7 km/h (4 Bft) 100,00 %
07.01.2012 00:12 4,7 C 59 % 1016,2 hPa 0,0 l/m 12,1 km/h (2 Bft) W 277 0 min 0,000 mm 0 W/m -2,6 C 0,3 C 16,1 km/h (3 Bft) 100,00 %
07.01.2012 00:13 4,6 C 59 % 1016,3 hPa 0,0 l/m 9,9 km/h (2 Bft) W 272 0 min 0,000 mm 0 W/m -2,7 C 1,7 C 14,5 km/h (3 Bft) 100,00 %
07.01.2012 00:14 4,6 C 60 % 1016,3 hPa 0,0 l/m 15,8 km/h (3 Bft) W 267 0 min 0,000 mm 0 W/m -2,5 C -1,8 C 24,1 km/h (4 Bft) 100,00 %
07.01.2012 00:15 4,6 C 60 % 1016,3 hPa 0,0 l/m 15,0 km/h (3 Bft) W-SW 247 0 min 0,000 mm 0 W/m -2,5 C -1,4 C 24,1 km/h (4 Bft) 100,00 %
07.01.2012 00:16 4,6 C 60 % 1016,3 hPa 0,0 l/m 12,9 km/h (3 Bft) NW 312 0 min 0,000 mm 0 W/m -2,5 C -0,2 C 24,1 km/h (4 Bft) 100,00 %
07.01.2012 00:17 4,5 C 60 % 1016,3 hPa 0,0 l/m 21,8 km/h (4 Bft) W 269 0 min 0,000 mm 0 W/m -2,6 C -4,5 C 33,8 km/h (5 Bft) 100,00 %
07.01.2012 00:18 4,4 C 60 % 1016,3 hPa 0,0 l/m 19,8 km/h (3 Bft) W 269 0 min 0,000 mm 0 W/m -2,7 C -3,9 C 32,2 km/h (5 Bft) 100,00 %
07.01.2012 00:19 4,4 C 60 % 1016,3 hPa 0,0 l/m 21,5 km/h (4 Bft) W 280 0 min 0,000 mm 0 W/m -2,7 C -4,5 C 32,2 km/h (5 Bft) 100,00 %
07.01.2012 00:20 4,4 C 60 % 1016,3 hPa 0,0 l/m 21,1 km/h (4 Bft) NW 307 0 min 0,000 mm 0 W/m -2,7 C -4,4 C 37,0 km/h (5 Bft) 100,00 %
07.01.2012 00:21 4,4 C 60 % 1016,3 hPa 0,0 l/m 22,4 km/h (4 Bft) W-SW 243 0 min 0,000 mm 0 W/m -2,7 C -4,9 C 37,0 km/h (5 Bft) 100,00 %
07.01.2012 00:22 4,4 C 60 % 1016,3 hPa 0,0 l/m 11,7 km/h (2 Bft) W 273 0 min 0,000 mm 0 W/m -2,7 C 0,3 C 29,0 km/h (5 Bft) 100,00 %
07.01.2012 00:23 4,4 C 60 % 1016,3 hPa 0,0 l/m 19,2 km/h (3 Bft) W 274 0 min 0,000 mm 0 W/m -2,7 C -3,6 C 38,6 km/h (5 Bft) 100,00 %
07.01.2012 00:24 4,4 C 60 % 1016,3 hPa 0,0 l/m 15,4 km/h (3 Bft) W 267 0 min 0,000 mm 0 W/m -2,7 C -1,9 C 33,8 km/h (5 Bft) 100,00 %
07.01.2012 00:25 4,4 C 61 % 1016,4 hPa 0,0 l/m 18,3 km/h (3 Bft) W-SW 248 0 min 0,000 mm 0 W/m -2,4 C -3,2 C 35,4 km/h (5 Bft) 100,00 %
07.01.2012 00:26 4,4 C 61 % 1016,4 hPa 0,0 l/m 21,6 km/h (4 Bft) W 272 0 min 0,000 mm 0 W/m -2,4 C -4,6 C 32,2 km/h (5 Bft) 100,00 %
07.01.2012 00:27 4,3 C 61 % 1016,3 hPa 0,0 l/m 23,4 km/h (4 Bft) W-NW 290 0 min 0,000 mm 0 W/m -2,5 C -5,4 C 30,6 km/h (5 Bft) 100,00 %
07.01.2012 00:28 4,3 C 61 % 1016,4 hPa 0,0 l/m 22,7 km/h (4 Bft) W-NW 287 0 min 0,000 mm 0 W/m -2,5 C -5,1 C 33,8 km/h (5 Bft) 100,00 %
07.01.2012 00:29 4,4 C 61 % 1016,4 hPa 0,0 l/m 23,3 km/h (4 Bft) W-NW 288 0 min 0,000 mm 0 W/m -2,4 C -5,2 C 33,8 km/h (5 Bft) 100,00 %
07.01.2012 00:30 4,4 C 61 % 1016,5 hPa 0,0 l/m 20,7 km/h (4 Bft) W-NW 284 0 min 0,000 mm 0 W/m -2,4 C -4,2 C 32,2 km/h (5 Bft) 100,00 %
07.01.2012 00:31 4,3 C 61 % 1016,4 hPa 0,0 l/m 21,6 km/h (4 Bft) W 279 0 min 0,000 mm 0 W/m -2,5 C -4,7 C 30,6 km/h (5 Bft) 100,00 %
07.01.2012 00:32 4,3 C 61 % 1016,5 hPa 0,0 l/m 15,2 km/h (3 Bft) W-NW 300 0 min 0,000 mm 0 W/m -2,5 C -1,9 C 27,4 km/h (4 Bft) 100,00 %
07.01.2012 00:33 4,3 C 61 % 1016,5 hPa 0,0 l/m 9,8 km/h (2 Bft) W 275 0 min 0,000 mm 0 W/m -2,5 C 1,4 C 17,7 km/h (3 Bft) 100,00 %
07.01.2012 00:34 4,3 C 62 % 1016,5 hPa 0,0 l/m 16,2 km/h (3 Bft) W-SW 253 0 min 0,000 mm 0 W/m -2,3 C -2,4 C 27,4 km/h (4 Bft) 100,00 %
07.01.2012 00:35 4,3 C 62 % 1016,5 hPa 0,0 l/m 12,0 km/h (2 Bft) W 281 0 min 0,000 mm 0 W/m -2,3 C -0,0 C 27,4 km/h (4 Bft) 100,00 %
07.01.2012 00:36 4,3 C 62 % 1016,5 hPa 0,0 l/m 7,5 km/h (2 Bft) W 273 0 min 0,000 mm 0 W/m -2,3 C 3,3 C 14,5 km/h (3 Bft) 100,00 %
07.01.2012 00:37 4,2 C 62 % 1016,6 hPa 0,0 l/m 14,1 km/h (3 Bft) W-NW 282 0 min 0,000 mm 0 W/m -2,4 C -1,4 C 24,1 km/h (4 Bft) 100,00 %
07.01.2012 00:38 4,2 C 62 % 1016,6 hPa 0,0 l/m 15,0 km/h (3 Bft) W 259 0 min 0,000 mm 0 W/m -2,4 C -1,9 C 24,1 km/h (4 Bft) 100,00 %
07.01.2012 00:39 4,2 C 62 % 1016,6 hPa 0,0 l/m 14,3 km/h (3 Bft) N-NW 331 0 min 0,000 mm 0 W/m -2,4 C -1,5 C 25,7 km/h (4 Bft) 100,00 %
07.01.2012 00:40 4,2 C 63 % 1016,5 hPa 0,0 l/m 9,5 km/h (2 Bft) W-NW 295 0 min 0,000 mm 0 W/m -2,2 C 1,6 C 17,7 km/h (3 Bft) 100,00 %
07.01.2012 00:41 4,2 C 63 % 1016,6 hPa 0,0 l/m 20,6 km/h (4 Bft) W 276 0 min 0,000 mm 0 W/m -2,2 C -4,4 C 32,2 km/h (5 Bft) 100,00 %
07.01.2012 00:42 4,2 C 63 % 1016,6 hPa 0,0 l/m 19,4 km/h (3 Bft) W-NW 283 0 min 0,000 mm 0 W/m -2,2 C -4,0 C 29,0 km/h (5 Bft) 100,00 %
07.01.2012 00:43 4,2 C 63 % 1016,7 hPa 0,0 l/m 18,3 km/h (3 Bft) W-SW 258 0 min 0,000 mm 0 W/m -2,2 C -3,5 C 29,0 km/h (5 Bft) 100,00 %
07.01.2012 00:44 4,2 C 63 % 1016,7 hPa 0,0 l/m 20,3 km/h (4 Bft) W-NW 284 0 min 0,000 mm 0 W/m -2,2 C -4,3 C 27,4 km/h (4 Bft) 100,00 %
07.01.2012 00:45 4,2 C 63 % 1016,8 hPa 0,0 l/m 13,3 km/h (3 Bft) W-NW 293 0 min 0,000 mm 0 W/m -2,2 C -1,0 C 24,1 km/h (4 Bft) 100,00 %
07.01.2012 00:46 4,2 C 63 % 1016,6 hPa 0,0 l/m 16,2 km/h (3 Bft) W-NW 293 0 min 0,000 mm 0 W/m -2,2 C -2,5 C 35,4 km/h (5 Bft) 100,00 %
07.01.2012 00:47 4,2 C 63 % 1016,6 hPa 0,0 l/m 27,8 km/h (4 Bft) NW 314 0 min 0,000 mm 0 W/m -2,2 C -6,9 C 38,6 km/h (5 Bft) 100,00 %
07.01.2012 00:48 4,2 C 63 % 1016,8 hPa 0,0 l/m 16,3 km/h (3 Bft) W-NW 299 0 min 0,000 mm 0 W/m -2,2 C -2,6 C 27,4 km/h (4 Bft) 100,00 %
07.01.2012 00:49 4,2 C 63 % 1016,6 hPa 0,0 l/m 18,4 km/h (3 Bft) W 271 0 min 0,000 mm 0 W/m -2,2 C -3,5 C 29,0 km/h (5 Bft) 100,00 %
07.01.2012 00:50 4,2 C 63 % 1016,7 hPa 0,0 l/m 13,9 km/h (3 Bft) W-NW 288 0 min 0,000 mm 0 W/m -2,2 C -1,3 C 20,9 km/h (4 Bft) 100,00 %
07.01.2012 00:51 4,2 C 63 % 1016,8 hPa 0,0 l/m 19,7 km/h (3 Bft) W-NW 303 0 min 0,000 mm 0 W/m -2,2 C -4,1 C 29,0 km/h (5 Bft) 100,00 %
07.01.2012 00:52 4,2 C 63 % 1016,8 hPa 0,0 l/m 19,0 km/h (3 Bft) W-NW 294 0 min 0,000 mm 0 W/m -2,2 C -3,8 C 27,4 km/h (4 Bft) 100,00 %
07.01.2012 00:53 4,2 C 63 % 1016,7 hPa 0,0 l/m 7,9 km/h (2 Bft) W-NW 302 0 min 0,000 mm 0 W/m -2,2 C 2,8 C 16,1 km/h (3 Bft) 100,00 %
07.01.2012 00:54 4,2 C 63 % 1016,8 hPa 0,0 l/m 8,0 km/h (2 Bft) NW 306 0 min 0,000 mm 0 W/m -2,2 C 2,8 C 12,9 km/h (3 Bft) 100,00 %
07.01.2012 00:55 4,2 C 63 % 1016,7 hPa 0,0 l/m 15,0 km/h (3 Bft) W-NW 282 0 min 0,000 mm 0 W/m -2,2 C -1,9 C 24,1 km/h (4 Bft) 100,00 %
07.01.2012 00:56 4,2 C 64 % 1016,8 hPa 0,0 l/m 12,8 km/h (3 Bft) W-NW 294 0 min 0,000 mm 0 W/m -2,0 C -0,7 C 25,7 km/h (4 Bft) 100,00 %
07.01.2012 00:57 4,2 C 64 % 1016,8 hPa 0,0 l/m 8,5 km/h (2 Bft) W-NW 288 0 min 0,000 mm 0 W/m -2,0 C 2,3 C 14,5 km/h (3 Bft) 100,00 %
07.01.2012 00:58 4,2 C 63 % 1016,8 hPa 0,0 l/m 10,1 km/h (2 Bft) W-NW 298 0 min 0,000 mm 0 W/m -2,2 C 1,1 C 19,3 km/h (3 Bft) 100,00 %
07.01.2012 00:59 4,2 C 63 % 1016,8 hPa 0,0 l/m 13,4 km/h (3 Bft) W 275 0 min 0,000 mm 0 W/m -2,2 C -1,0 C 20,9 km/h (4 Bft) 100,00 %
07.01.2012 01:00 4,2 C 64 % 1016,8 hPa 0,0 l/m 16,7 km/h (3 Bft) W 260 0 min 0,051 mm 0 W/m -2,0 C -2,7 C 30,6 km/h (5 Bft) 100,00 %
07.01.2012 01:01 4,2 C 64 % 1016,8 hPa 0,0 l/m 11,8 km/h (2 Bft) W 269 0 min 0,000 mm 0 W/m -2,0 C -0,0 C 19,3 km/h (3 Bft) 100,00 %
07.01.2012 01:03 4,1 C 64 % 1016,9 hPa 0,0 l/m 9,5 km/h (2 Bft) W-NW 303 0 min 0,000 mm 0 W/m -2,1 C 1,4 C 16,1 km/h (3 Bft) 100,00 %
07.01.2012 01:04 4,1 C 64 % 1016,8 hPa 0,0 l/m 4,7 km/h (1 Bft) W-NW 302 0 min 0,000 mm 0 W/m -2,1 C 4,1 C 9,7 km/h (2 Bft) 100,00 %
07.01.2012 01:05 4,1 C 64 % 1016,9 hPa 0,0 l/m 7,3 km/h (2 Bft) W-NW 300 0 min 0,000 mm 0 W/m -2,1 C 3,3 C 19,3 km/h (3 Bft) 96,00 %
07.01.2012 01:06 4,0 C 64 % 1016,9 hPa 0,0 l/m 10,8 km/h (2 Bft) W 280 0 min 0,000 mm 0 W/m -2,2 C 0,4 C 29,0 km/h (5 Bft) 100,00 %
07.01.2012 01:07 4,0 C 64 % 1016,9 hPa 0,0 l/m 19,9 km/h (4 Bft) W-NW 283 0 min 0,000 mm 0 W/m -2,2 C -4,4 C 30,6 km/h (5 Bft) 100,00 %
07.01.2012 01:08 3,9 C 64 % 1016,9 hPa 0,0 l/m 15,3 km/h (3 Bft) W 264 0 min 0,000 mm 0 W/m -2,3 C -2,4 C 25,7 km/h (4 Bft) 100,00 %
07.01.2012 01:09 3,9 C 64 % 1016,9 hPa 0,0 l/m 18,4 km/h (3 Bft) NW 310 0 min 0,000 mm 0 W/m -2,3 C -3,9 C 30,6 km/h (5 Bft) 100,00 %
07.01.2012 01:10 3,9 C 64 % 1016,9 hPa 0,0 l/m 11,7 km/h (2 Bft) W-NW 288 0 min 0,000 mm 0 W/m -2,3 C -0,3 C 25,7 km/h (4 Bft) 100,00 %
07.01.2012 01:11 3,9 C 64 % 1016,9 hPa 0,0 l/m 12,0 km/h (2 Bft) W 277 0 min 0,000 mm 0 W/m -2,3 C -0,5 C 24,1 km/h (4 Bft) 100,00 %
07.01.2012 01:12 3,9 C 64 % 1016,9 hPa 0,0 l/m 12,4 km/h (3 Bft) W 280 0 min 0,000 mm 0 W/m -2,3 C -0,8 C 27,4 km/h (4 Bft) 100,00 %
07.01.2012 01:13 3,9 C 65 % 1017,0 hPa 0,0 l/m 16,2 km/h (3 Bft) W-SW 250 0 min 0,000 mm 0 W/m -2,1 C -2,9 C 25,7 km/h (4 Bft) 100,00 %
07.01.2012 01:14 3,9 C 65 % 1017,0 hPa 0,0 l/m 12,1 km/h (2 Bft) W-NW 296 0 min 0,000 mm 0 W/m -2,1 C -0,6 C 19,3 km/h (3 Bft) 100,00 %
07.01.2012 01:15 3,9 C 65 % 1016,9 hPa 0,0 l/m 8,5 km/h (2 Bft) W 268 0 min 0,000 mm 0 W/m -2,1 C 2,0 C 14,5 km/h (3 Bft) 100,00 %
07.01.2012 01:16 3,9 C 65 % 1017,0 hPa 0,0 l/m 14,2 km/h (3 Bft) W-NW 302 0 min 0,000 mm 0 W/m -2,1 C -1,8 C 24,1 km/h (4 Bft) 100,00 %
07.01.2012 01:17 3,9 C 65 % 1016,9 hPa 0,0 l/m 20,5 km/h (4 Bft) W 273 0 min 0,000 mm 0 W/m -2,1 C -4,8 C 33,8 km/h (5 Bft) 100,00 %
07.01.2012 01:18 3,9 C 65 % 1016,9 hPa 0,0 l/m 13,2 km/h (3 Bft) NW 315 0 min 0,000 mm 0 W/m -2,1 C -1,2 C 20,9 km/h (4 Bft) 100,00 %
07.01.2012 01:19 3,8 C 65 % 1016,9 hPa 0,0 l/m 12,5 km/h (3 Bft) W 275 0 min 0,000 mm 0 W/m -2,2 C -0,9 C 17,7 km/h (3 Bft) 100,00 %
07.01.2012 01:20 3,9 C 65 % 1016,9 hPa 0,0 l/m 10,1 km/h (2 Bft) W-NW 298 0 min 0,000 mm 0 W/m -2,1 C 0,8 C 17,7 km/h (3 Bft) 100,00 %
07.01.2012 01:21 3,8 C 65 % 1016,9 hPa 0,0 l/m 10,2 km/h (2 Bft) NW 314 0 min 0,000 mm 0 W/m -2,2 C 0,6 C 16,1 km/h (3 Bft) 100,00 %
07.01.2012 01:22 3,8 C 65 % 1016,9 hPa 0,0 l/m 11,4 km/h (2 Bft) NW 307 0 min 0,000 mm 0 W/m -2,2 C -0,2 C 20,9 km/h (4 Bft) 100,00 %
07.01.2012 01:23 3,8 C 65 % 1016,9 hPa 0,0 l/m 14,7 km/h (3 Bft) W 281 0 min 0,000 mm 0 W/m -2,2 C -2,2 C 19,3 km/h (3 Bft) 100,00 %
07.01.2012 01:24 3,8 C 65 % 1016,9 hPa 0,0 l/m 13,2 km/h (3 Bft) W 281 0 min 0,000 mm 0 W/m -2,2 C -1,4 C 20,9 km/h (4 Bft) 100,00 %
07.01.2012 01:25 3,8 C 65 % 1016,9 hPa 0,0 l/m 10,9 km/h (2 Bft) NW 308 0 min 0,000 mm 0 W/m -2,2 C 0,1 C 30,6 km/h (5 Bft) 100,00 %
07.01.2012 01:26 3,8 C 65 % 1016,9 hPa 0,0 l/m 8,4 km/h (2 Bft) W 273 0 min 0,000 mm 0 W/m -2,2 C 2,0 C 19,3 km/h (3 Bft) 100,00 %
07.01.2012 01:27 3,8 C 65 % 1016,9 hPa 0,0 l/m 18,8 km/h (3 Bft) W-NW 300 0 min 0,000 mm 0 W/m -2,2 C -4,2 C 32,2 km/h (5 Bft) 100,00 %
07.01.2012 01:28 3,8 C 65 % 1016,8 hPa 0,0 l/m 23,5 km/h (4 Bft) W-NW 284 0 min 0,000 mm 0 W/m -2,2 C -6,1 C 29,0 km/h (5 Bft) 100,00 %
07.01.2012 01:29 3,8 C 65 % 1016,8 hPa 0,0 l/m 16,1 km/h (3 Bft) W 272 0 min 0,000 mm 0 W/m -2,2 C -2,9 C 25,7 km/h (4 Bft) 100,00 %
07.01.2012 01:30 3,8 C 65 % 1016,9 hPa 0,0 l/m 12,2 km/h (2 Bft) W 275 0 min 0,000 mm 0 W/m -2,2 C -0,8 C 30,6 km/h (5 Bft) 100,00 %
07.01.2012 01:31 3,8 C 65 % 1016,8 hPa 0,0 l/m 17,0 km/h (3 Bft) W 269 0 min 0,000 mm 0 W/m -2,2 C -3,4 C 29,0 km/h (5 Bft) 100,00 %
07.01.2012 01:32 3,8 C 65 % 1016,7 hPa 0,0 l/m 16,3 km/h (3 Bft) W 266 0 min 0,000 mm 0 W/m -2,2 C -3,0 C 29,0 km/h (5 Bft) 100,00 %
07.01.2012 01:33 3,8 C 65 % 1016,8 hPa 0,0 l/m 15,8 km/h (3 Bft) NW 304 0 min 0,000 mm 0 W/m -2,2 C -2,8 C 29,0 km/h (5 Bft) 100,00 %
07.01.2012 01:34 3,8 C 65 % 1016,7 hPa 0,0 l/m 11,4 km/h (2 Bft) W-NW 287 0 min 0,000 mm 0 W/m -2,2 C -0,2 C 24,1 km/h (4 Bft) 100,00 %
07.01.2012 01:35 3,8 C 65 % 1016,7 hPa 0,0 l/m 9,2 km/h (2 Bft) W 264 0 min 0,000 mm 0 W/m -2,2 C 1,4 C 17,7 km/h (3 Bft) 100,00 %
07.01.2012 01:36 3,8 C 65 % 1016,7 hPa 0,0 l/m 10,6 km/h (2 Bft) W-NW 292 0 min 0,000 mm 0 W/m -2,2 C 0,3 C 17,7 km/h (3 Bft) 100,00 %
07.01.2012 01:37 3,8 C 65 % 1016,7 hPa 0,0 l/m 12,0 km/h (2 Bft) W-NW 288 0 min 0,000 mm 0 W/m -2,2 C -0,6 C 17,7 km/h (3 Bft) 100,00 %
07.01.2012 01:38 3,8 C 65 % 1016,7 hPa 0,0 l/m 17,5 km/h (3 Bft) W-SW 244 0 min 0,000 mm 0 W/m -2,2 C -3,6 C 30,6 km/h (5 Bft) 100,00 %
07.01.2012 01:39 3,8 C 65 % 1016,7 hPa 0,0 l/m 16,4 km/h (3 Bft) SW 234 0 min 0,000 mm 0 W/m -2,2 C -3,1 C 25,7 km/h (4 Bft) 100,00 %
07.01.2012 01:40 3,8 C 65 % 1016,7 hPa 0,0 l/m 15,3 km/h (3 Bft) W-NW 291 0 min 0,000 mm 0 W/m -2,2 C -2,5 C 22,5 km/h (4 Bft) 100,00 %
07.01.2012 01:41 3,8 C 65 % 1016,7 hPa 0,0 l/m 20,2 km/h (4 Bft) W 271 0 min 0,000 mm 0 W/m -2,2 C -4,8 C 33,8 km/h (5 Bft) 100,00 %
07.01.2012 01:42 3,8 C 65 % 1016,7 hPa 0,0 l/m 16,7 km/h (3 Bft) NW 304 0 min 0,000 mm 0 W/m -2,2 C -3,2 C 33,8 km/h (5 Bft) 100,00 %
07.01.2012 01:43 3,8 C 65 % 1016,7 hPa 0,0 l/m 7,7 km/h (2 Bft) W-NW 283 0 min 0,000 mm 0 W/m -2,2 C 2,6 C 14,5 km/h (3 Bft) 100,00 %
07.01.2012 01:44 3,8 C 65 % 1016,8 hPa 0,0 l/m 10,4 km/h (2 Bft) W-NW 300 0 min 0,000 mm 0 W/m -2,2 C 0,5 C 16,1 km/h (3 Bft) 100,00 %
07.01.2012 01:45 3,7 C 65 % 1016,7 hPa 0,0 l/m 19,3 km/h (3 Bft) W-NW 300 0 min 0,000 mm 0 W/m -2,3 C -4,6 C 32,2 km/h (5 Bft) 100,00 %
07.01.2012 01:46 3,7 C 65 % 1016,8 hPa 0,0 l/m 26,9 km/h (4 Bft) W-NW 284 0 min 0,000 mm 0 W/m -2,3 C -7,3 C 40,2 km/h (6 Bft) 100,00 %
07.01.2012 01:47 3,8 C 65 % 1016,8 hPa 0,0 l/m 22,7 km/h (4 Bft) W-NW 282 0 min 0,000 mm 0 W/m -2,2 C -5,8 C 40,2 km/h (6 Bft) 100,00 %
07.01.2012 01:48 3,8 C 65 % 1016,8 hPa 0,0 l/m 23,1 km/h (4 Bft) W 272 0 min 0,000 mm 0 W/m -2,2 C -5,9 C 32,2 km/h (5 Bft) 100,00 %
07.01.2012 01:49 3,8 C 65 % 1016,8 hPa 0,0 l/m 14,7 km/h (3 Bft) W-NW 298 0 min 0,000 mm 0 W/m -2,2 C -2,2 C 24,1 km/h (4 Bft) 100,00 %
07.01.2012 01:50 3,8 C 65 % 1016,9 hPa 0,0 l/m 7,8 km/h (2 Bft) W-NW 282 0 min 0,000 mm 0 W/m -2,2 C 2,5 C 11,3 km/h (2 Bft) 100,00 %
07.01.2012 01:51 3,8 C 66 % 1016,9 hPa 0,0 l/m 6,4 km/h (2 Bft) W-NW 287 0 min 0,000 mm 0 W/m -2,0 C 3,8 C 11,3 km/h (2 Bft) 100,00 %
07.01.2012 01:52 3,8 C 65 % 1016,8 hPa 0,0 l/m 13,5 km/h (3 Bft) W 266 0 min 0,000 mm 0 W/m -2,2 C -1,5 C 20,9 km/h (4 Bft) 100,00 %
07.01.2012 01:53 3,7 C 66 % 1016,9 hPa 0,0 l/m 17,8 km/h (3 Bft) NW 310 0 min 0,000 mm 0 W/m -2,0 C -3,9 C 32,2 km/h (5 Bft) 100,00 %
07.01.2012 01:54 3,7 C 66 % 1016,9 hPa 0,0 l/m 24,5 km/h (4 Bft) W 261 0 min 0,000 mm 0 W/m -2,0 C -6,5 C 38,6 km/h (5 Bft) 100,00 %
07.01.2012 01:55 3,7 C 66 % 1016,9 hPa 0,0 l/m 18,1 km/h (3 Bft) W 280 0 min 0,000 mm 0 W/m -2,0 C -4,0 C 29,0 km/h (5 Bft) 100,00 %
07.01.2012 01:56 3,7 C 66 % 1016,9 hPa 0,0 l/m 10,6 km/h (2 Bft) W 279 0 min 0,000 mm 0 W/m -2,0 C 0,2 C 20,9 km/h (4 Bft) 100,00 %
07.01.2012 01:57 3,7 C 66 % 1016,9 hPa 0,0 l/m 12,7 km/h (3 Bft) NW 311 0 min 0,000 mm 0 W/m -2,0 C -1,2 C 22,5 km/h (4 Bft) 100,00 %
07.01.2012 01:58 3,7 C 66 % 1016,9 hPa 0,0 l/m 16,1 km/h (3 Bft) W-NW 284 0 min 0,000 mm 0 W/m -2,0 C -3,1 C 24,1 km/h (4 Bft) 100,00 %
07.01.2012 01:59 3,7 C 66 % 1016,9 hPa 0,0 l/m 21,3 km/h (4 Bft) W-SW 255 0 min 0,000 mm 0 W/m -2,0 C -5,4 C 32,2 km/h (5 Bft) 100,00 %
07.01.2012 02:00 3,7 C 66 % 1016,9 hPa 0,0 l/m 19,5 km/h (3 Bft) NW 323 0 min 0,051 mm 0 W/m -2,0 C -4,6 C 37,0 km/h (5 Bft) 100,00 %
07.01.2012 02:01 3,7 C 66 % 1016,9 hPa 0,0 l/m 21,6 km/h (4 Bft) W-NW 300 0 min 0,000 mm 0 W/m -2,0 C -5,5 C 37,0 km/h (5 Bft) 100,00 %
07.01.2012 02:03 3,7 C 66 % 1017,0 hPa 0,0 l/m 18,6 km/h (3 Bft) W-NW 291 0 min 0,000 mm 0 W/m -2,0 C -4,3 C 32,2 km/h (5 Bft) 100,00 %
07.01.2012 02:04 3,7 C 66 % 1017,1 hPa 0,0 l/m 24,2 km/h (4 Bft) W 269 0 min 0,000 mm 0 W/m -2,0 C -6,4 C 37,0 km/h (5 Bft) 100,00 %
07.01.2012 02:05 3,7 C 66 % 1017,1 hPa 0,0 l/m 19,9 km/h (4 Bft) W 280 0 min 0,000 mm 0 W/m -2,0 C -4,8 C 30,6 km/h (5 Bft) 100,00 %
07.01.2012 02:06 3,7 C 66 % 1017,1 hPa 0,0 l/m 16,4 km/h (3 Bft) W 277 0 min 0,000 mm 0 W/m -2,0 C -3,2 C 32,2 km/h (5 Bft) 100,00 %
07.01.2012 02:07 3,8 C 66 % 1017,1 hPa 0,0 l/m 27,1 km/h (4 Bft) W-NW 287 0 min 0,000 mm 0 W/m -2,0 C -7,2 C 40,2 km/h (6 Bft) 100,00 %
07.01.2012 02:08 3,8 C 65 % 1016,9 hPa 0,0 l/m 21,6 km/h (4 Bft) W-NW 292 0 min 0,000 mm 0 W/m -2,2 C -5,4 C 38,6 km/h (5 Bft) 100,00 %
07.01.2012 02:09 3,8 C 65 % 1017,0 hPa 0,0 l/m 22,4 km/h (4 Bft) W-NW 292 0 min 0,000 mm 0 W/m -2,2 C -5,7 C 37,0 km/h (5 Bft) 100,00 %
07.01.2012 02:10 3,8 C 65 % 1017,1 hPa 0,0 l/m 18,7 km/h (3 Bft) W-NW 291 0 min 0,000 mm 0 W/m -2,2 C -4,2 C 30,6 km/h (5 Bft) 100,00 %
07.01.2012 02:11 3,8 C 65 % 1017,0 hPa 0,0 l/m 16,9 km/h (3 Bft) W 269 0 min 0,000 mm 0 W/m -2,2 C -3,3 C 32,2 km/h (5 Bft) 100,00 %
07.01.2012 02:12 3,8 C 65 % 1016,9 hPa 0,0 l/m 27,0 km/h (4 Bft) W 269 0 min 0,000 mm 0 W/m -2,2 C -7,2 C 45,1 km/h (6 Bft) 100,00 %
07.01.2012 02:13 3,8 C 65 % 1016,9 hPa 0,0 l/m 20,0 km/h (4 Bft) W-NW 293 0 min 0,000 mm 0 W/m -2,2 C -4,7 C 30,6 km/h (5 Bft) 100,00 %
07.01.2012 02:14 3,8 C 65 % 1016,9 hPa 0,0 l/m 15,7 km/h (3 Bft) W-NW 298 0 min 0,000 mm 0 W/m -2,2 C -2,7 C 27,4 km/h (4 Bft) 100,00 %
07.01.2012 02:15 3,8 C 65 % 1016,9 hPa 0,0 l/m 15,0 km/h (3 Bft) W-NW 290 0 min 0,000 mm 0 W/m -2,2 C -2,4 C 24,1 km/h (4 Bft) 100,00 %
07.01.2012 02:16 3,8 C 66 % 1016,9 hPa 0,0 l/m 21,3 km/h (4 Bft) W-NW 296 0 min 0,000 mm 0 W/m -2,0 C -5,2 C 33,8 km/h (5 Bft) 100,00 %
07.01.2012 02:17 3,8 C 66 % 1016,9 hPa 0,0 l/m 24,5 km/h (4 Bft) NW 314 0 min 0,000 mm 0 W/m -2,0 C -6,4 C 33,8 km/h (5 Bft) 100,00 %
07.01.2012 02:18 3,7 C 66 % 1017,1 hPa 0,0 l/m 18,4 km/h (3 Bft) W 278 0 min 0,000 mm 0 W/m -2,0 C -4,2 C 30,6 km/h (5 Bft) 100,00 %
07.01.2012 02:19 3,7 C 66 % 1017,0 hPa 0,0 l/m 26,8 km/h (4 Bft) W 267 0 min 0,000 mm 0 W/m -2,0 C -7,3 C 38,6 km/h (5 Bft) 100,00 %
07.01.2012 02:20 3,8 C 66 % 1017,0 hPa 0,0 l/m 25,3 km/h (4 Bft) NW 308 0 min 0,000 mm 0 W/m -2,0 C -6,7 C 48,3 km/h (6 Bft) 100,00 %
07.01.2012 02:21 3,7 C 66 % 1016,9 hPa 0,0 l/m 15,1 km/h (3 Bft) W-NW 298 0 min 0,000 mm 0 W/m -2,0 C -2,6 C 24,1 km/h (4 Bft) 100,00 %
07.01.2012 02:22 3,7 C 66 % 1017,0 hPa 0,0 l/m 23,9 km/h (4 Bft) W 281 0 min 0,000 mm 0 W/m -2,0 C -6,3 C 37,0 km/h (5 Bft) 100,00 %
07.01.2012 02:23 3,8 C 66 % 1017,0 hPa 0,0 l/m 31,1 km/h (5 Bft) W-SW 256 0 min 0,000 mm 0 W/m -2,0 C -8,4 C 43,5 km/h (6 Bft) 100,00 %
07.01.2012 02:24 3,8 C 66 % 1016,9 hPa 0,0 l/m 27,5 km/h (4 Bft) W-NW 299 0 min 0,000 mm 0 W/m -2,0 C -7,4 C 43,5 km/h (6 Bft) 100,00 %
07.01.2012 02:25 3,8 C 66 % 1016,8 hPa 0,0 l/m 21,3 km/h (4 Bft) W-NW 300 0 min 0,000 mm 0 W/m -2,0 C -5,2 C 33,8 km/h (5 Bft) 100,00 %
07.01.2012 02:26 3,8 C 66 % 1016,9 hPa 0,0 l/m 17,8 km/h (3 Bft) W 275 0 min 0,000 mm 0 W/m -2,0 C -3,8 C 29,0 km/h (5 Bft) 100,00 %
07.01.2012 02:27 3,8 C 66 % 1017,0 hPa 0,0 l/m 21,3 km/h (4 Bft) W-SW 255 0 min 0,000 mm 0 W/m -2,0 C -5,2 C 37,0 km/h (5 Bft) 100,00 %
07.01.2012 02:28 3,8 C 66 % 1016,9 hPa 0,0 l/m 18,3 km/h (3 Bft) W 275 0 min 0,000 mm 0 W/m -2,0 C -4,0 C 33,8 km/h (5 Bft) 100,00 %
07.01.2012 02:29 3,8 C 66 % 1017,0 hPa 0,0 l/m 27,1 km/h (4 Bft) W 263 0 min 0,000 mm 0 W/m -2,0 C -7,2 C 45,1 km/h (6 Bft) 100,00 %
07.01.2012 02:30 3,8 C 66 % 1016,9 hPa 0,0 l/m 19,7 km/h (3 Bft) W-NW 286 0 min 0,000 mm 0 W/m -2,0 C -4,6 C 38,6 km/h (5 Bft) 100,00 %
07.01.2012 02:31 3,8 C 66 % 1017,0 hPa 0,0 l/m 25,4 km/h (4 Bft) NW 319 0 min 0,000 mm 0 W/m -2,0 C -6,7 C 37,0 km/h (5 Bft) 100,00 %
07.01.2012 02:32 3,8 C 66 % 1016,9 hPa 0,0 l/m 21,9 km/h (4 Bft) W 276 0 min 0,000 mm 0 W/m -2,0 C -5,5 C 35,4 km/h (5 Bft) 100,00 %
07.01.2012 02:33 3,8 C 66 % 1016,9 hPa 0,0 l/m 23,4 km/h (4 Bft) W 267 0 min 0,000 mm 0 W/m -2,0 C -6,0 C 32,2 km/h (5 Bft) 100,00 %
07.01.2012 02:34 3,8 C 66 % 1016,9 hPa 0,0 l/m 13,0 km/h (3 Bft) W 277 0 min 0,000 mm 0 W/m -2,0 C -1,2 C 20,9 km/h (4 Bft) 100,00 %
07.01.2012 02:35 3,8 C 66 % 1016,9 hPa 0,0 l/m 18,3 km/h (3 Bft) NW 306 0 min 0,000 mm 0 W/m -2,0 C -4,0 C 29,0 km/h (5 Bft) 100,00 %
07.01.2012 02:36 3,8 C 66 % 1016,9 hPa 0,0 l/m 19,2 km/h (3 Bft) W-NW 286 0 min 0,000 mm 0 W/m -2,0 C -4,4 C 30,6 km/h (5 Bft) 100,00 %
07.01.2012 02:37 3,8 C 66 % 1016,9 hPa 0,0 l/m 17,9 km/h (3 Bft) W 268 0 min 0,000 mm 0 W/m -2,0 C -3,8 C 27,4 km/h (4 Bft) 100,00 %
07.01.2012 02:38 3,7 C 67 % 1016,8 hPa 0,0 l/m 18,3 km/h (3 Bft) NW 317 0 min 0,000 mm 0 W/m -1,8 C -4,1 C 32,2 km/h (5 Bft) 100,00 %
07.01.2012 02:39 3,7 C 67 % 1016,9 hPa 0,0 l/m 21,9 km/h (4 Bft) W 269 0 min 0,000 mm 0 W/m -1,8 C -5,6 C 32,2 km/h (5 Bft) 100,00 %
07.01.2012 02:40 3,7 C 67 % 1016,8 hPa 0,0 l/m 23,5 km/h (4 Bft) W 277 0 min 0,000 mm 0 W/m -1,8 C -6,2 C 45,1 km/h (6 Bft) 100,00 %
07.01.2012 02:41 3,7 C 67 % 1016,7 hPa 0,0 l/m 24,6 km/h (4 Bft) W-NW 284 0 min 0,000 mm 0 W/m -1,8 C -6,6 C 38,6 km/h (5 Bft) 100,00 %
07.01.2012 02:42 3,7 C 67 % 1016,8 hPa 0,0 l/m 14,5 km/h (3 Bft) W-NW 300 0 min 0,000 mm 0 W/m -1,8 C -2,2 C 30,6 km/h (5 Bft) 100,00 %
07.01.2012 02:43 3,7 C 67 % 1016,9 hPa 0,0 l/m 17,4 km/h (3 Bft) NW 311 0 min 0,000 mm 0 W/m -1,8 C -3,7 C 33,8 km/h (5 Bft) 100,00 %
07.01.2012 02:44 3,7 C 67 % 1016,7 hPa 0,0 l/m 20,4 km/h (4 Bft) W-SW 244 0 min 0,000 mm 0 W/m -1,8 C -5,0 C 40,2 km/h (6 Bft) 100,00 %
07.01.2012 02:45 3,7 C 67 % 1016,8 hPa 0,0 l/m 17,9 km/h (3 Bft) W-NW 290 0 min 0,000 mm 0 W/m -1,8 C -3,9 C 37,0 km/h (5 Bft) 100,00 %
07.01.2012 02:46 3,7 C 67 % 1017,0 hPa 0,0 l/m 28,0 km/h (4 Bft) W 270 0 min 0,000 mm 0 W/m -1,8 C -7,6 C 38,6 km/h (5 Bft) 100,00 %
07.01.2012 02:47 3,7 C 67 % 1017,0 hPa 0,0 l/m 21,6 km/h (4 Bft) W-NW 300 0 min 0,000 mm 0 W/m -1,8 C -5,5 C 33,8 km/h (5 Bft) 100,00 %
07.01.2012 02:48 3,7 C 67 % 1016,9 hPa 0,0 l/m 22,2 km/h (4 Bft) W-SW 253 0 min 0,000 mm 0 W/m -1,8 C -5,7 C 29,0 km/h (5 Bft) 100,00 %
07.01.2012 02:49 3,7 C 67 % 1016,9 hPa 0,0 l/m 26,0 km/h (4 Bft) W-NW 293 0 min 0,000 mm 0 W/m -1,8 C -7,0 C 43,5 km/h (6 Bft) 100,00 %
07.01.2012 02:50 3,7 C 67 % 1016,9 hPa 0,0 l/m 22,4 km/h (4 Bft) W-SW 256 0 min 0,000 mm 0 W/m -1,8 C -5,8 C 29,0 km/h (5 Bft) 100,00 %
07.01.2012 02:51 3,7 C 67 % 1017,0 hPa 0,0 l/m 19,0 km/h (3 Bft) W-NW 303 0 min 0,000 mm 0 W/m -1,8 C -4,4 C 35,4 km/h (5 Bft) 100,00 %
07.01.2012 02:52 3,7 C 67 % 1016,8 hPa 0,0 l/m 19,6 km/h (3 Bft) W-NW 302 0 min 0,000 mm 0 W/m -1,8 C -4,7 C 32,2 km/h (5 Bft) 100,00 %
07.01.2012 02:53 3,7 C 66 % 1016,8 hPa 0,0 l/m 20,4 km/h (4 Bft) W 281 0 min 0,000 mm 0 W/m -2,0 C -5,0 C 32,2 km/h (5 Bft) 100,00 %
07.01.2012 02:54 3,7 C 66 % 1016,8 hPa 0,0 l/m 24,6 km/h (4 Bft) W 279 0 min 0,000 mm 0 W/m -2,0 C -6,6 C 41,8 km/h (6 Bft) 100,00 %
07.01.2012 02:55 3,7 C 66 % 1016,8 hPa 0,0 l/m 28,1 km/h (4 Bft) W-NW 293 0 min 0,000 mm 0 W/m -2,0 C -7,7 C 43,5 km/h (6 Bft) 100,00 %
07.01.2012 02:56 3,8 C 66 % 1016,8 hPa 0,0 l/m 22,8 km/h (4 Bft) W-NW 289 0 min 0,000 mm 0 W/m -2,0 C -5,8 C 38,6 km/h (5 Bft) 100,00 %
07.01.2012 02:57 3,8 C 66 % 1016,8 hPa 0,0 l/m 26,9 km/h (4 Bft) W-NW 290 0 min 0,000 mm 0 W/m -2,0 C -7,2 C 35,4 km/h (5 Bft) 100,00 %
07.01.2012 02:58 3,8 C 66 % 1016,8 hPa 0,0 l/m 35,0 km/h (5 Bft) NW 306 0 min 0,000 mm 0 W/m -2,0 C -9,3 C 53,1 km/h (7 Bft) 100,00 %
07.01.2012 02:59 3,8 C 66 % 1016,8 hPa 0,0 l/m 31,8 km/h (5 Bft) W-NW 289 0 min 0,000 mm 0 W/m -2,0 C -8,5 C 48,3 km/h (6 Bft) 100,00 %
07.01.2012 03:00 3,8 C 65 % 1016,8 hPa 0,0 l/m 32,2 km/h (5 Bft) W 275 0 min 0,050 mm 0 W/m -2,2 C -8,6 C 43,5 km/h (6 Bft) 95,83 %
07.01.2012 03:01 3,9 C 65 % 1016,8 hPa 0,0 l/m 27,4 km/h (4 Bft) W-SW 257 0 min 0,000 mm 0 W/m -2,1 C -7,2 C 41,8 km/h (6 Bft) 100,00 %
07.01.2012 03:03 3,9 C 65 % 1016,8 hPa 0,0 l/m 22,4 km/h (4 Bft) W 269 0 min 0,000 mm 0 W/m -2,1 C -5,5 C 40,2 km/h (6 Bft) 100,00 %
07.01.2012 03:04 3,9 C 65 % 1016,8 hPa 0,0 l/m 24,6 km/h (4 Bft) W 259 0 min 0,000 mm 0 W/m -2,1 C -6,3 C 37,0 km/h (5 Bft) 100,00 %
07.01.2012 03:05 3,9 C 65 % 1016,7 hPa 0,0 l/m 28,5 km/h (4 Bft) NW 315 0 min 0,000 mm 0 W/m -2,1 C -7,5 C 45,1 km/h (6 Bft) 100,00 %
07.01.2012 03:06 3,9 C 65 % 1016,6 hPa 0,0 l/m 22,4 km/h (4 Bft) W-NW 286 0 min 0,000 mm 0 W/m -2,1 C -5,5 C 32,2 km/h (5 Bft) 100,00 %
07.01.2012 03:07 3,9 C 65 % 1016,5 hPa 0,0 l/m 29,0 km/h (5 Bft) W-NW 283 0 min 0,000 mm 0 W/m -2,1 C -7,6 C 45,1 km/h (6 Bft) 100,00 %
07.01.2012 03:08 3,9 C 65 % 1016,6 hPa 0,0 l/m 33,8 km/h (5 Bft) W 259 0 min 0,000 mm 0 W/m -2,1 C -8,9 C 53,1 km/h (7 Bft) 100,00 %
07.01.2012 03:09 3,9 C 65 % 1016,5 hPa 0,0 l/m 30,9 km/h (5 Bft) NW 311 0 min 0,000 mm 0 W/m -2,1 C -8,2 C 49,9 km/h (6 Bft) 100,00 %
07.01.2012 03:10 3,9 C 65 % 1016,5 hPa 0,0 l/m 30,0 km/h (5 Bft) W-NW 295 0 min 0,000 mm 0 W/m -2,1 C -7,9 C 45,1 km/h (6 Bft) 100,00 %
07.01.2012 03:11 3,9 C 64 % 1016,5 hPa 0,0 l/m 30,5 km/h (5 Bft) W-NW 298 0 min 0,000 mm 0 W/m -2,3 C -8,1 C 46,7 km/h (6 Bft) 100,00 %
07.01.2012 03:12 3,9 C 64 % 1016,5 hPa 0,0 l/m 29,7 km/h (5 Bft) W 263 0 min 0,000 mm 0 W/m -2,3 C -7,8 C 43,5 km/h (6 Bft) 100,00 %
07.01.2012 03:13 3,9 C 64 % 1016,5 hPa 0,0 l/m 30,4 km/h (5 Bft) W-NW 294 0 min 0,000 mm 0 W/m -2,3 C -8,0 C 41,8 km/h (6 Bft) 100,00 %
07.01.2012 03:14 3,9 C 64 % 1016,6 hPa 0,0 l/m 27,7 km/h (4 Bft) W 273 0 min 0,000 mm 0 W/m -2,3 C -7,3 C 41,8 km/h (6 Bft) 100,00 %
07.01.2012 03:15 3,9 C 64 % 1016,5 hPa 0,0 l/m 28,5 km/h (4 Bft) NW 309 0 min 0,000 mm 0 W/m -2,3 C -7,5 C 41,8 km/h (6 Bft) 100,00 %
07.01.2012 03:16 3,9 C 64 % 1016,5 hPa 0,0 l/m 29,0 km/h (5 Bft) W-NW 297 0 min 0,000 mm 0 W/m -2,3 C -7,6 C 45,1 km/h (6 Bft) 100,00 %
07.01.2012 03:17 3,9 C 64 % 1016,6 hPa 0,0 l/m 31,1 km/h (5 Bft) W-NW 296 0 min 0,000 mm 0 W/m -2,3 C -8,2 C 45,1 km/h (6 Bft) 100,00 %
07.01.2012 03:18 3,9 C 64 % 1016,5 hPa 0,0 l/m 30,7 km/h (5 Bft) NW 321 0 min 0,000 mm 0 W/m -2,3 C -8,1 C 41,8 km/h (6 Bft) 100,00 %
07.01.2012 03:19 3,9 C 64 % 1016,6 hPa 0,0 l/m 30,8 km/h (5 Bft) NW 314 0 min 0,000 mm 0 W/m -2,3 C -8,1 C 41,8 km/h (6 Bft) 100,00 %
07.01.2012 03:20 3,9 C 65 % 1016,5 hPa 0,0 l/m 26,8 km/h (4 Bft) W-NW 295 0 min 0,000 mm 0 W/m -2,1 C -7,0 C 37,0 km/h (5 Bft) 100,00 %
07.01.2012 03:21 3,9 C 65 % 1016,5 hPa 0,0 l/m 36,0 km/h (5 Bft) W-NW 284 0 min 0,000 mm 0 W/m -2,1 C -9,4 C 45,1 km/h (6 Bft) 100,00 %
07.01.2012 03:22 3,9 C 65 % 1016,4 hPa 0,0 l/m 35,5 km/h (5 Bft) W-NW 300 0 min 0,000 mm 0 W/m -2,1 C -9,3 C 49,9 km/h (6 Bft) 100,00 %
07.01.2012 03:23 3,9 C 65 % 1016,4 hPa 0,0 l/m 38,8 km/h (5 Bft) W 266 0 min 0,000 mm 0 W/m -2,1 C -9,9 C 49,9 km/h (6 Bft) 100,00 %
07.01.2012 03:24 3,9 C 65 % 1016,4 hPa 0,0 l/m 27,2 km/h (4 Bft) W-NW 290 0 min 0,000 mm 0 W/m -2,1 C -7,1 C 35,4 km/h (5 Bft) 100,00 %
07.01.2012 03:25 3,9 C 65 % 1016,4 hPa 0,0 l/m 29,8 km/h (5 Bft) W-NW 296 0 min 0,000 mm 0 W/m -2,1 C -7,9 C 43,5 km/h (6 Bft) 96,00 %
07.01.2012 03:26 3,8 C 65 % 1016,4 hPa 0,0 l/m 32,3 km/h (5 Bft) N-NW 327 0 min 0,000 mm 0 W/m -2,2 C -8,7 C 49,9 km/h (6 Bft) 100,00 %
07.01.2012 03:27 3,8 C 65 % 1016,4 hPa 0,0 l/m 33,0 km/h (5 Bft) NW 312 0 min 0,000 mm 0 W/m -2,2 C -8,8 C 48,3 km/h (6 Bft) 100,00 %
07.01.2012 03:28 3,8 C 65 % 1016,4 hPa 0,0 l/m 32,4 km/h (5 Bft) W-NW 297 0 min 0,000 mm 0 W/m -2,2 C -8,7 C 53,1 km/h (7 Bft) 100,00 %
07.01.2012 03:29 3,8 C 65 % 1016,3 hPa 0,0 l/m 32,7 km/h (5 Bft) W-SW 244 0 min 0,000 mm 0 W/m -2,2 C -8,8 C 48,3 km/h (6 Bft) 100,00 %
07.01.2012 03:30 3,8 C 65 % 1016,4 hPa 0,0 l/m 35,5 km/h (5 Bft) W-NW 290 0 min 0,000 mm 0 W/m -2,2 C -9,4 C 49,9 km/h (6 Bft) 100,00 %
07.01.2012 03:31 3,8 C 65 % 1016,3 hPa 0,0 l/m 32,7 km/h (5 Bft) W-NW 291 0 min 0,000 mm 0 W/m -2,2 C -8,8 C 38,6 km/h (5 Bft) 100,00 %
07.01.2012 03:32 3,8 C 65 % 1016,2 hPa 0,0 l/m 29,6 km/h (5 Bft) NW 309 0 min 0,000 mm 0 W/m -2,2 C -8,0 C 43,5 km/h (6 Bft) 100,00 %
07.01.2012 03:33 3,8 C 65 % 1016,2 hPa 0,0 l/m 32,9 km/h (5 Bft) NW 304 0 min 0,000 mm 0 W/m -2,2 C -8,8 C 43,5 km/h (6 Bft) 100,00 %
07.01.2012 03:34 3,8 C 65 % 1016,3 hPa 0,0 l/m 35,1 km/h (5 Bft) W-NW 289 0 min 0,000 mm 0 W/m -2,2 C -9,3 C 46,7 km/h (6 Bft) 100,00 %
07.01.2012 03:35 3,8 C 65 % 1016,2 hPa 0,0 l/m 28,7 km/h (4 Bft) W-NW 288 0 min 0,000 mm 0 W/m -2,2 C -7,7 C 41,8 km/h (6 Bft) 100,00 %
07.01.2012 03:36 3,8 C 65 % 1016,2 hPa 0,0 l/m 34,6 km/h (5 Bft) W-NW 299 0 min 0,000 mm 0 W/m -2,2 C -9,2 C 48,3 km/h (6 Bft) 100,00 %
07.01.2012 03:37 3,8 C 65 % 1016,3 hPa 0,0 l/m 29,7 km/h (5 Bft) W-NW 297 0 min 0,000 mm 0 W/m -2,2 C -8,0 C 45,1 km/h (6 Bft) 100,00 %
07.01.2012 03:38 3,8 C 65 % 1016,3 hPa 0,0 l/m 28,7 km/h (4 Bft) W-NW 287 0 min 0,000 mm 0 W/m -2,2 C -7,7 C 43,5 km/h (6 Bft) 100,00 %
07.01.2012 03:39 3,8 C 65 % 1016,3 hPa 0,0 l/m 33,1 km/h (5 Bft) W-NW 299 0 min 0,000 mm 0 W/m -2,2 C -8,8 C 41,8 km/h (6 Bft) 100,00 %
07.01.2012 03:40 3,8 C 66 % 1016,3 hPa 0,0 l/m 32,9 km/h (5 Bft) W-NW 290 0 min 0,000 mm 0 W/m -2,0 C -8,8 C 46,7 km/h (6 Bft) 100,00 %
07.01.2012 03:41 3,8 C 66 % 1016,2 hPa 0,0 l/m 36,8 km/h (5 Bft) W-NW 288 0 min 0,000 mm 0 W/m -2,0 C -9,7 C 49,9 km/h (6 Bft) 100,00 %
07.01.2012 03:42 3,8 C 65 % 1016,3 hPa 0,0 l/m 41,3 km/h (6 Bft) W-NW 296 0 min 0,000 mm 0 W/m -2,2 C -10,5 C 61,2 km/h (7 Bft) 100,00 %
07.01.2012 03:43 3,8 C 66 % 1016,3 hPa 0,0 l/m 35,6 km/h (5 Bft) W 269 0 min 0,000 mm 0 W/m -2,0 C -9,4 C 49,9 km/h (6 Bft) 100,00 %
07.01.2012 03:44 3,8 C 65 % 1016,3 hPa 0,0 l/m 31,2 km/h (5 Bft) NW 322 0 min 0,000 mm 0 W/m -2,2 C -8,4 C 40,2 km/h (6 Bft) 100,00 %
07.01.2012 03:45 3,8 C 66 % 1016,3 hPa 0,0 l/m 26,2 km/h (4 Bft) W-NW 288 0 min 0,000 mm 0 W/m -2,0 C -7,0 C 45,1 km/h (6 Bft) 100,00 %
07.01.2012 03:46 3,8 C 65 % 1016,3 hPa 0,0 l/m 34,2 km/h (5 Bft) W-NW 296 0 min 0,000 mm 0 W/m -2,2 C -9,1 C 45,1 km/h (6 Bft) 100,00 %
07.01.2012 03:47 3,8 C 65 % 1016,3 hPa 0,0 l/m 38,5 km/h (5 Bft) W-NW 286 0 min 0,000 mm 0 W/m -2,2 C -10,0 C 56,3 km/h (7 Bft) 100,00 %
07.01.2012 03:48 3,8 C 65 % 1016,2 hPa 0,0 l/m 37,6 km/h (5 Bft) W-NW 298 0 min 0,000 mm 0 W/m -2,2 C -9,8 C 53,1 km/h (7 Bft) 100,00 %
07.01.2012 03:49 3,8 C 65 % 1016,2 hPa 0,0 l/m 35,3 km/h (5 Bft) W 275 0 min 0,000 mm 0 W/m -2,2 C -9,4 C 48,3 km/h (6 Bft) 100,00 %
07.01.2012 03:50 3,8 C 65 % 1016,3 hPa 0,0 l/m 35,8 km/h (5 Bft) W-NW 288 0 min 0,000 mm 0 W/m -2,2 C -9,5 C 43,5 km/h (6 Bft) 100,00 %
07.01.2012 03:51 3,8 C 66 % 1016,3 hPa 0,0 l/m 29,7 km/h (5 Bft) W-NW 290 0 min 0,000 mm 0 W/m -2,0 C -8,0 C 37,0 km/h (5 Bft) 100,00 %
07.01.2012 03:52 3,8 C 66 % 1016,3 hPa 0,0 l/m 30,9 km/h (5 Bft) W 279 0 min 0,000 mm 0 W/m -2,0 C -8,3 C 43,5 km/h (6 Bft) 100,00 %
07.01.2012 03:53 3,8 C 66 % 1016,3 hPa 0,0 l/m 24,5 km/h (4 Bft) W 268 0 min 0,000 mm 0 W/m -2,0 C -6,4 C 33,8 km/h (5 Bft) 100,00 %
07.01.2012 03:54 3,8 C 66 % 1016,3 hPa 0,0 l/m 28,2 km/h (4 Bft) W 275 0 min 0,000 mm 0 W/m -2,0 C -7,6 C 41,8 km/h (6 Bft) 100,00 %
07.01.2012 03:55 3,7 C 66 % 1016,3 hPa 0,0 l/m 22,0 km/h (4 Bft) W-NW 289 0 min 0,000 mm 0 W/m -2,0 C -5,6 C 33,8 km/h (5 Bft) 100,00 %
07.01.2012 03:56 3,7 C 66 % 1016,3 hPa 0,0 l/m 27,2 km/h (4 Bft) W 276 0 min 0,000 mm 0 W/m -2,0 C -7,4 C 46,7 km/h (6 Bft) 100,00 %
07.01.2012 03:57 3,7 C 66 % 1016,2 hPa 0,0 l/m 34,4 km/h (5 Bft) W-SW 252 0 min 0,000 mm 0 W/m -2,0 C -9,3 C 43,5 km/h (6 Bft) 100,00 %
07.01.2012 03:58 3,7 C 66 % 1016,3 hPa 0,0 l/m 32,1 km/h (5 Bft) W-NW 291 0 min 0,000 mm 0 W/m -2,0 C -8,7 C 45,1 km/h (6 Bft) 100,00 %
07.01.2012 03:59 3,7 C 67 % 1016,3 hPa 0,0 l/m 30,2 km/h (5 Bft) W-NW 296 0 min 0,000 mm 0 W/m -1,8 C -8,3 C 40,2 km/h (6 Bft) 100,00 %
07.01.2012 04:00 3,7 C 67 % 1016,3 hPa 0,0 l/m 27,9 km/h (4 Bft) W-NW 286 0 min 0,077 mm 0 W/m -1,8 C -7,6 C 35,4 km/h (5 Bft) 100,00 %
07.01.2012 04:01 3,6 C 67 % 1016,2 hPa 0,0 l/m 27,2 km/h (4 Bft) NW 312 0 min 0,000 mm 0 W/m -1,9 C -7,5 C 37,0 km/h (5 Bft) 100,00 %
07.01.2012 04:03 3,6 C 67 % 1016,3 hPa 0,0 l/m 32,3 km/h (5 Bft) N-NW 327 0 min 0,000 mm 0 W/m -1,9 C -8,9 C 51,5 km/h (7 Bft) 100,00 %
07.01.2012 04:04 3,6 C 67 % 1016,3 hPa 0,0 l/m 26,6 km/h (4 Bft) W 264 0 min 0,000 mm 0 W/m -1,9 C -7,4 C 40,2 km/h (6 Bft) 100,00 %
07.01.2012 04:05 3,6 C 67 % 1016,3 hPa 0,0 l/m 20,8 km/h (4 Bft) NW 306 0 min 0,000 mm 0 W/m -1,9 C -5,3 C 30,6 km/h (5 Bft) 100,00 %
07.01.2012 04:06 3,6 C 67 % 1016,3 hPa 0,0 l/m 28,5 km/h (4 Bft) W-NW 283 0 min 0,000 mm 0 W/m -1,9 C -7,9 C 45,1 km/h (6 Bft) 100,00 %
07.01.2012 04:07 3,6 C 68 % 1016,3 hPa 0,0 l/m 28,5 km/h (4 Bft) W 275 0 min 0,000 mm 0 W/m -1,7 C -7,9 C 43,5 km/h (6 Bft) 100,00 %
07.01.2012 04:08 3,6 C 68 % 1016,3 hPa 0,0 l/m 27,7 km/h (4 Bft) NW 305 0 min 0,000 mm 0 W/m -1,7 C -7,7 C 45,1 km/h (6 Bft) 100,00 %
07.01.2012 04:09 3,5 C 68 % 1016,2 hPa 0,0 l/m 27,0 km/h (4 Bft) W 266 0 min 0,000 mm 0 W/m -1,8 C -7,6 C 33,8 km/h (5 Bft) 100,00 %
07.01.2012 04:10 3,5 C 68 % 1016,2 hPa 0,0 l/m 21,7 km/h (4 Bft) W 268 0 min 0,000 mm 0 W/m -1,8 C -5,8 C 30,6 km/h (5 Bft) 100,00 %
07.01.2012 04:11 3,4 C 68 % 1016,2 hPa 0,0 l/m 23,9 km/h (4 Bft) W-NW 287 0 min 0,000 mm 0 W/m -1,9 C -6,7 C 38,6 km/h (5 Bft) 100,00 %
07.01.2012 04:12 3,4 C 68 % 1016,2 hPa 0,0 l/m 25,4 km/h (4 Bft) NW 304 0 min 0,000 mm 0 W/m -1,9 C -7,2 C 37,0 km/h (5 Bft) 100,00 %
07.01.2012 04:13 3,4 C 68 % 1016,2 hPa 0,0 l/m 26,9 km/h (4 Bft) W 271 0 min 0,000 mm 0 W/m -1,9 C -7,7 C 45,1 km/h (6 Bft) 100,00 %
07.01.2012 04:14 3,4 C 69 % 1016,2 hPa 0,0 l/m 28,1 km/h (4 Bft) W-NW 300 0 min 0,000 mm 0 W/m -1,7 C -8,1 C 38,6 km/h (5 Bft) 100,00 %
07.01.2012 04:15 3,4 C 69 % 1016,2 hPa 0,0 l/m 19,8 km/h (3 Bft) NW 304 0 min 0,000 mm 0 W/m -1,7 C -5,2 C 37,0 km/h (5 Bft) 100,00 %
07.01.2012 04:16 3,4 C 69 % 1016,2 hPa 0,0 l/m 20,9 km/h (4 Bft) N-NW 327 0 min 0,000 mm 0 W/m -1,7 C -5,6 C 30,6 km/h (5 Bft) 100,00 %
07.01.2012 04:17 3,3 C 69 % 1016,2 hPa 0,0 l/m 15,3 km/h (3 Bft) W-NW 284 0 min 0,000 mm 0 W/m -1,8 C -3,1 C 27,4 km/h (4 Bft) 100,00 %
07.01.2012 04:18 3,3 C 69 % 1016,2 hPa 0,0 l/m 23,3 km/h (4 Bft) W 275 0 min 0,000 mm 0 W/m -1,8 C -6,7 C 46,7 km/h (6 Bft) 100,00 %
07.01.2012 04:19 3,3 C 69 % 1016,2 hPa 0,0 l/m 18,7 km/h (3 Bft) W 267 0 min 0,000 mm 0 W/m -1,8 C -4,8 C 27,4 km/h (4 Bft) 100,00 %
07.01.2012 04:20 3,2 C 69 % 1016,2 hPa 0,0 l/m 20,0 km/h (4 Bft) W 281 0 min 0,000 mm 0 W/m -1,9 C -5,5 C 30,6 km/h (5 Bft) 100,00 %
07.01.2012 04:21 3,2 C 69 % 1016,2 hPa 0,0 l/m 15,3 km/h (3 Bft) W-NW 298 0 min 0,000 mm 0 W/m -1,9 C -3,3 C 24,1 km/h (4 Bft) 100,00 %
07.01.2012 04:22 3,2 C 70 % 1016,2 hPa 0,0 l/m 16,1 km/h (3 Bft) W-NW 293 0 min 0,000 mm 0 W/m -1,7 C -3,7 C 32,2 km/h (5 Bft) 100,00 %
07.01.2012 04:23 3,1 C 70 % 1016,2 hPa 0,0 l/m 18,1 km/h (3 Bft) W-NW 298 0 min 0,000 mm 0 W/m -1,8 C -4,8 C 29,0 km/h (5 Bft) 100,00 %
07.01.2012 04:24 3,1 C 70 % 1016,2 hPa 0,0 l/m 12,9 km/h (3 Bft) W 267 0 min 0,000 mm 0 W/m -1,8 C -2,0 C 19,3 km/h (3 Bft) 100,00 %
07.01.2012 04:25 3,1 C 70 % 1016,2 hPa 0,0 l/m 22,3 km/h (4 Bft) W-NW 288 0 min 0,000 mm 0 W/m -1,8 C -6,5 C 38,6 km/h (5 Bft) 100,00 %
07.01.2012 04:26 3,0 C 70 % 1016,2 hPa 0,0 l/m 23,3 km/h (4 Bft) W-NW 296 0 min 0,000 mm 0 W/m -1,9 C -7,1 C 35,4 km/h (5 Bft) 100,00 %
07.01.2012 04:27 2,9 C 70 % 1016,2 hPa 0,0 l/m 24,8 km/h (4 Bft) NW 304 0 min 0,000 mm 0 W/m -2,0 C -7,7 C 40,2 km/h (6 Bft) 100,00 %
07.01.2012 04:28 2,9 C 70 % 1016,2 hPa 0,0 l/m 20,5 km/h (4 Bft) W 273 0 min 0,000 mm 0 W/m -2,0 C -6,1 C 32,2 km/h (5 Bft) 100,00 %
07.01.2012 04:29 2,9 C 70 % 1016,3 hPa 0,0 l/m 21,7 km/h (4 Bft) W-SW 257 0 min 0,000 mm 0 W/m -2,0 C -6,6 C 37,0 km/h (5 Bft) 100,00 %
07.01.2012 04:30 2,9 C 70 % 1016,3 hPa 0,0 l/m 22,0 km/h (4 Bft) NW 323 0 min 0,000 mm 0 W/m -2,0 C -6,7 C 35,4 km/h (5 Bft) 100,00 %
07.01.2012 04:31 2,9 C 71 % 1016,3 hPa 0,0 l/m 21,1 km/h (4 Bft) W 275 0 min 0,000 mm 0 W/m -1,8 C -6,3 C 32,2 km/h (5 Bft) 100,00 %
07.01.2012 04:32 2,9 C 71 % 1016,3 hPa 0,0 l/m 24,5 km/h (4 Bft) W-NW 292 0 min 0,000 mm 0 W/m -1,8 C -7,6 C 33,8 km/h (5 Bft) 100,00 %
07.01.2012 04:33 3,0 C 71 % 1016,2 hPa 0,0 l/m 19,2 km/h (3 Bft) W-NW 298 0 min 0,000 mm 0 W/m -1,7 C -5,4 C 32,2 km/h (5 Bft) 100,00 %
07.01.2012 04:34 3,1 C 71 % 1016,3 hPa 0,0 l/m 18,8 km/h (3 Bft) N-NW 345 0 min 0,000 mm 0 W/m -1,6 C -5,1 C 30,6 km/h (5 Bft) 100,00 %
07.01.2012 04:35 3,1 C 71 % 1016,2 hPa 0,0 l/m 26,5 km/h (4 Bft) W-NW 288 0 min 0,000 mm 0 W/m -1,6 C -8,0 C 37,0 km/h (5 Bft) 100,00 %
07.01.2012 04:36 3,1 C 71 % 1016,3 hPa 0,0 l/m 23,2 km/h (4 Bft) W-NW 290 0 min 0,000 mm 0 W/m -1,6 C -6,9 C 38,6 km/h (5 Bft) 100,00 %
07.01.2012 04:37 3,1 C 71 % 1016,2 hPa 0,0 l/m 22,5 km/h (4 Bft) NW 307 0 min 0,000 mm 0 W/m -1,6 C -6,6 C 37,0 km/h (5 Bft) 100,00 %
07.01.2012 04:38 3,2 C 71 % 1016,2 hPa 0,0 l/m 23,0 km/h (4 Bft) W 280 0 min 0,000 mm 0 W/m -1,5 C -6,7 C 38,6 km/h (5 Bft) 100,00 %
07.01.2012 04:39 3,2 C 71 % 1016,2 hPa 0,0 l/m 29,9 km/h (5 Bft) W 279 0 min 0,000 mm 0 W/m -1,5 C -8,9 C 37,0 km/h (5 Bft) 95,83 %
07.01.2012 04:40 3,2 C 71 % 1016,1 hPa 0,0 l/m 25,0 km/h (4 Bft) W-NW 299 0 min 0,000 mm 0 W/m -1,5 C -7,4 C 33,8 km/h (5 Bft) 100,00 %
07.01.2012 04:41 3,2 C 71 % 1016,1 hPa 0,0 l/m 19,3 km/h (3 Bft) W 281 0 min 0,000 mm 0 W/m -1,5 C -5,2 C 29,0 km/h (5 Bft) 100,00 %
07.01.2012 04:42 3,2 C 71 % 1016,1 hPa 0,0 l/m 21,6 km/h (4 Bft) W-NW 299 0 min 0,000 mm 0 W/m -1,5 C -6,1 C 41,8 km/h (6 Bft) 100,00 %
07.01.2012 04:43 3,3 C 71 % 1016,0 hPa 0,0 l/m 18,1 km/h (3 Bft) NW 304 0 min 0,000 mm 0 W/m -1,4 C -4,5 C 33,8 km/h (5 Bft) 95,83 %
07.01.2012 04:44 3,3 C 71 % 1016,1 hPa 0,0 l/m 23,7 km/h (4 Bft) W 265 0 min 0,000 mm 0 W/m -1,4 C -6,8 C 35,4 km/h (5 Bft) 100,00 %
07.01.2012 04:45 3,3 C 71 % 1016,0 hPa 0,0 l/m 29,2 km/h (5 Bft) W-SW 256 0 min 0,000 mm 0 W/m -1,4 C -8,5 C 48,3 km/h (6 Bft) 100,00 %
07.01.2012 04:46 3,3 C 71 % 1016,0 hPa 0,0 l/m 34,4 km/h (5 Bft) W-NW 300 0 min 0,000 mm 0 W/m -1,4 C -9,9 C 49,9 km/h (6 Bft) 100,00 %
07.01.2012 04:47 3,3 C 71 % 1016,0 hPa 0,0 l/m 31,1 km/h (5 Bft) W-NW 284 0 min 0,000 mm 0 W/m -1,4 C -9,1 C 43,5 km/h (6 Bft) 100,00 %
07.01.2012 04:48 3,4 C 71 % 1016,0 hPa 0,0 l/m 32,8 km/h (5 Bft) W-NW 299 0 min 0,000 mm 0 W/m -1,3 C -9,3 C 45,1 km/h (6 Bft) 100,00 %
07.01.2012 04:49 3,4 C 71 % 1016,0 hPa 0,0 l/m 30,4 km/h (5 Bft) W-NW 300 0 min 0,000 mm 0 W/m -1,3 C -8,7 C 45,1 km/h (6 Bft) 100,00 %
07.01.2012 04:50 3,4 C 71 % 1016,0 hPa 0,0 l/m 36,3 km/h (5 Bft) NW 313 0 min 0,000 mm 0 W/m -1,3 C -10,2 C 48,3 km/h (6 Bft) 100,00 %
07.01.2012 04:51 3,4 C 71 % 1016,0 hPa 0,0 l/m 34,5 km/h (5 Bft) W-NW 288 0 min 0,000 mm 0 W/m -1,3 C -9,8 C 45,1 km/h (6 Bft) 100,00 %
07.01.2012 04:52 3,5 C 71 % 1016,1 hPa 0,0 l/m 32,5 km/h (5 Bft) W-NW 287 0 min 0,000 mm 0 W/m -1,3 C -9,1 C 45,1 km/h (6 Bft) 100,00 %
07.01.2012 04:53 3,6 C 70 % 1016,1 hPa 0,0 l/m 27,5 km/h (4 Bft) NW 310 0 min 0,000 mm 0 W/m -1,3 C -7,6 C 41,8 km/h (6 Bft) 100,00 %
07.01.2012 04:54 3,6 C 70 % 1016,2 hPa 0,0 l/m 25,3 km/h (4 Bft) NW 319 0 min 0,000 mm 0 W/m -1,3 C -6,9 C 43,5 km/h (6 Bft) 100,00 %
07.01.2012 04:55 3,6 C 70 % 1016,2 hPa 0,0 l/m 28,0 km/h (4 Bft) NW 320 0 min 0,000 mm 0 W/m -1,3 C -7,8 C 37,0 km/h (5 Bft) 100,00 %
07.01.2012 04:56 3,6 C 70 % 1016,1 hPa 0,0 l/m 31,3 km/h (5 Bft) NW 309 0 min 0,000 mm 0 W/m -1,3 C -8,7 C 40,2 km/h (6 Bft) 100,00 %
07.01.2012 04:57 3,6 C 70 % 1016,2 hPa 0,0 l/m 22,3 km/h (4 Bft) W 268 0 min 0,000 mm 0 W/m -1,3 C -5,9 C 35,4 km/h (5 Bft) 100,00 %
07.01.2012 04:58 3,6 C 70 % 1016,3 hPa 0,0 l/m 28,1 km/h (4 Bft) W-NW 302 0 min 0,000 mm 0 W/m -1,3 C -7,8 C 46,7 km/h (6 Bft) 100,00 %
07.01.2012 04:59 3,6 C 70 % 1016,3 hPa 0,0 l/m 23,7 km/h (4 Bft) W-NW 288 0 min 0,000 mm 0 W/m -1,3 C -6,4 C 35,4 km/h (5 Bft) 100,00 %
07.01.2012 05:00 3,6 C 70 % 1016,4 hPa 0,0 l/m 28,6 km/h (4 Bft) W 280 0 min 0,000 mm 0 W/m -1,3 C -8,0 C 37,0 km/h (5 Bft) 100,00 %
07.01.2012 05:01 3,6 C 70 % 1016,4 hPa 0,0 l/m 21,8 km/h (4 Bft) W-NW 298 0 min 0,050 mm 0 W/m -1,3 C -5,7 C 32,2 km/h (5 Bft) 100,00 %
07.01.2012 05:03 3,6 C 70 % 1016,4 hPa 0,0 l/m 18,3 km/h (3 Bft) W-NW 287 0 min 0,000 mm 0 W/m -1,3 C -4,2 C 33,8 km/h (5 Bft) 100,00 %
07.01.2012 05:04 3,6 C 70 % 1016,4 hPa 0,0 l/m 18,8 km/h (3 Bft) W-NW 284 0 min 0,000 mm 0 W/m -1,3 C -4,5 C 27,4 km/h (4 Bft) 100,00 %
07.01.2012 05:05 3,6 C 71 % 1016,4 hPa 0,0 l/m 20,3 km/h (4 Bft) W 264 0 min 0,000 mm 0 W/m -1,2 C -5,1 C 35,4 km/h (5 Bft) 100,00 %
07.01.2012 05:06 3,6 C 71 % 1016,5 hPa 0,0 l/m 16,2 km/h (3 Bft) W-SW 249 0 min 0,000 mm 0 W/m -1,2 C -3,2 C 27,4 km/h (4 Bft) 100,00 %
07.01.2012 05:07 3,6 C 71 % 1016,6 hPa 0,0 l/m 21,1 km/h (4 Bft) W-NW 292 0 min 0,000 mm 0 W/m -1,2 C -5,4 C 30,6 km/h (5 Bft) 100,00 %
07.01.2012 05:08 3,6 C 71 % 1016,6 hPa 0,0 l/m 16,6 km/h (3 Bft) W-NW 292 0 min 0,000 mm 0 W/m -1,2 C -3,4 C 35,4 km/h (5 Bft) 100,00 %
07.01.2012 05:09 3,6 C 71 % 1016,6 hPa 0,0 l/m 21,2 km/h (4 Bft) W 269 0 min 0,000 mm 0 W/m -1,2 C -5,5 C 30,6 km/h (5 Bft) 100,00 %
07.01.2012 05:10 3,5 C 71 % 1016,7 hPa 0,0 l/m 16,9 km/h (3 Bft) W-NW 288 0 min 0,000 mm 0 W/m -1,3 C -3,7 C 35,4 km/h (5 Bft) 100,00 %
07.01.2012 05:11 3,5 C 71 % 1016,7 hPa 0,0 l/m 17,6 km/h (3 Bft) W 270 0 min 0,000 mm 0 W/m -1,3 C -4,0 C 27,4 km/h (4 Bft) 100,00 %
07.01.2012 05:12 3,5 C 71 % 1016,7 hPa 0,0 l/m 17,8 km/h (3 Bft) W-NW 283 0 min 0,000 mm 0 W/m -1,3 C -4,1 C 30,6 km/h (5 Bft) 100,00 %
07.01.2012 05:13 3,5 C 71 % 1016,8 hPa 0,0 l/m 18,1 km/h (3 Bft) NW 305 0 min 0,000 mm 0 W/m -1,3 C -4,3 C 30,6 km/h (5 Bft) 100,00 %
07.01.2012 05:14 3,5 C 71 % 1016,9 hPa 0,0 l/m 23,0 km/h (4 Bft) W-NW 287 0 min 0,000 mm 0 W/m -1,3 C -6,3 C 35,4 km/h (5 Bft) 100,00 %
07.01.2012 05:15 3,5 C 71 % 1016,9 hPa 0,0 l/m 15,2 km/h (3 Bft) NW 310 0 min 0,000 mm 0 W/m -1,3 C -2,8 C 25,7 km/h (4 Bft) 100,00 %
07.01.2012 05:16 3,5 C 71 % 1016,7 hPa 0,0 l/m 15,9 km/h (3 Bft) W 259 0 min 0,000 mm 0 W/m -1,3 C -3,2 C 27,4 km/h (4 Bft) 100,00 %
07.01.2012 05:17 3,5 C 71 % 1016,9 hPa 0,0 l/m 14,5 km/h (3 Bft) W-NW 297 0 min 0,000 mm 0 W/m -1,3 C -2,5 C 22,5 km/h (4 Bft) 100,00 %
07.01.2012 05:18 3,5 C 71 % 1016,9 hPa 0,0 l/m 20,2 km/h (4 Bft) W-NW 303 0 min 0,000 mm 0 W/m -1,3 C -5,2 C 35,4 km/h (5 Bft) 100,00 %
07.01.2012 05:19 3,5 C 71 % 1016,9 hPa 0,0 l/m 24,1 km/h (4 Bft) W 267 0 min 0,000 mm 0 W/m -1,3 C -6,7 C 30,6 km/h (5 Bft) 100,00 %
07.01.2012 05:20 3,5 C 71 % 1016,9 hPa 0,0 l/m 22,0 km/h (4 Bft) NW 306 0 min 0,000 mm 0 W/m -1,3 C -5,9 C 37,0 km/h (5 Bft) 100,00 %
07.01.2012 05:21 3,6 C 71 % 1016,9 hPa 0,0 l/m 17,2 km/h (3 Bft) W-NW 283 0 min 0,000 mm 0 W/m -1,2 C -3,7 C 25,7 km/h (4 Bft) 100,00 %
07.01.2012 05:22 3,6 C 71 % 1016,9 hPa 0,0 l/m 17,7 km/h (3 Bft) W-SW 253 0 min 0,000 mm 0 W/m -1,2 C -4,0 C 33,8 km/h (5 Bft) 100,00 %
07.01.2012 05:23 3,6 C 71 % 1017,0 hPa 0,0 l/m 17,1 km/h (3 Bft) W-NW 292 0 min 0,000 mm 0 W/m -1,2 C -3,7 C 32,2 km/h (5 Bft) 96,00 %
07.01.2012 05:24 3,6 C 71 % 1017,0 hPa 0,0 l/m 17,6 km/h (3 Bft) W 273 0 min 0,000 mm 0 W/m -1,2 C -3,9 C 27,4 km/h (4 Bft) 100,00 %
07.01.2012 05:25 3,6 C 71 % 1017,0 hPa 0,0 l/m 17,4 km/h (3 Bft) W-NW 286 0 min 0,000 mm 0 W/m -1,2 C -3,8 C 29,0 km/h (5 Bft) 100,00 %
07.01.2012 05:26 3,6 C 71 % 1016,9 hPa 0,0 l/m 14,8 km/h (3 Bft) W-NW 283 0 min 0,000 mm 0 W/m -1,2 C -2,5 C 22,5 km/h (4 Bft) 100,00 %
07.01.2012 05:27 3,6 C 71 % 1017,0 hPa 0,0 l/m 13,6 km/h (3 Bft) W 265 0 min 0,000 mm 0 W/m -1,2 C -1,8 C 24,1 km/h (4 Bft) 100,00 %
07.01.2012 05:28 3,6 C 71 % 1016,9 hPa 0,0 l/m 13,0 km/h (3 Bft) W 280 0 min 0,000 mm 0 W/m -1,2 C -1,5 C 29,0 km/h (5 Bft) 100,00 %
07.01.2012 05:29 3,6 C 71 % 1016,9 hPa 0,0 l/m 18,1 km/h (3 Bft) NW 317 0 min 0,000 mm 0 W/m -1,2 C -4,2 C 25,7 km/h (4 Bft) 100,00 %
07.01.2012 05:30 3,6 C 71 % 1017,0 hPa 0,0 l/m 12,9 km/h (3 Bft) W-NW 282 0 min 0,000 mm 0 W/m -1,2 C -1,4 C 24,1 km/h (4 Bft) 100,00 %
07.01.2012 05:31 3,6 C 71 % 1017,1 hPa 0,0 l/m 12,0 km/h (2 Bft) W-NW 283 0 min 0,000 mm 0 W/m -1,2 C -0,9 C 20,9 km/h (4 Bft) 95,83 %
07.01.2012 05:32 3,6 C 71 % 1016,9 hPa 0,0 l/m 13,4 km/h (3 Bft) W 275 0 min 0,000 mm 0 W/m -1,2 C -1,7 C 27,4 km/h (4 Bft) 100,00 %
07.01.2012 05:33 3,6 C 71 % 1017,0 hPa 0,0 l/m 12,3 km/h (3 Bft) W-NW 301 0 min 0,000 mm 0 W/m -1,2 C -1,0 C 19,3 km/h (3 Bft) 100,00 %
07.01.2012 05:34 3,6 C 71 % 1017,1 hPa 0,0 l/m 12,9 km/h (3 Bft) W 271 0 min 0,000 mm 0 W/m -1,2 C -1,4 C 17,7 km/h (3 Bft) 100,00 %
07.01.2012 05:35 3,6 C 71 % 1017,0 hPa 0,0 l/m 17,2 km/h (3 Bft) W 261 0 min 0,000 mm 0 W/m -1,2 C -3,7 C 29,0 km/h (5 Bft) 100,00 %
07.01.2012 05:36 3,6 C 71 % 1017,1 hPa 0,0 l/m 14,3 km/h (3 Bft) W-NW 289 0 min 0,000 mm 0 W/m -1,2 C -2,2 C 22,5 km/h (4 Bft) 100,00 %
07.01.2012 05:37 3,6 C 71 % 1017,1 hPa 0,0 l/m 12,9 km/h (3 Bft) W 280 0 min 0,000 mm 0 W/m -1,2 C -1,4 C 27,4 km/h (4 Bft) 100,00 %
07.01.2012 05:38 3,6 C 71 % 1017,1 hPa 0,0 l/m 16,6 km/h (3 Bft) W-NW 282 0 min 0,000 mm 0 W/m -1,2 C -3,4 C 30,6 km/h (5 Bft) 100,00 %
07.01.2012 05:39 3,6 C 71 % 1017,2 hPa 0,0 l/m 18,5 km/h (3 Bft) NW 304 0 min 0,000 mm 0 W/m -1,2 C -4,3 C 30,6 km/h (5 Bft) 100,00 %
07.01.2012 05:40 3,6 C 71 % 1017,2 hPa 0,0 l/m 17,1 km/h (3 Bft) W-SW 249 0 min 0,000 mm 0 W/m -1,2 C -3,7 C 25,7 km/h (4 Bft) 100,00 %
07.01.2012 05:41 3,6 C 71 % 1017,2 hPa 0,0 l/m 15,1 km/h (3 Bft) W-SW 256 0 min 0,000 mm 0 W/m -1,2 C -2,7 C 30,6 km/h (5 Bft) 100,00 %
07.01.2012 05:42 3,6 C 71 % 1017,2 hPa 0,0 l/m 20,9 km/h (4 Bft) W-NW 290 0 min 0,000 mm 0 W/m -1,2 C -5,3 C 35,4 km/h (5 Bft) 96,00 %
07.01.2012 05:43 3,7 C 71 % 1017,2 hPa 0,0 l/m 17,9 km/h (3 Bft) W-SW 253 0 min 0,000 mm 0 W/m -1,1 C -3,9 C 29,0 km/h (5 Bft) 100,00 %
07.01.2012 05:44 3,7 C 71 % 1017,2 hPa 0,0 l/m 16,9 km/h (3 Bft) W-NW 282 0 min 0,000 mm 0 W/m -1,1 C -3,5 C 37,0 km/h (5 Bft) 100,00 %
07.01.2012 05:45 3,7 C 71 % 1017,3 hPa 0,0 l/m 15,3 km/h (3 Bft) NW 309 0 min 0,000 mm 0 W/m -1,1 C -2,7 C 27,4 km/h (4 Bft) 100,00 %
07.01.2012 05:46 3,7 C 71 % 1017,3 hPa 0,0 l/m 14,8 km/h (3 Bft) W 267 0 min 0,000 mm 0 W/m -1,1 C -2,4 C 22,5 km/h (4 Bft) 100,00 %
07.01.2012 05:47 3,7 C 71 % 1017,3 hPa 0,0 l/m 16,7 km/h (3 Bft) W-NW 291 0 min 0,000 mm 0 W/m -1,1 C -3,4 C 29,0 km/h (5 Bft) 100,00 %
07.01.2012 05:48 3,8 C 71 % 1017,2 hPa 0,0 l/m 12,6 km/h (3 Bft) W-NW 283 0 min 0,000 mm 0 W/m -1,0 C -1,0 C 22,5 km/h (4 Bft) 100,00 %
07.01.2012 05:49 3,8 C 71 % 1017,3 hPa 0,0 l/m 21,8 km/h (4 Bft) W-NW 296 0 min 0,000 mm 0 W/m -1,0 C -5,4 C 33,8 km/h (5 Bft) 100,00 %
07.01.2012 05:50 3,8 C 71 % 1017,3 hPa 0,0 l/m 17,2 km/h (3 Bft) W-NW 285 0 min 0,000 mm 0 W/m -1,0 C -3,5 C 29,0 km/h (5 Bft) 100,00 %
07.01.2012 05:51 3,8 C 71 % 1017,3 hPa 0,0 l/m 13,0 km/h (3 Bft) W-NW 290 0 min 0,000 mm 0 W/m -1,0 C -1,2 C 20,9 km/h (4 Bft) 100,00 %
07.01.2012 05:52 3,8 C 71 % 1017,3 hPa 0,0 l/m 13,5 km/h (3 Bft) W-NW 296 0 min 0,000 mm 0 W/m -1,0 C -1,5 C 30,6 km/h (5 Bft) 100,00 %
07.01.2012 05:53 3,8 C 71 % 1017,3 hPa 0,0 l/m 11,3 km/h (2 Bft) W-SW 246 0 min 0,000 mm 0 W/m -1,0 C -0,2 C 22,5 km/h (4 Bft) 100,00 %
07.01.2012 05:54 3,8 C 71 % 1017,3 hPa 0,0 l/m 14,0 km/h (3 Bft) W-NW 288 0 min 0,000 mm 0 W/m -1,0 C -1,8 C 19,3 km/h (3 Bft) 100,00 %
07.01.2012 05:55 3,8 C 71 % 1017,4 hPa 0,0 l/m 18,6 km/h (3 Bft) W-SW 252 0 min 0,000 mm 0 W/m -1,0 C -4,1 C 38,6 km/h (5 Bft) 100,00 %
07.01.2012 05:56 3,8 C 71 % 1017,3 hPa 0,0 l/m 18,6 km/h (3 Bft) W 274 0 min 0,000 mm 0 W/m -1,0 C -4,1 C 29,0 km/h (5 Bft) 96,30 %
07.01.2012 05:57 3,8 C 71 % 1017,2 hPa 0,0 l/m 21,3 km/h (4 Bft) W 281 0 min 0,000 mm 0 W/m -1,0 C -5,2 C 30,6 km/h (5 Bft) 100,00 %
07.01.2012 05:58 3,8 C 71 % 1017,3 hPa 0,0 l/m 21,7 km/h (4 Bft) W 273 0 min 0,000 mm 0 W/m -1,0 C -5,4 C 38,6 km/h (5 Bft) 100,00 %
07.01.2012 05:59 3,8 C 71 % 1017,3 hPa 0,0 l/m 14,5 km/h (3 Bft) W-NW 294 0 min 0,000 mm 0 W/m -1,0 C -2,1 C 27,4 km/h (4 Bft) 100,00 %
07.01.2012 06:00 3,9 C 71 % 1017,4 hPa 0,0 l/m 16,0 km/h (3 Bft) W-NW 290 0 min 0,051 mm 0 W/m -0,9 C -2,8 C 29,0 km/h (5 Bft) 100,00 %
07.01.2012 06:01 3,9 C 71 % 1017,4 hPa 0,0 l/m 18,3 km/h (3 Bft) W 269 0 min 0,000 mm 0 W/m -0,9 C -3,9 C 30,6 km/h (5 Bft) 100,00 %
07.01.2012 06:03 3,9 C 71 % 1017,4 hPa 0,0 l/m 13,6 km/h (3 Bft) W 269 0 min 0,000 mm 0 W/m -0,9 C -1,5 C 30,6 km/h (5 Bft) 100,00 %
07.01.2012 06:04 3,9 C 71 % 1017,4 hPa 0,0 l/m 13,7 km/h (3 Bft) W-NW 302 0 min 0,000 mm 0 W/m -0,9 C -1,5 C 24,1 km/h (4 Bft) 100,00 %
07.01.2012 06:05 3,9 C 71 % 1017,5 hPa 0,0 l/m 17,2 km/h (3 Bft) W-NW 290 0 min 0,000 mm 0 W/m -0,9 C -3,4 C 25,7 km/h (4 Bft) 100,00 %
07.01.2012 06:06 3,9 C 71 % 1017,4 hPa 0,0 l/m 7,3 km/h (2 Bft) W 279 0 min 0,000 mm 0 W/m -0,9 C 3,1 C 9,7 km/h (2 Bft) 100,00 %
07.01.2012 06:07 3,9 C 71 % 1017,4 hPa 0,0 l/m 13,3 km/h (3 Bft) W 281 0 min 0,000 mm 0 W/m -0,9 C -1,3 C 22,5 km/h (4 Bft) 100,00 %
07.01.2012 06:08 3,9 C 71 % 1017,5 hPa 0,0 l/m 10,9 km/h (2 Bft) NW 313 0 min 0,000 mm 0 W/m -0,9 C 0,2 C 22,5 km/h (4 Bft) 100,00 %
07.01.2012 06:09 3,9 C 71 % 1017,5 hPa 0,0 l/m 14,9 km/h (3 Bft) W 280 0 min 0,000 mm 0 W/m -0,9 C -2,2 C 27,4 km/h (4 Bft) 100,00 %
07.01.2012 06:10 3,9 C 71 % 1017,5 hPa 0,0 l/m 15,2 km/h (3 Bft) W 276 0 min 0,000 mm 0 W/m -0,9 C -2,4 C 24,1 km/h (4 Bft) 100,00 %
07.01.2012 06:11 3,9 C 71 % 1017,5 hPa 0,0 l/m 13,6 km/h (3 Bft) W-NW 284 0 min 0,000 mm 0 W/m -0,9 C -1,5 C 20,9 km/h (4 Bft) 100,00 %
07.01.2012 06:12 3,9 C 71 % 1017,5 hPa 0,0 l/m 16,7 km/h (3 Bft) W 271 0 min 0,000 mm 0 W/m -0,9 C -3,1 C 25,7 km/h (4 Bft) 100,00 %
07.01.2012 06:13 3,9 C 71 % 1017,5 hPa 0,0 l/m 15,2 km/h (3 Bft) W-NW 292 0 min 0,000 mm 0 W/m -0,9 C -2,4 C 22,5 km/h (4 Bft) 100,00 %
07.01.2012 06:14 3,9 C 71 % 1017,5 hPa 0,0 l/m 20,2 km/h (4 Bft) W-NW 284 0 min 0,000 mm 0 W/m -0,9 C -4,7 C 29,0 km/h (5 Bft) 100,00 %
07.01.2012 06:15 3,9 C 71 % 1017,5 hPa 0,0 l/m 18,4 km/h (3 Bft) W 276 0 min 0,000 mm 0 W/m -0,9 C -3,9 C 30,6 km/h (5 Bft) 100,00 %
07.01.2012 06:16 3,9 C 71 % 1017,4 hPa 0,0 l/m 19,9 km/h (4 Bft) W 268 0 min 0,000 mm 0 W/m -0,9 C -4,6 C 27,4 km/h (4 Bft) 100,00 %
07.01.2012 06:17 3,9 C 71 % 1017,5 hPa 0,0 l/m 11,1 km/h (2 Bft) W 263 0 min 0,000 mm 0 W/m -0,9 C 0,1 C 20,9 km/h (4 Bft) 100,00 %
07.01.2012 06:18 3,9 C 71 % 1017,5 hPa 0,0 l/m 14,3 km/h (3 Bft) W-NW 301 0 min 0,000 mm 0 W/m -0,9 C -1,9 C 27,4 km/h (4 Bft) 100,00 %
07.01.2012 06:19 4,0 C 71 % 1017,4 hPa 0,0 l/m 16,8 km/h (3 Bft) W-NW 284 0 min 0,000 mm 0 W/m -0,8 C -3,0 C 29,0 km/h (5 Bft) 100,00 %
07.01.2012 06:20 4,0 C 71 % 1017,5 hPa 0,0 l/m 17,4 km/h (3 Bft) NW 323 0 min 0,000 mm 0 W/m -0,8 C -3,3 C 30,6 km/h (5 Bft) 100,00 %
07.01.2012 06:21 4,0 C 71 % 1017,5 hPa 0,0 l/m 15,3 km/h (3 Bft) W-NW 287 0 min 0,000 mm 0 W/m -0,8 C -2,3 C 27,4 km/h (4 Bft) 100,00 %
07.01.2012 06:22 4,1 C 71 % 1017,6 hPa 0,0 l/m 13,2 km/h (3 Bft) W 273 0 min 0,000 mm 0 W/m -0,7 C -1,0 C 19,3 km/h (3 Bft) 100,00 %
07.01.2012 06:23 4,1 C 71 % 1017,6 hPa 0,0 l/m 14,0 km/h (3 Bft) W-NW 290 0 min 0,000 mm 0 W/m -0,7 C -1,5 C 25,7 km/h (4 Bft) 100,00 %
07.01.2012 06:24 4,1 C 71 % 1017,7 hPa 0,0 l/m 21,8 km/h (4 Bft) W 266 0 min 0,000 mm 0 W/m -0,7 C -5,0 C 30,6 km/h (5 Bft) 100,00 %
07.01.2012 06:25 4,1 C 71 % 1017,7 hPa 0,0 l/m 15,7 km/h (3 Bft) W 276 0 min 0,000 mm 0 W/m -0,7 C -2,4 C 37,0 km/h (5 Bft) 100,00 %
07.01.2012 06:26 4,1 C 71 % 1017,7 hPa 0,0 l/m 15,2 km/h (3 Bft) W-NW 289 0 min 0,000 mm 0 W/m -0,7 C -2,1 C 29,0 km/h (5 Bft) 100,00 %
07.01.2012 06:27 4,1 C 71 % 1017,7 hPa 0,0 l/m 21,7 km/h (4 Bft) W-NW 292 0 min 0,000 mm 0 W/m -0,7 C -5,0 C 32,2 km/h (5 Bft) 100,00 %
07.01.2012 06:28 4,1 C 71 % 1017,8 hPa 0,0 l/m 19,0 km/h (3 Bft) W 269 0 min 0,000 mm 0 W/m -0,7 C -3,9 C 25,7 km/h (4 Bft) 100,00 %
07.01.2012 06:29 4,1 C 71 % 1017,8 hPa 0,0 l/m 23,5 km/h (4 Bft) W 261 0 min 0,000 mm 0 W/m -0,7 C -5,7 C 38,6 km/h (5 Bft) 100,00 %
07.01.2012 06:30 4,2 C 71 % 1017,9 hPa 0,0 l/m 19,9 km/h (4 Bft) W 261 0 min 0,000 mm 0 W/m -0,6 C -4,2 C 30,6 km/h (5 Bft) 100,00 %
07.01.2012 06:31 4,2 C 71 % 1017,9 hPa 0,0 l/m 18,5 km/h (3 Bft) W 260 0 min 0,000 mm 0 W/m -0,6 C -3,6 C 30,6 km/h (5 Bft) 100,00 %
07.01.2012 06:32 4,2 C 71 % 1017,9 hPa 0,0 l/m 13,5 km/h (3 Bft) W-NW 291 0 min 0,000 mm 0 W/m -0,6 C -1,1 C 24,1 km/h (4 Bft) 100,00 %
07.01.2012 06:33 4,2 C 71 % 1017,9 hPa 0,0 l/m 14,5 km/h (3 Bft) W-SW 252 0 min 0,000 mm 0 W/m -0,6 C -1,6 C 25,7 km/h (4 Bft) 100,00 %
07.01.2012 06:34 4,2 C 71 % 1017,9 hPa 0,0 l/m 13,3 km/h (3 Bft) N 5 0 min 0,000 mm 0 W/m -0,6 C -1,0 C 30,6 km/h (5 Bft) 100,00 %
07.01.2012 06:35 4,2 C 71 % 1018,0 hPa 0,0 l/m 18,0 km/h (3 Bft) W-NW 284 0 min 0,000 mm 0 W/m -0,6 C -3,4 C 25,7 km/h (4 Bft) 100,00 %
07.01.2012 06:36 4,2 C 71 % 1017,9 hPa 0,0 l/m 19,2 km/h (3 Bft) W-NW 291 0 min 0,000 mm 0 W/m -0,6 C -3,9 C 32,2 km/h (5 Bft) 100,00 %
07.01.2012 06:37 4,3 C 71 % 1017,9 hPa 0,0 l/m 20,9 km/h (4 Bft) W 279 0 min 0,000 mm 0 W/m -0,5 C -4,4 C 33,8 km/h (5 Bft) 100,00 %
07.01.2012 06:38 4,3 C 71 % 1018,0 hPa 0,0 l/m 14,1 km/h (3 Bft) W 281 0 min 0,000 mm 0 W/m -0,5 C -1,3 C 25,7 km/h (4 Bft) 100,00 %
07.01.2012 06:39 4,3 C 71 % 1017,9 hPa 0,0 l/m 18,3 km/h (3 Bft) W-NW 292 0 min 0,000 mm 0 W/m -0,5 C -3,4 C 32,2 km/h (5 Bft) 100,00 %
07.01.2012 06:40 4,3 C 70 % 1017,9 hPa 0,0 l/m 22,0 km/h (4 Bft) W 270 0 min 0,000 mm 0 W/m -0,7 C -4,9 C 35,4 km/h (5 Bft) 100,00 %
07.01.2012 06:41 4,3 C 71 % 1017,8 hPa 0,0 l/m 20,7 km/h (4 Bft) W 263 0 min 0,000 mm 0 W/m -0,5 C -4,4 C 30,6 km/h (5 Bft) 100,00 %
07.01.2012 06:42 4,4 C 71 % 1017,8 hPa 0,0 l/m 20,6 km/h (4 Bft) W-NW 284 0 min 0,000 mm 0 W/m -0,4 C -4,2 C 32,2 km/h (5 Bft) 100,00 %
07.01.2012 06:43 4,4 C 70 % 1017,8 hPa 0,0 l/m 16,2 km/h (3 Bft) W-NW 294 0 min 0,000 mm 0 W/m -0,6 C -2,3 C 25,7 km/h (4 Bft) 100,00 %
07.01.2012 06:44 4,4 C 70 % 1017,8 hPa 0,0 l/m 15,6 km/h (3 Bft) W 275 0 min 0,000 mm 0 W/m -0,6 C -2,0 C 25,7 km/h (4 Bft) 100,00 %
07.01.2012 06:45 4,4 C 70 % 1017,8 hPa 0,0 l/m 19,6 km/h (3 Bft) W-NW 295 0 min 0,000 mm 0 W/m -0,6 C -3,8 C 32,2 km/h (5 Bft) 100,00 %
07.01.2012 06:46 4,4 C 70 % 1017,8 hPa 0,0 l/m 17,2 km/h (3 Bft) W-NW 302 0 min 0,000 mm 0 W/m -0,6 C -2,7 C 25,7 km/h (4 Bft) 100,00 %
07.01.2012 06:47 4,4 C 70 % 1017,8 hPa 0,0 l/m 22,4 km/h (4 Bft) W 275 0 min 0,000 mm 0 W/m -0,6 C -4,9 C 37,0 km/h (5 Bft) 100,00 %
07.01.2012 06:48 4,4 C 70 % 1017,9 hPa 0,0 l/m 19,7 km/h (3 Bft) W 268 0 min 0,000 mm 0 W/m -0,6 C -3,8 C 35,4 km/h (5 Bft) 100,00 %
07.01.2012 06:49 4,5 C 70 % 1017,8 hPa 0,0 l/m 15,0 km/h (3 Bft) W-NW 302 0 min 0,000 mm 0 W/m -0,5 C -1,5 C 25,7 km/h (4 Bft) 100,00 %
07.01.2012 06:50 4,4 C 70 % 1017,9 hPa 0,0 l/m 17,0 km/h (3 Bft) W-NW 303 0 min 0,000 mm 0 W/m -0,6 C -2,6 C 25,7 km/h (4 Bft) 100,00 %
07.01.2012 06:51 4,5 C 70 % 1017,9 hPa 0,0 l/m 18,3 km/h (3 Bft) W 273 0 min 0,000 mm 0 W/m -0,5 C -3,1 C 29,0 km/h (5 Bft) 100,00 %
07.01.2012 06:52 4,5 C 70 % 1018,0 hPa 0,0 l/m 16,2 km/h (3 Bft) W-NW 291 0 min 0,000 mm 0 W/m -0,5 C -2,1 C 25,7 km/h (4 Bft) 100,00 %
07.01.2012 06:53 4,5 C 70 % 1018,0 hPa 0,0 l/m 12,4 km/h (3 Bft) NW 306 0 min 0,000 mm 0 W/m -0,5 C -0,1 C 22,5 km/h (4 Bft) 100,00 %
07.01.2012 06:54 4,5 C 70 % 1018,1 hPa 0,0 l/m 18,0 km/h (3 Bft) W-NW 301 0 min 0,000 mm 0 W/m -0,5 C -3,0 C 29,0 km/h (5 Bft) 100,00 %
07.01.2012 06:55 4,5 C 70 % 1018,2 hPa 0,0 l/m 19,5 km/h (3 Bft) N-NW 336 0 min 0,000 mm 0 W/m -0,5 C -3,6 C 27,4 km/h (4 Bft) 100,00 %
07.01.2012 06:56 4,5 C 70 % 1018,2 hPa 0,0 l/m 15,7 km/h (3 Bft) W-SW 257 0 min 0,000 mm 0 W/m -0,5 C -1,9 C 22,5 km/h (4 Bft) 100,00 %
07.01.2012 06:57 4,5 C 70 % 1018,2 hPa 0,0 l/m 11,9 km/h (2 Bft) W-NW 286 0 min 0,000 mm 0 W/m -0,5 C 0,2 C 25,7 km/h (4 Bft) 100,00 %
07.01.2012 06:58 4,5 C 70 % 1018,2 hPa 0,0 l/m 12,2 km/h (2 Bft) W 271 0 min 0,000 mm 0 W/m -0,5 C 0,1 C 20,9 km/h (4 Bft) 100,00 %
07.01.2012 06:59 4,5 C 70 % 1018,1 hPa 0,0 l/m 15,6 km/h (3 Bft) W-NW 298 0 min 0,000 mm 0 W/m -0,5 C -1,8 C 20,9 km/h (4 Bft) 100,00 %
07.01.2012 07:00 4,5 C 70 % 1018,0 hPa 0,0 l/m 16,3 km/h (3 Bft) W-NW 300 0 min 0,000 mm 0 W/m -0,5 C -2,2 C 29,0 km/h (5 Bft) 100,00 %
07.01.2012 07:01 4,5 C 70 % 1018,2 hPa 0,0 l/m 22,1 km/h (4 Bft) NW 304 0 min 0,051 mm 0 W/m -0,5 C -4,6 C 30,6 km/h (5 Bft) 100,00 %
07.01.2012 07:03 4,5 C 70 % 1018,2 hPa 0,0 l/m 14,0 km/h (3 Bft) NW 314 0 min 0,000 mm 0 W/m -0,5 C -1,0 C 29,0 km/h (5 Bft) 100,00 %
07.01.2012 07:04 4,5 C 70 % 1018,3 hPa 0,0 l/m 9,4 km/h (2 Bft) W-NW 288 0 min 0,000 mm 0 W/m -0,5 C 2,0 C 20,9 km/h (4 Bft) 100,00 %
07.01.2012 07:05 4,5 C 70 % 1018,3 hPa 0,0 l/m 7,0 km/h (2 Bft) W-NW 288 0 min 0,000 mm 0 W/m -0,5 C 4,0 C 12,9 km/h (3 Bft) 100,00 %
07.01.2012 07:06 4,5 C 70 % 1018,3 hPa 0,0 l/m 13,1 km/h (3 Bft) NW 325 0 min 0,000 mm 0 W/m -0,5 C -0,5 C 22,5 km/h (4 Bft) 100,00 %
07.01.2012 07:07 4,5 C 70 % 1018,3 hPa 0,0 l/m 15,0 km/h (3 Bft) W-SW 256 0 min 0,000 mm 0 W/m -0,5 C -1,5 C 27,4 km/h (4 Bft) 100,00 %
07.01.2012 07:08 4,4 C 70 % 1018,4 hPa 0,0 l/m 11,5 km/h (2 Bft) W 273 0 min 0,000 mm 0 W/m -0,6 C 0,4 C 19,3 km/h (3 Bft) 100,00 %
07.01.2012 07:09 4,4 C 70 % 1018,4 hPa 0,0 l/m 11,8 km/h (2 Bft) W-NW 298 0 min 0,000 mm 0 W/m -0,6 C 0,2 C 20,9 km/h (4 Bft) 100,00 %
07.01.2012 07:10 4,4 C 70 % 1018,4 hPa 0,0 l/m 10,3 km/h (2 Bft) W-NW 292 0 min 0,000 mm 0 W/m -0,6 C 1,2 C 17,7 km/h (3 Bft) 100,00 %
07.01.2012 07:11 4,4 C 70 % 1018,4 hPa 0,0 l/m 11,8 km/h (2 Bft) W-NW 299 0 min 0,000 mm 0 W/m -0,6 C 0,2 C 17,7 km/h (3 Bft) 100,00 %
07.01.2012 07:12 4,4 C 70 % 1018,4 hPa 0,0 l/m 10,7 km/h (2 Bft) W 271 0 min 0,000 mm 0 W/m -0,6 C 0,9 C 16,1 km/h (3 Bft) 100,00 %
07.01.2012 07:13 4,4 C 70 % 1018,3 hPa 0,0 l/m 8,3 km/h (2 Bft) W-NW 298 0 min 0,000 mm 0 W/m -0,6 C 2,7 C 14,5 km/h (3 Bft) 100,00 %
07.01.2012 07:14 4,4 C 70 % 1018,4 hPa 0,0 l/m 13,6 km/h (3 Bft) NW 304 0 min 0,000 mm 0 W/m -0,6 C -0,9 C 22,5 km/h (4 Bft) 100,00 %
07.01.2012 07:15 4,4 C 70 % 1018,3 hPa 0,0 l/m 10,7 km/h (2 Bft) W 281 0 min 0,000 mm 0 W/m -0,6 C 0,9 C 16,1 km/h (3 Bft) 100,00 %
07.01.2012 07:16 4,4 C 70 % 1018,3 hPa 0,0 l/m 14,3 km/h (3 Bft) W-NW 300 0 min 0,000 mm 0 W/m -0,6 C -1,3 C 19,3 km/h (3 Bft) 100,00 %
07.01.2012 07:17 4,4 C 70 % 1018,3 hPa 0,0 l/m 12,0 km/h (2 Bft) W-NW 296 0 min 0,000 mm 0 W/m -0,6 C 0,1 C 17,7 km/h (3 Bft) 100,00 %
07.01.2012 07:18 4,4 C 70 % 1018,3 hPa 0,0 l/m 11,5 km/h (2 Bft) W-NW 302 0 min 0,000 mm 0 W/m -0,6 C 0,4 C 17,7 km/h (3 Bft) 100,00 %
07.01.2012 07:19 4,4 C 70 % 1018,3 hPa 0,0 l/m 8,0 km/h (2 Bft) W-NW 294 0 min 0,000 mm 0 W/m -0,6 C 3,0 C 12,9 km/h (3 Bft) 100,00 %
07.01.2012 07:20 4,4 C 70 % 1018,2 hPa 0,0 l/m 7,5 km/h (2 Bft) W-NW 290 0 min 0,000 mm 0 W/m -0,6 C 3,4 C 14,5 km/h (3 Bft) 95,83 %
07.01.2012 07:21 4,4 C 70 % 1018,3 hPa 0,0 l/m 9,2 km/h (2 Bft) W-NW 282 0 min 0,000 mm 0 W/m -0,6 C 2,0 C 17,7 km/h (3 Bft) 100,00 %
07.01.2012 07:22 4,4 C 70 % 1018,3 hPa 0,0 l/m 10,7 km/h (2 Bft) W 261 0 min 0,000 mm 0 W/m -0,6 C 0,9 C 16,1 km/h (3 Bft) 100,00 %
07.01.2012 07:23 4,4 C 70 % 1018,3 hPa 0,0 l/m 8,1 km/h (2 Bft) W-NW 286 0 min 0,000 mm 0 W/m -0,6 C 2,9 C 11,3 km/h (2 Bft) 100,00 %
07.01.2012 07:24 4,4 C 70 % 1018,3 hPa 0,0 l/m 14,4 km/h (3 Bft) NW 304 0 min 0,000 mm 0 W/m -0,6 C -1,3 C 22,5 km/h (4 Bft) 100,00 %
07.01.2012 07:25 4,4 C 70 % 1018,3 hPa 0,0 l/m 7,4 km/h (2 Bft) W-NW 292 0 min 0,000 mm 0 W/m -0,6 C 3,5 C 11,3 km/h (2 Bft) 100,00 %
07.01.2012 07:26 4,4 C 70 % 1018,3 hPa 0,0 l/m 10,1 km/h (2 Bft) W-NW 290 0 min 0,000 mm 0 W/m -0,6 C 1,3 C 16,1 km/h (3 Bft) 100,00 %
07.01.2012 07:27 4,4 C 70 % 1018,3 hPa 0,0 l/m 9,3 km/h (2 Bft) W-NW 289 0 min 0,000 mm 0 W/m -0,6 C 1,9 C 16,1 km/h (3 Bft) 100,00 %
07.01.2012 07:28 4,4 C 70 % 1018,3 hPa 0,0 l/m 13,0 km/h (3 Bft) NW 304 0 min 0,000 mm 0 W/m -0,6 C -0,5 C 17,7 km/h (3 Bft) 100,00 %
07.01.2012 07:29 4,4 C 70 % 1018,3 hPa 0,0 l/m 9,7 km/h (2 Bft) NW 304 0 min 0,000 mm 0 W/m -0,6 C 1,6 C 14,5 km/h (3 Bft) 100,00 %
07.01.2012 07:30 4,4 C 70 % 1018,2 hPa 0,0 l/m 9,3 km/h (2 Bft) W-NW 299 0 min 0,000 mm 0 W/m -0,6 C 1,9 C 14,5 km/h (3 Bft) 99,86 %
07.01.2012 07:31 4,4 C 70 % 1018,2 hPa 0,0 l/m 9,5 km/h (2 Bft) NW 309 0 min 0,000 mm 0 W/m -0,6 C 1,8 C 14,5 km/h (3 Bft) 100,00 %
07.01.2012 07:32 4,4 C 70 % 1018,1 hPa 0,0 l/m 13,7 km/h (3 Bft) NW 309 0 min 0,000 mm 0 W/m -0,6 C -0,9 C 22,5 km/h (4 Bft) 100,00 %
07.01.2012 07:33 4,4 C 70 % 1018,2 hPa 0,0 l/m 9,3 km/h (2 Bft) W-NW 284 0 min 0,000 mm 0 W/m -0,6 C 1,9 C 17,7 km/h (3 Bft) 100,00 %
07.01.2012 07:34 4,4 C 70 % 1018,2 hPa 0,0 l/m 5,7 km/h (1 Bft) W-NW 292 0 min 0,000 mm 0 W/m -0,6 C 4,4 C 11,3 km/h (2 Bft) 100,00 %
07.01.2012 07:35 4,4 C 70 % 1018,2 hPa 0,0 l/m 8,3 km/h (2 Bft) W-NW 303 0 min 0,000 mm 0 W/m -0,6 C 2,7 C 14,5 km/h (3 Bft) 100,00 %
07.01.2012 07:36 4,3 C 70 % 1018,2 hPa 0,0 l/m 5,2 km/h (1 Bft) W-NW 299 0 min 0,000 mm 0 W/m -0,7 C 4,3 C 9,7 km/h (2 Bft) 100,00 %
07.01.2012 07:37 4,3 C 70 % 1018,2 hPa 0,0 l/m 5,9 km/h (2 Bft) W-NW 294 0 min 0,000 mm 0 W/m -0,7 C 4,3 C 9,7 km/h (2 Bft) 100,00 %
07.01.2012 07:38 4,3 C 70 % 1018,2 hPa 0,0 l/m 7,4 km/h (2 Bft) W-NW 291 0 min 0,000 mm 0 W/m -0,7 C 3,4 C 11,3 km/h (2 Bft) 100,00 %
07.01.2012 07:39 4,3 C 70 % 1018,2 hPa 0,0 l/m 9,0 km/h (2 Bft) W-NW 290 0 min 0,000 mm 0 W/m -0,7 C 2,1 C 16,1 km/h (3 Bft) 100,00 %
07.01.2012 07:40 4,3 C 70 % 1018,1 hPa 0,0 l/m 13,1 km/h (3 Bft) W 275 0 min 0,000 mm 0 W/m -0,7 C -0,7 C 20,9 km/h (4 Bft) 100,00 %
07.01.2012 07:41 4,3 C 70 % 1018,2 hPa 0,0 l/m 8,9 km/h (2 Bft) W 270 0 min 0,000 mm 5 W/m -0,7 C 2,1 C 14,5 km/h (3 Bft) 100,00 %
07.01.2012 07:42 4,3 C 70 % 1018,0 hPa 0,0 l/m 19,6 km/h (3 Bft) NW 315 0 min 0,000 mm 5 W/m -0,7 C -3,9 C 27,4 km/h (4 Bft) 100,00 %
07.01.2012 07:43 4,3 C 70 % 1018,1 hPa 0,0 l/m 10,8 km/h (2 Bft) W 271 0 min 0,000 mm 5 W/m -0,7 C 0,7 C 19,3 km/h (3 Bft) 100,00 %
07.01.2012 07:44 4,4 C 69 % 1018,0 hPa 0,0 l/m 8,6 km/h (2 Bft) W 280 0 min 0,000 mm 5 W/m -0,8 C 2,5 C 17,7 km/h (3 Bft) 100,00 %
07.01.2012 07:45 4,4 C 69 % 1018,2 hPa 0,0 l/m 9,6 km/h (2 Bft) W-NW 284 0 min 0,000 mm 5 W/m -0,8 C 1,7 C 17,7 km/h (3 Bft) 100,00 %
07.01.2012 07:46 4,4 C 69 % 1018,1 hPa 0,0 l/m 9,2 km/h (2 Bft) W-SW 257 0 min 0,000 mm 7 W/m -0,8 C 2,0 C 17,7 km/h (3 Bft) 100,00 %
07.01.2012 07:47 4,4 C 69 % 1018,1 hPa 0,0 l/m 7,1 km/h (2 Bft) W-NW 294 0 min 0,000 mm 7 W/m -0,8 C 3,8 C 11,3 km/h (2 Bft) 100,00 %
07.01.2012 07:48 4,4 C 69 % 1018,1 hPa 0,0 l/m 11,4 km/h (2 Bft) W 268 0 min 0,000 mm 7 W/m -0,8 C 0,4 C 19,3 km/h (3 Bft) 100,00 %
07.01.2012 07:49 4,4 C 69 % 1018,2 hPa 0,0 l/m 10,1 km/h (2 Bft) W-NW 296 0 min 0,000 mm 7 W/m -0,8 C 1,3 C 20,9 km/h (4 Bft) 100,00 %
07.01.2012 07:50 4,4 C 69 % 1018,1 hPa 0,0 l/m 15,3 km/h (3 Bft) W 268 0 min 0,000 mm 7 W/m -0,8 C -1,8 C 22,5 km/h (4 Bft) 100,00 %
07.01.2012 07:51 4,4 C 69 % 1018,0 hPa 0,0 l/m 16,8 km/h (3 Bft) NW 317 0 min 0,000 mm 9 W/m -0,8 C -2,5 C 20,9 km/h (4 Bft) 100,00 %
07.01.2012 07:52 4,4 C 69 % 1018,0 hPa 0,0 l/m 11,3 km/h (2 Bft) W-NW 294 0 min 0,000 mm 9 W/m -0,8 C 0,5 C 27,4 km/h (4 Bft) 100,00 %
07.01.2012 07:53 4,4 C 69 % 1018,2 hPa 0,0 l/m 12,2 km/h (2 Bft) W 278 0 min 0,000 mm 9 W/m -0,8 C -0,1 C 20,9 km/h (4 Bft) 100,00 %
07.01.2012 07:54 4,4 C 69 % 1018,1 hPa 0,0 l/m 12,6 km/h (3 Bft) W-SW 258 0 min 0,000 mm 11 W/m -0,8 C -0,3 C 19,3 km/h (3 Bft) 100,00 %
07.01.2012 07:55 4,4 C 69 % 1018,2 hPa 0,0 l/m 10,8 km/h (2 Bft) W 275 0 min 0,000 mm 9 W/m -0,8 C 0,8 C 16,1 km/h (3 Bft) 100,00 %
07.01.2012 07:56 4,5 C 69 % 1018,2 hPa 0,0 l/m 9,4 km/h (2 Bft) W 265 0 min 0,000 mm 11 W/m -0,7 C 2,0 C 17,7 km/h (3 Bft) 100,00 %
07.01.2012 07:57 4,4 C 69 % 1018,2 hPa 0,0 l/m 9,9 km/h (2 Bft) W 277 0 min 0,000 mm 11 W/m -0,8 C 1,5 C 16,1 km/h (3 Bft) 100,00 %
07.01.2012 07:58 4,4 C 69 % 1018,2 hPa 0,0 l/m 13,2 km/h (3 Bft) W 268 0 min 0,000 mm 11 W/m -0,8 C -0,7 C 22,5 km/h (4 Bft) 100,00 %
07.01.2012 07:59 4,4 C 69 % 1018,2 hPa 0,0 l/m 9,1 km/h (2 Bft) W-NW 282 0 min 0,000 mm 11 W/m -0,8 C 2,1 C 17,7 km/h (3 Bft) 100,00 %
07.01.2012 08:00 4,4 C 69 % 1018,3 hPa 0,0 l/m 5,0 km/h (1 Bft) W 281 0 min 0,000 mm 11 W/m -0,8 C 4,4 C 12,9 km/h (3 Bft) 100,00 %
07.01.2012 08:01 4,4 C 69 % 1018,3 hPa 0,0 l/m 10,9 km/h (2 Bft) W 273 0 min 0,025 mm 11 W/m -0,8 C 0,8 C 16,1 km/h (3 Bft) 100,00 %
07.01.2012 08:03 4,4 C 69 % 1018,5 hPa 0,0 l/m 9,2 km/h (2 Bft) W-NW 287 0 min 0,000 mm 12 W/m -0,8 C 2,0 C 17,7 km/h (3 Bft) 100,00 %
07.01.2012 08:04 4,4 C 69 % 1018,5 hPa 0,0 l/m 7,2 km/h (2 Bft) W-NW 287 0 min 0,000 mm 12 W/m -0,8 C 3,7 C 14,5 km/h (3 Bft) 100,00 %
07.01.2012 08:05 4,3 C 69 % 1018,5 hPa 0,0 l/m 10,7 km/h (2 Bft) W-NW 298 0 min 0,000 mm 14 W/m -0,9 C 0,8 C 22,5 km/h (4 Bft) 100,00 %
07.01.2012 08:06 4,3 C 69 % 1018,5 hPa 0,0 l/m 14,7 km/h (3 Bft) W 280 0 min 0,000 mm 14 W/m -0,9 C -1,6 C 22,5 km/h (4 Bft) 100,00 %
07.01.2012 08:07 4,3 C 69 % 1018,5 hPa 0,0 l/m 10,4 km/h (2 Bft) W-NW 286 0 min 0,000 mm 16 W/m -0,9 C 1,0 C 16,1 km/h (3 Bft) 100,00 %
07.01.2012 08:08 4,3 C 69 % 1018,6 hPa 0,0 l/m 13,3 km/h (3 Bft) NW 309 0 min 0,000 mm 18 W/m -0,9 C -0,8 C 24,1 km/h (4 Bft) 100,00 %
07.01.2012 08:09 4,3 C 69 % 1018,6 hPa 0,0 l/m 14,6 km/h (3 Bft) W 279 0 min 0,000 mm 19 W/m -0,9 C -1,6 C 25,7 km/h (4 Bft) 100,00 %
07.01.2012 08:10 4,3 C 70 % 1018,6 hPa 0,0 l/m 12,5 km/h (3 Bft) W-NW 284 0 min 0,000 mm 19 W/m -0,7 C -0,4 C 19,3 km/h (3 Bft) 100,00 %
07.01.2012 08:11 4,3 C 70 % 1018,6 hPa 0,0 l/m 14,1 km/h (3 Bft) W 277 0 min 0,000 mm 21 W/m -0,7 C -1,3 C 17,7 km/h (3 Bft) 99,88 %
07.01.2012 08:12 4,3 C 70 % 1018,6 hPa 0,0 l/m 12,0 km/h (2 Bft) W-NW 299 0 min 0,000 mm 21 W/m -0,7 C -0,0 C 24,1 km/h (4 Bft) 100,00 %
07.01.2012 08:13 4,4 C 70 % 1018,6 hPa 0,0 l/m 12,4 km/h (3 Bft) W-NW 296 0 min 0,000 mm 23 W/m -0,6 C -0,2 C 24,1 km/h (4 Bft) 100,00 %
07.01.2012 08:14 4,4 C 70 % 1018,7 hPa 0,0 l/m 12,4 km/h (3 Bft) W 267 0 min 0,000 mm 23 W/m -0,6 C -0,2 C 22,5 km/h (4 Bft) 100,00 %
07.01.2012 08:15 4,4 C 70 % 1018,7 hPa 0,0 l/m 9,9 km/h (2 Bft) W-NW 289 0 min 0,000 mm 21 W/m -0,6 C 1,5 C 16,1 km/h (3 Bft) 100,00 %
07.01.2012 08:16 4,4 C 70 % 1018,5 hPa 0,0 l/m 11,2 km/h (2 Bft) W 274 0 min 0,000 mm 21 W/m -0,6 C 0,6 C 20,9 km/h (4 Bft) 100,00 %
07.01.2012 08:17 4,4 C 70 % 1018,7 hPa 0,0 l/m 12,1 km/h (2 Bft) W 265 0 min 0,000 mm 21 W/m -0,6 C 0,0 C 19,3 km/h (3 Bft) 100,00 %
07.01.2012 08:18 4,4 C 70 % 1018,7 hPa 0,0 l/m 11,5 km/h (2 Bft) W 276 0 min 0,000 mm 21 W/m -0,6 C 0,4 C 17,7 km/h (3 Bft) 100,00 %
07.01.2012 08:19 4,4 C 70 % 1018,7 hPa 0,0 l/m 10,4 km/h (2 Bft) W 268 0 min 0,000 mm 23 W/m -0,6 C 1,1 C 17,7 km/h (3 Bft) 100,00 %
07.01.2012 08:20 4,4 C 70 % 1018,6 hPa 0,0 l/m 11,8 km/h (2 Bft) W 273 0 min 0,000 mm 30 W/m -0,6 C 0,2 C 24,1 km/h (4 Bft) 100,00 %
07.01.2012 08:21 4,4 C 70 % 1018,5 hPa 0,0 l/m 16,6 km/h (3 Bft) W-NW 297 0 min 0,000 mm 33 W/m -0,6 C -2,5 C 29,0 km/h (5 Bft) 100,00 %
07.01.2012 08:22 4,4 C 70 % 1018,5 hPa 0,0 l/m 18,4 km/h (3 Bft) W-NW 299 0 min 0,000 mm 37 W/m -0,6 C -3,3 C 30,6 km/h (5 Bft) 100,00 %
07.01.2012 08:23 4,5 C 70 % 1018,6 hPa 0,0 l/m 11,5 km/h (2 Bft) W-NW 296 0 min 0,000 mm 40 W/m -0,5 C 0,5 C 19,3 km/h (3 Bft) 100,00 %
07.01.2012 08:24 4,5 C 70 % 1018,7 hPa 0,0 l/m 9,9 km/h (2 Bft) W-NW 286 0 min 0,000 mm 44 W/m -0,5 C 1,6 C 17,7 km/h (3 Bft) 95,83 %
07.01.2012 08:25 4,6 C 70 % 1018,6 hPa 0,0 l/m 9,4 km/h (2 Bft) W-NW 288 0 min 0,000 mm 47 W/m -0,4 C 2,1 C 17,7 km/h (3 Bft) 100,00 %
07.01.2012 08:26 4,6 C 70 % 1018,6 hPa 0,0 l/m 10,4 km/h (2 Bft) W 267 0 min 0,000 mm 54 W/m -0,4 C 1,3 C 22,5 km/h (4 Bft) 100,00 %
07.01.2012 08:27 4,6 C 70 % 1018,6 hPa 0,0 l/m 17,8 km/h (3 Bft) W-NW 288 0 min 0,000 mm 60 W/m -0,4 C -2,8 C 27,4 km/h (4 Bft) 100,00 %
07.01.2012 08:28 4,6 C 70 % 1018,5 hPa 0,0 l/m 16,9 km/h (3 Bft) W-NW 286 0 min 0,000 mm 65 W/m -0,4 C -2,3 C 22,5 km/h (4 Bft) 100,00 %
07.01.2012 08:29 4,6 C 70 % 1018,3 hPa 0,0 l/m 20,1 km/h (4 Bft) W-NW 296 0 min 0,000 mm 69 W/m -0,4 C -3,7 C 32,2 km/h (5 Bft) 100,00 %
07.01.2012 08:30 4,6 C 70 % 1018,5 hPa 0,0 l/m 13,3 km/h (3 Bft) W 263 0 min 0,000 mm 69 W/m -0,4 C -0,5 C 24,1 km/h (4 Bft) 100,00 %
07.01.2012 08:31 4,7 C 70 % 1018,5 hPa 0,0 l/m 12,7 km/h (3 Bft) W 264 0 min 0,000 mm 67 W/m -0,3 C -0,0 C 19,3 km/h (3 Bft) 100,00 %
07.01.2012 08:32 4,7 C 70 % 1018,5 hPa 0,0 l/m 14,4 km/h (3 Bft) W 269 0 min 0,000 mm 67 W/m -0,3 C -1,0 C 24,1 km/h (4 Bft) 100,00 %
07.01.2012 08:33 4,7 C 70 % 1018,5 hPa 0,0 l/m 14,6 km/h (3 Bft) W 264 0 min 0,000 mm 65 W/m -0,3 C -1,1 C 24,1 km/h (4 Bft) 100,00 %
07.01.2012 08:34 4,8 C 70 % 1018,5 hPa 0,0 l/m 9,1 km/h (2 Bft) W-NW 301 0 min 0,000 mm 63 W/m -0,2 C 2,5 C 16,1 km/h (3 Bft) 100,00 %
07.01.2012 08:35 4,8 C 70 % 1018,5 hPa 0,0 l/m 10,1 km/h (2 Bft) W 278 0 min 0,000 mm 62 W/m -0,2 C 1,8 C 19,3 km/h (3 Bft) 100,00 %
07.01.2012 08:36 4,8 C 69 % 1018,4 hPa 0,0 l/m 14,2 km/h (3 Bft) W-NW 299 0 min 0,000 mm 60 W/m -0,4 C -0,7 C 27,4 km/h (4 Bft) 100,00 %
07.01.2012 08:37 4,8 C 69 % 1018,4 hPa 0,0 l/m 10,9 km/h (2 Bft) W 274 0 min 0,000 mm 62 W/m -0,4 C 1,2 C 17,7 km/h (3 Bft) 100,00 %
07.01.2012 08:38 4,9 C 69 % 1018,5 hPa 0,0 l/m 7,9 km/h (2 Bft) W-NW 294 0 min 0,000 mm 72 W/m -0,3 C 3,6 C 17,7 km/h (3 Bft) 100,00 %
07.01.2012 08:39 4,9 C 69 % 1018,5 hPa 0,0 l/m 10,7 km/h (2 Bft) W-NW 294 0 min 0,000 mm 74 W/m -0,3 C 1,5 C 22,5 km/h (4 Bft) 100,00 %
07.01.2012 08:40 4,9 C 69 % 1018,5 hPa 0,0 l/m 9,9 km/h (2 Bft) W 261 0 min 0,000 mm 70 W/m -0,3 C 2,0 C 17,7 km/h (3 Bft) 100,00 %
07.01.2012 08:41 4,9 C 69 % 1018,4 hPa 0,0 l/m 11,1 km/h (2 Bft) W-NW 299 0 min 0,000 mm 70 W/m -0,3 C 1,2 C 17,7 km/h (3 Bft) 100,00 %
07.01.2012 08:42 4,9 C 69 % 1018,6 hPa 0,0 l/m 11,1 km/h (2 Bft) W-NW 292 0 min 0,000 mm 69 W/m -0,3 C 1,2 C 24,1 km/h (4 Bft) 100,00 %
07.01.2012 08:43 4,9 C 69 % 1018,5 hPa 0,0 l/m 9,1 km/h (2 Bft) W-NW 300 0 min 0,000 mm 65 W/m -0,3 C 2,6 C 19,3 km/h (3 Bft) 100,00 %
07.01.2012 08:44 4,9 C 69 % 1018,5 hPa 0,0 l/m 15,7 km/h (3 Bft) W 273 0 min 0,000 mm 65 W/m -0,3 C -1,4 C 27,4 km/h (4 Bft) 100,00 %
07.01.2012 08:45 4,9 C 69 % 1018,6 hPa 0,0 l/m 15,6 km/h (3 Bft) W 272 0 min 0,000 mm 63 W/m -0,3 C -1,3 C 25,7 km/h (4 Bft) 100,00 %
07.01.2012 08:46 5,0 C 69 % 1018,6 hPa 0,0 l/m 13,6 km/h (3 Bft) W 281 0 min 0,000 mm 72 W/m -0,2 C -0,2 C 19,3 km/h (3 Bft) 100,00 %
07.01.2012 08:47 5,0 C 69 % 1018,6 hPa 0,0 l/m 11,4 km/h (2 Bft) W 271 0 min 0,000 mm 70 W/m -0,2 C 1,1 C 17,7 km/h (3 Bft) 100,00 %
07.01.2012 08:48 5,0 C 69 % 1018,6 hPa 0,0 l/m 19,5 km/h (3 Bft) W-NW 290 0 min 0,000 mm 58 W/m -0,2 C -3,0 C 29,0 km/h (5 Bft) 100,00 %
07.01.2012 08:49 5,1 C 69 % 1018,6 hPa 0,0 l/m 15,6 km/h (3 Bft) W 276 0 min 0,000 mm 51 W/m -0,1 C -1,1 C 30,6 km/h (5 Bft) 100,00 %
07.01.2012 08:50 5,1 C 69 % 1018,7 hPa 0,0 l/m 14,6 km/h (3 Bft) W-NW 286 0 min 0,000 mm 47 W/m -0,1 C -0,6 C 19,3 km/h (3 Bft) 100,00 %
07.01.2012 08:51 5,1 C 69 % 1018,7 hPa 0,0 l/m 10,1 km/h (2 Bft) W-NW 295 0 min 0,000 mm 47 W/m -0,1 C 2,1 C 19,3 km/h (3 Bft) 100,00 %
07.01.2012 08:52 5,1 C 69 % 1018,8 hPa 0,0 l/m 10,5 km/h (2 Bft) W-SW 257 0 min 0,000 mm 47 W/m -0,1 C 1,8 C 17,7 km/h (3 Bft) 100,00 %
07.01.2012 08:53 5,1 C 69 % 1018,8 hPa 0,0 l/m 10,5 km/h (2 Bft) W-NW 288 0 min 0,000 mm 47 W/m -0,1 C 1,8 C 19,3 km/h (3 Bft) 100,00 %
07.01.2012 08:54 5,1 C 69 % 1018,8 hPa 0,0 l/m 14,4 km/h (3 Bft) W-NW 287 0 min 0,000 mm 47 W/m -0,1 C -0,5 C 20,9 km/h (4 Bft) 100,00 %
07.01.2012 08:55 5,1 C 69 % 1018,8 hPa 0,0 l/m 12,0 km/h (2 Bft) W 262 0 min 0,000 mm 47 W/m -0,1 C 0,9 C 17,7 km/h (3 Bft) 100,00 %
07.01.2012 08:56 5,1 C 69 % 1018,8 hPa 0,0 l/m 11,1 km/h (2 Bft) NW 304 0 min 0,000 mm 47 W/m -0,1 C 1,4 C 16,1 km/h (3 Bft) 100,00 %
07.01.2012 08:57 5,1 C 69 % 1018,9 hPa 0,0 l/m 9,9 km/h (2 Bft) W-NW 284 0 min 0,000 mm 44 W/m -0,1 C 2,3 C 16,1 km/h (3 Bft) 100,00 %
07.01.2012 08:58 5,1 C 69 % 1018,9 hPa 0,0 l/m 10,7 km/h (2 Bft) NW 312 0 min 0,000 mm 42 W/m -0,1 C 1,7 C 17,7 km/h (3 Bft) 100,00 %
07.01.2012 08:59 5,1 C 69 % 1018,8 hPa 0,0 l/m 14,4 km/h (3 Bft) W 268 0 min 0,000 mm 39 W/m -0,1 C -0,5 C 19,3 km/h (3 Bft) 100,00 %
07.01.2012 09:00 5,1 C 69 % 1018,8 hPa 0,0 l/m 6,0 km/h (2 Bft) W 275 0 min 0,000 mm 39 W/m -0,1 C 5,1 C 9,7 km/h (2 Bft) 100,00 %
07.01.2012 09:01 5,1 C 69 % 1018,9 hPa 0,0 l/m 12,3 km/h (3 Bft) W 279 0 min 0,051 mm 42 W/m -0,1 C 0,7 C 17,7 km/h (3 Bft) 100,00 %
07.01.2012 09:03 5,1 C 69 % 1018,8 hPa 0,0 l/m 8,3 km/h (2 Bft) W-NW 292 0 min 0,000 mm 49 W/m -0,1 C 3,5 C 16,1 km/h (3 Bft) 100,00 %
07.01.2012 09:04 5,1 C 69 % 1018,8 hPa 0,0 l/m 9,0 km/h (2 Bft) W 271 0 min 0,000 mm 53 W/m -0,1 C 2,9 C 12,9 km/h (3 Bft) 95,83 %
07.01.2012 09:05 5,1 C 69 % 1018,8 hPa 0,0 l/m 6,9 km/h (2 Bft) W-NW 302 0 min 0,000 mm 54 W/m -0,1 C 4,7 C 17,7 km/h (3 Bft) 100,00 %
07.01.2012 09:06 5,1 C 69 % 1018,7 hPa 0,0 l/m 17,1 km/h (3 Bft) W-NW 300 0 min 0,000 mm 58 W/m -0,1 C -1,8 C 25,7 km/h (4 Bft) 100,00 %
07.01.2012 09:07 5,1 C 69 % 1018,8 hPa 0,0 l/m 10,2 km/h (2 Bft) NW 309 0 min 0,000 mm 60 W/m -0,1 C 2,0 C 14,5 km/h (3 Bft) 100,00 %
07.01.2012 09:08 5,1 C 69 % 1018,8 hPa 0,0 l/m 8,6 km/h (2 Bft) W-NW 292 0 min 0,000 mm 62 W/m -0,1 C 3,2 C 14,5 km/h (3 Bft) 100,00 %
07.01.2012 09:09 5,1 C 69 % 1018,7 hPa 0,0 l/m 10,5 km/h (2 Bft) NW 309 0 min 0,000 mm 63 W/m -0,1 C 1,8 C 17,7 km/h (3 Bft) 100,00 %
07.01.2012 09:10 5,1 C 69 % 1018,7 hPa 0,0 l/m 9,7 km/h (2 Bft) W-NW 293 0 min 0,000 mm 63 W/m -0,1 C 2,4 C 22,5 km/h (4 Bft) 100,00 %
07.01.2012 09:11 5,1 C 69 % 1018,7 hPa 0,0 l/m 11,0 km/h (2 Bft) W-NW 294 0 min 0,000 mm 63 W/m -0,1 C 1,5 C 17,7 km/h (3 Bft) 100,00 %
07.01.2012 09:12 5,1 C 69 % 1018,6 hPa 0,0 l/m 9,9 km/h (2 Bft) W-NW 287 0 min 0,000 mm 62 W/m -0,1 C 2,3 C 19,3 km/h (3 Bft) 100,00 %
07.01.2012 09:13 5,1 C 69 % 1018,6 hPa 0,0 l/m 7,0 km/h (2 Bft) W-NW 292 0 min 0,000 mm 58 W/m -0,1 C 4,6 C 11,3 km/h (2 Bft) 100,00 %
07.01.2012 09:14 5,1 C 69 % 1018,5 hPa 0,0 l/m 5,1 km/h (1 Bft) W-NW 294 0 min 0,000 mm 56 W/m -0,1 C 5,1 C 9,7 km/h (2 Bft) 100,00 %
07.01.2012 09:15 5,1 C 69 % 1018,7 hPa 0,0 l/m 17,5 km/h (3 Bft) NW 309 0 min 0,000 mm 54 W/m -0,1 C -2,0 C 22,5 km/h (4 Bft) 100,00 %
07.01.2012 09:16 5,2 C 68 % 1018,6 hPa 0,0 l/m 13,6 km/h (3 Bft) W-NW 290 0 min 0,000 mm 54 W/m -0,2 C 0,1 C 17,7 km/h (3 Bft) 100,00 %
07.01.2012 09:17 5,2 C 68 % 1018,6 hPa 0,0 l/m 13,4 km/h (3 Bft) W-NW 285 0 min 0,000 mm 56 W/m -0,2 C 0,2 C 20,9 km/h (4 Bft) 100,00 %
07.01.2012 09:18 5,2 C 68 % 1018,6 hPa 0,0 l/m 9,4 km/h (2 Bft) W-NW 295 0 min 0,000 mm 60 W/m -0,2 C 2,7 C 16,1 km/h (3 Bft) 100,00 %
07.01.2012 09:19 5,2 C 68 % 1018,5 hPa 0,0 l/m 12,0 km/h (2 Bft) NW 313 0 min 0,000 mm 63 W/m -0,2 C 1,0 C 17,7 km/h (3 Bft) 100,00 %
07.01.2012 09:20 5,2 C 68 % 1018,5 hPa 0,0 l/m 10,9 km/h (2 Bft) W-NW 296 0 min 0,000 mm 65 W/m -0,2 C 1,7 C 20,9 km/h (4 Bft) 100,00 %
07.01.2012 09:21 5,2 C 68 % 1018,5 hPa 0,0 l/m 11,5 km/h (2 Bft) W-NW 299 0 min 0,000 mm 69 W/m -0,2 C 1,3 C 19,3 km/h (3 Bft) 100,00 %
07.01.2012 09:22 5,2 C 68 % 1018,5 hPa 0,0 l/m 13,9 km/h (3 Bft) W-NW 294 0 min 0,000 mm 69 W/m -0,2 C -0,1 C 19,3 km/h (3 Bft) 100,00 %
07.01.2012 09:23 5,2 C 68 % 1018,5 hPa 0,0 l/m 16,7 km/h (3 Bft) NW 312 0 min 0,000 mm 69 W/m -0,2 C -1,5 C 22,5 km/h (4 Bft) 100,00 %
07.01.2012 09:24 5,2 C 68 % 1018,4 hPa 0,0 l/m 12,8 km/h (3 Bft) W-NW 300 0 min 0,000 mm 69 W/m -0,2 C 0,5 C 17,7 km/h (3 Bft) 100,00 %
07.01.2012 09:25 5,2 C 68 % 1018,4 hPa 0,0 l/m 10,6 km/h (2 Bft) W-NW 291 0 min 0,000 mm 67 W/m -0,2 C 1,9 C 17,7 km/h (3 Bft) 100,00 %
07.01.2012 09:26 5,2 C 68 % 1018,4 hPa 0,0 l/m 13,4 km/h (3 Bft) W-NW 302 0 min 0,000 mm 65 W/m -0,2 C 0,2 C 17,7 km/h (3 Bft) 100,00 %
07.01.2012 09:27 5,2 C 68 % 1018,4 hPa 0,0 l/m 17,8 km/h (3 Bft) NW 309 0 min 0,000 mm 62 W/m -0,2 C -2,0 C 25,7 km/h (4 Bft) 100,00 %
07.01.2012 09:28 5,3 C 68 % 1018,4 hPa 0,0 l/m 12,8 km/h (3 Bft) W-NW 291 0 min 0,000 mm 60 W/m -0,1 C 0,6 C 19,3 km/h (3 Bft) 100,00 %
07.01.2012 09:29 5,3 C 68 % 1018,4 hPa 0,0 l/m 14,3 km/h (3 Bft) W-NW 296 0 min 0,000 mm 60 W/m -0,1 C -0,2 C 22,5 km/h (4 Bft) 100,00 %
07.01.2012 09:30 5,3 C 68 % 1018,4 hPa 0,0 l/m 11,9 km/h (2 Bft) W-NW 297 0 min 0,000 mm 60 W/m -0,1 C 1,2 C 17,7 km/h (3 Bft) 100,00 %
07.01.2012 09:31 5,3 C 68 % 1018,3 hPa 0,0 l/m 13,0 km/h (3 Bft) W-NW 300 0 min 0,000 mm 58 W/m -0,1 C 0,5 C 24,1 km/h (4 Bft) 100,00 %
07.01.2012 09:32 5,3 C 68 % 1018,3 hPa 0,0 l/m 15,1 km/h (3 Bft) NW 308 0 min 0,000 mm 56 W/m -0,1 C -0,6 C 22,5 km/h (4 Bft) 100,00 %
07.01.2012 09:33 5,3 C 68 % 1018,3 hPa 0,0 l/m 9,6 km/h (2 Bft) W-NW 292 0 min 0,000 mm 56 W/m -0,1 C 2,7 C 12,9 km/h (3 Bft) 100,00 %
07.01.2012 09:34 5,3 C 68 % 1018,3 hPa 0,0 l/m 13,0 km/h (3 Bft) NW 310 0 min 0,000 mm 56 W/m -0,1 C 0,5 C 20,9 km/h (4 Bft) 100,00 %
07.01.2012 09:35 5,3 C 68 % 1018,4 hPa 0,0 l/m 16,0 km/h (3 Bft) W-NW 292 0 min 0,000 mm 54 W/m -0,1 C -1,1 C 25,7 km/h (4 Bft) 100,00 %
07.01.2012 09:36 5,3 C 68 % 1018,3 hPa 0,0 l/m 18,8 km/h (3 Bft) W 280 0 min 0,000 mm 54 W/m -0,1 C -2,3 C 27,4 km/h (4 Bft) 100,00 %
07.01.2012 09:37 5,3 C 68 % 1018,4 hPa 0,0 l/m 18,6 km/h (3 Bft) W-NW 299 0 min 0,000 mm 53 W/m -0,1 C -2,2 C 29,0 km/h (5 Bft) 100,00 %
07.01.2012 09:38 5,3 C 68 % 1018,4 hPa 0,0 l/m 20,3 km/h (4 Bft) W-NW 291 0 min 0,000 mm 51 W/m -0,1 C -2,9 C 29,0 km/h (5 Bft) 100,00 %
07.01.2012 09:39 5,3 C 68 % 1018,4 hPa 0,0 l/m 19,7 km/h (3 Bft) W-NW 282 0 min 0,000 mm 51 W/m -0,1 C -2,7 C 29,0 km/h (5 Bft) 100,00 %
07.01.2012 09:40 5,3 C 68 % 1018,5 hPa 0,0 l/m 14,3 km/h (3 Bft) NW 304 0 min 0,000 mm 53 W/m -0,1 C -0,2 C 27,4 km/h (4 Bft) 100,00 %
07.01.2012 09:41 5,3 C 68 % 1018,5 hPa 0,0 l/m 22,7 km/h (4 Bft) W-NW 302 0 min 0,000 mm 58 W/m -0,1 C -3,8 C 27,4 km/h (4 Bft) 100,00 %
07.01.2012 09:42 5,3 C 68 % 1018,5 hPa 0,0 l/m 20,0 km/h (4 Bft) NW 311 0 min 0,000 mm 65 W/m -0,1 C -2,8 C 24,1 km/h (4 Bft) 100,00 %
07.01.2012 09:43 5,3 C 68 % 1018,5 hPa 0,0 l/m 21,1 km/h (4 Bft) W-NW 283 0 min 0,000 mm 69 W/m -0,1 C -3,2 C 30,6 km/h (5 Bft) 100,00 %
07.01.2012 09:44 5,4 C 68 % 1018,5 hPa 0,0 l/m 18,8 km/h (3 Bft) W-NW 295 0 min 0,000 mm 69 W/m -0,0 C -2,2 C 27,4 km/h (4 Bft) 100,00 %
07.01.2012 09:45 5,4 C 68 % 1018,5 hPa 0,0 l/m 16,5 km/h (3 Bft) W 267 0 min 0,000 mm 69 W/m -0,0 C -1,2 C 27,4 km/h (4 Bft) 100,00 %
07.01.2012 09:46 5,4 C 68 % 1018,5 hPa 0,0 l/m 20,9 km/h (4 Bft) W-NW 286 0 min 0,000 mm 70 W/m -0,0 C -3,0 C 27,4 km/h (4 Bft) 100,00 %
07.01.2012 09:47 5,4 C 68 % 1018,5 hPa 0,0 l/m 16,0 km/h (3 Bft) W-NW 284 0 min 0,000 mm 72 W/m -0,0 C -0,9 C 24,1 km/h (4 Bft) 100,00 %
07.01.2012 09:48 5,4 C 68 % 1018,5 hPa 0,0 l/m 15,5 km/h (3 Bft) W-NW 301 0 min 0,000 mm 74 W/m -0,0 C -0,7 C 24,1 km/h (4 Bft) 100,00 %
07.01.2012 09:49 5,4 C 68 % 1018,5 hPa 0,0 l/m 13,4 km/h (3 Bft) W-NW 301 0 min 0,000 mm 74 W/m -0,0 C 0,4 C 20,9 km/h (4 Bft) 100,00 %
07.01.2012 09:50 5,4 C 68 % 1018,6 hPa 0,0 l/m 14,6 km/h (3 Bft) W-NW 294 0 min 0,000 mm 74 W/m -0,0 C -0,2 C 20,9 km/h (4 Bft) 100,00 %
07.01.2012 09:51 5,4 C 68 % 1018,5 hPa 0,0 l/m 14,1 km/h (3 Bft) W-NW 294 0 min 0,000 mm 74 W/m -0,0 C 0,0 C 20,9 km/h (4 Bft) 100,00 %
07.01.2012 09:52 5,4 C 68 % 1018,4 hPa 0,0 l/m 12,5 km/h (3 Bft) W-NW 295 0 min 0,000 mm 70 W/m -0,0 C 0,9 C 20,9 km/h (4 Bft) 100,00 %
07.01.2012 09:53 5,4 C 68 % 1018,5 hPa 0,0 l/m 13,9 km/h (3 Bft) W-NW 284 0 min 0,000 mm 65 W/m -0,0 C 0,1 C 20,9 km/h (4 Bft) 100,00 %
07.01.2012 09:54 5,4 C 68 % 1018,6 hPa 0,0 l/m 15,5 km/h (3 Bft) W-NW 286 0 min 0,000 mm 56 W/m -0,0 C -0,7 C 27,4 km/h (4 Bft) 100,00 %
07.01.2012 09:55 5,4 C 68 % 1018,5 hPa 0,0 l/m 14,1 km/h (3 Bft) W-NW 293 0 min 0,000 mm 63 W/m -0,0 C 0,0 C 24,1 km/h (4 Bft) 100,00 %
07.01.2012 09:56 5,4 C 68 % 1018,6 hPa 0,0 l/m 12,2 km/h (2 Bft) NW 309 0 min 0,000 mm 67 W/m -0,0 C 1,1 C 19,3 km/h (3 Bft) 100,00 %
07.01.2012 09:57 5,4 C 68 % 1018,5 hPa 0,0 l/m 9,7 km/h (2 Bft) W 277 0 min 0,000 mm 70 W/m -0,0 C 2,7 C 14,5 km/h (3 Bft) 100,00 %
07.01.2012 09:58 5,4 C 68 % 1018,5 hPa 0,0 l/m 9,2 km/h (2 Bft) W-NW 292 0 min 0,000 mm 72 W/m -0,0 C 3,1 C 14,5 km/h (3 Bft) 100,00 %
07.01.2012 09:59 5,4 C 68 % 1018,4 hPa 0,0 l/m 7,3 km/h (2 Bft) W 270 0 min 0,000 mm 72 W/m -0,0 C 4,6 C 11,3 km/h (2 Bft) 100,00 %
07.01.2012 10:00 5,4 C 68 % 1018,4 hPa 0,0 l/m 5,8 km/h (2 Bft) W 268 0 min 0,000 mm 76 W/m -0,0 C 5,4 C 8,0 km/h (2 Bft) 100,00 %
07.01.2012 10:01 5,4 C 68 % 1018,4 hPa 0,0 l/m 11,4 km/h (2 Bft) NW 313 0 min 0,076 mm 76 W/m -0,0 C 1,6 C 17,7 km/h (3 Bft) 100,00 %
07.01.2012 10:03 5,4 C 68 % 1018,4 hPa 0,0 l/m 13,0 km/h (3 Bft) W 268 0 min 0,000 mm 74 W/m -0,0 C 0,6 C 27,4 km/h (4 Bft) 100,00 %
07.01.2012 10:04 5,4 C 68 % 1018,2 hPa 0,0 l/m 12,2 km/h (2 Bft) W-NW 289 0 min 0,000 mm 76 W/m -0,0 C 1,1 C 20,9 km/h (4 Bft) 100,00 %
07.01.2012 10:05 5,5 C 68 % 1018,3 hPa 0,0 l/m 13,8 km/h (3 Bft) W-NW 288 0 min 0,000 mm 74 W/m 0,1 C 0,3 C 25,7 km/h (4 Bft) 100,00 %
07.01.2012 10:06 5,5 C 68 % 1018,3 hPa 0,0 l/m 18,9 km/h (3 Bft) W 269 0 min 0,000 mm 69 W/m 0,1 C -2,1 C 33,8 km/h (5 Bft) 100,00 %
07.01.2012 10:07 5,5 C 68 % 1018,3 hPa 0,0 l/m 17,9 km/h (3 Bft) W-NW 284 0 min 0,000 mm 62 W/m 0,1 C -1,7 C 32,2 km/h (5 Bft) 100,00 %
07.01.2012 10:08 5,6 C 68 % 1018,2 hPa 0,0 l/m 15,7 km/h (3 Bft) W-SW 257 0 min 0,000 mm 58 W/m 0,2 C -0,5 C 27,4 km/h (4 Bft) 100,00 %
07.01.2012 10:09 5,6 C 68 % 1018,2 hPa 0,0 l/m 15,5 km/h (3 Bft) W-NW 296 0 min 0,000 mm 53 W/m 0,2 C -0,4 C 29,0 km/h (5 Bft) 100,00 %
07.01.2012 10:10 5,6 C 68 % 1018,2 hPa 0,0 l/m 15,1 km/h (3 Bft) NW 310 0 min 0,000 mm 51 W/m 0,2 C -0,2 C 27,4 km/h (4 Bft) 100,00 %
07.01.2012 10:11 5,6 C 68 % 1018,2 hPa 0,0 l/m 16,8 km/h (3 Bft) NW 306 0 min 0,000 mm 53 W/m 0,2 C -1,1 C 24,1 km/h (4 Bft) 100,00 %
07.01.2012 10:12 5,6 C 68 % 1018,2 hPa 0,0 l/m 18,8 km/h (3 Bft) W-SW 253 0 min 0,000 mm 62 W/m 0,2 C -1,9 C 27,4 km/h (4 Bft) 100,00 %
07.01.2012 10:13 5,6 C 68 % 1018,2 hPa 0,0 l/m 15,3 km/h (3 Bft) W-NW 302 0 min 0,000 mm 62 W/m 0,2 C -0,3 C 24,1 km/h (4 Bft) 100,00 %
07.01.2012 10:14 5,6 C 68 % 1018,2 hPa 0,0 l/m 13,9 km/h (3 Bft) W 275 0 min 0,000 mm 62 W/m 0,2 C 0,4 C 24,1 km/h (4 Bft) 100,00 %
07.01.2012 10:15 5,6 C 68 % 1018,4 hPa 0,0 l/m 18,4 km/h (3 Bft) W 277 0 min 0,000 mm 67 W/m 0,2 C -1,8 C 29,0 km/h (5 Bft) 100,00 %
07.01.2012 10:16 5,6 C 68 % 1018,2 hPa 0,0 l/m 16,2 km/h (3 Bft) W-SW 252 0 min 0,000 mm 69 W/m 0,2 C -0,8 C 22,5 km/h (4 Bft) 100,00 %
07.01.2012 10:17 5,6 C 68 % 1018,2 hPa 0,0 l/m 18,2 km/h (3 Bft) W-NW 293 0 min 0,000 mm 63 W/m 0,2 C -1,7 C 29,0 km/h (5 Bft) 100,00 %
07.01.2012 10:18 5,6 C 67 % 1018,1 hPa 0,0 l/m 28,3 km/h (4 Bft) W-NW 288 0 min 0,000 mm 53 W/m -0,0 C -5,1 C 38,6 km/h (5 Bft) 100,00 %
07.01.2012 10:19 5,6 C 67 % 1018,1 hPa 0,0 l/m 18,4 km/h (3 Bft) W-NW 284 0 min 0,000 mm 56 W/m -0,0 C -1,8 C 40,2 km/h (6 Bft) 100,00 %
07.01.2012 10:20 5,6 C 67 % 1018,3 hPa 0,0 l/m 15,8 km/h (3 Bft) W 259 0 min 0,000 mm 58 W/m -0,0 C -0,6 C 29,0 km/h (5 Bft) 100,00 %
07.01.2012 10:21 5,6 C 67 % 1018,2 hPa 0,0 l/m 18,8 km/h (3 Bft) W 280 0 min 0,000 mm 62 W/m -0,0 C -1,9 C 27,4 km/h (4 Bft) 100,00 %
07.01.2012 10:22 5,6 C 67 % 1018,1 hPa 0,0 l/m 19,0 km/h (3 Bft) W-NW 286 0 min 0,000 mm 63 W/m -0,0 C -2,0 C 32,2 km/h (5 Bft) 100,00 %
07.01.2012 10:23 5,7 C 66 % 1018,1 hPa 0,0 l/m 14,1 km/h (3 Bft) W-NW 296 0 min 0,000 mm 76 W/m -0,1 C 0,4 C 25,7 km/h (4 Bft) 100,00 %
07.01.2012 10:24 5,7 C 66 % 1018,0 hPa 0,0 l/m 15,0 km/h (3 Bft) NW 307 0 min 0,000 mm 79 W/m -0,1 C -0,1 C 22,5 km/h (4 Bft) 100,00 %
07.01.2012 10:25 5,7 C 66 % 1018,0 hPa 0,0 l/m 19,9 km/h (4 Bft) NW 309 0 min 0,000 mm 81 W/m -0,1 C -2,2 C 27,4 km/h (4 Bft) 95,83 %
07.01.2012 10:26 5,7 C 66 % 1018,1 hPa 0,0 l/m 19,8 km/h (3 Bft) W-NW 300 0 min 0,000 mm 83 W/m -0,1 C -2,2 C 27,4 km/h (4 Bft) 100,00 %
07.01.2012 10:27 5,7 C 66 % 1018,1 hPa 0,0 l/m 13,0 km/h (3 Bft) W-NW 282 0 min 0,000 mm 86 W/m -0,1 C 1,0 C 25,7 km/h (4 Bft) 100,00 %
07.01.2012 10:28 5,7 C 66 % 1018,0 hPa 0,0 l/m 16,1 km/h (3 Bft) W-NW 302 0 min 0,000 mm 91 W/m -0,1 C -0,6 C 30,6 km/h (5 Bft) 100,00 %
07.01.2012 10:29 5,7 C 66 % 1018,1 hPa 0,0 l/m 15,8 km/h (3 Bft) W-SW 252 0 min 0,000 mm 102 W/m -0,1 C -0,5 C 24,1 km/h (4 Bft) 100,00 %
07.01.2012 10:30 5,7 C 66 % 1018,1 hPa 0,0 l/m 15,2 km/h (3 Bft) W 279 0 min 0,000 mm 100 W/m -0,1 C -0,2 C 27,4 km/h (4 Bft) 100,00 %
07.01.2012 10:31 5,7 C 66 % 1018,0 hPa 0,0 l/m 21,0 km/h (4 Bft) W-NW 301 0 min 0,000 mm 97 W/m -0,1 C -2,6 C 29,0 km/h (5 Bft) 100,00 %
07.01.2012 10:32 5,7 C 66 % 1018,1 hPa 0,0 l/m 24,5 km/h (4 Bft) W-NW 302 0 min 0,000 mm 93 W/m -0,1 C -3,8 C 30,6 km/h (5 Bft) 100,00 %
07.01.2012 10:33 5,7 C 65 % 1018,0 hPa 0,0 l/m 25,1 km/h (4 Bft) W-NW 287 0 min 0,000 mm 88 W/m -0,4 C -4,0 C 35,4 km/h (5 Bft) 100,00 %
07.01.2012 10:34 5,7 C 65 % 1018,0 hPa 0,0 l/m 19,5 km/h (3 Bft) W 267 0 min 0,000 mm 83 W/m -0,4 C -2,1 C 29,0 km/h (5 Bft) 100,00 %
07.01.2012 10:35 5,7 C 65 % 1018,0 hPa 0,0 l/m 17,1 km/h (3 Bft) NW 324 0 min 0,000 mm 72 W/m -0,4 C -1,1 C 29,0 km/h (5 Bft) 100,00 %
07.01.2012 10:36 5,7 C 65 % 1018,0 hPa 0,0 l/m 20,7 km/h (4 Bft) W-NW 302 0 min 0,000 mm 70 W/m -0,4 C -2,5 C 37,0 km/h (5 Bft) 100,00 %
07.01.2012 10:37 5,7 C 65 % 1018,0 hPa 0,0 l/m 26,4 km/h (4 Bft) W-NW 292 0 min 0,000 mm 72 W/m -0,4 C -4,4 C 37,0 km/h (5 Bft) 100,00 %
07.01.2012 10:38 5,7 C 65 % 1018,0 hPa 0,0 l/m 25,9 km/h (4 Bft) NW 312 0 min 0,000 mm 72 W/m -0,4 C -4,3 C 35,4 km/h (5 Bft) 100,00 %
07.01.2012 10:39 5,7 C 64 % 1017,9 hPa 0,0 l/m 15,6 km/h (3 Bft) W 279 0 min 0,000 mm 81 W/m -0,6 C -0,4 C 25,7 km/h (4 Bft) 100,00 %
07.01.2012 10:40 5,7 C 65 % 1018,0 hPa 0,0 l/m 14,4 km/h (3 Bft) W 279 0 min 0,000 mm 81 W/m -0,4 C 0,2 C 25,7 km/h (4 Bft) 100,00 %
07.01.2012 10:41 5,8 C 65 % 1018,0 hPa 0,0 l/m 15,6 km/h (3 Bft) W-NW 292 1 min 0,000 mm 299 W/m -0,3 C -0,2 C 27,4 km/h (4 Bft) 100,00 %
07.01.2012 10:42 5,8 C 65 % 1018,0 hPa 0,0 l/m 16,1 km/h (3 Bft) NW 317 1 min 0,000 mm 299 W/m -0,3 C -0,5 C 24,1 km/h (4 Bft) 100,00 %
07.01.2012 10:43 5,9 C 65 % 1018,0 hPa 0,0 l/m 21,0 km/h (4 Bft) NW 306 0 min 0,000 mm 102 W/m -0,2 C -2,4 C 32,2 km/h (5 Bft) 100,00 %
07.01.2012 10:44 5,9 C 64 % 1017,9 hPa 0,0 l/m 12,7 km/h (3 Bft) W-NW 302 0 min 0,000 mm 102 W/m -0,4 C 1,4 C 17,7 km/h (3 Bft) 100,00 %
07.01.2012 10:45 6,0 C 65 % 1018,0 hPa 0,0 l/m 10,1 km/h (2 Bft) W-NW 296 1 min 0,000 mm 313 W/m -0,1 C 3,1 C 14,5 km/h (3 Bft) 100,00 %
07.01.2012 10:46 6,1 C 64 % 1018,0 hPa 0,0 l/m 17,4 km/h (3 Bft) NW 321 1 min 0,000 mm 315 W/m -0,2 C -0,7 C 29,0 km/h (5 Bft) 100,00 %
07.01.2012 10:47 6,1 C 64 % 1017,9 hPa 0,0 l/m 19,0 km/h (3 Bft) W-NW 293 1 min 0,000 mm 306 W/m -0,2 C -1,4 C 24,1 km/h (4 Bft) 100,00 %
07.01.2012 10:48 6,2 C 64 % 1017,9 hPa 0,0 l/m 16,9 km/h (3 Bft) W-NW 292 1 min 0,000 mm 302 W/m -0,1 C -0,4 C 20,9 km/h (4 Bft) 100,00 %
07.01.2012 10:49 6,2 C 64 % 1017,9 hPa 0,0 l/m 14,1 km/h (3 Bft) W-NW 303 1 min 0,000 mm 302 W/m -0,1 C 1,0 C 24,1 km/h (4 Bft) 100,00 %
07.01.2012 10:50 6,2 C 64 % 1017,8 hPa 0,0 l/m 9,1 km/h (2 Bft) NW 307 0 min 0,000 mm 142 W/m -0,1 C 4,0 C 12,9 km/h (3 Bft) 100,00 %
07.01.2012 10:51 6,2 C 64 % 1017,8 hPa 0,0 l/m 14,2 km/h (3 Bft) N-NW 327 0 min 0,000 mm 142 W/m -0,1 C 0,9 C 17,7 km/h (3 Bft) 100,00 %
07.01.2012 10:52 6,3 C 64 % 1017,8 hPa 0,0 l/m 19,2 km/h (3 Bft) NW 304 1 min 0,000 mm 299 W/m 0,0 C -1,2 C 24,1 km/h (4 Bft) 100,00 %
07.01.2012 10:53 6,3 C 64 % 1017,7 hPa 0,0 l/m 21,6 km/h (4 Bft) W 277 1 min 0,000 mm 155 W/m 0,0 C -2,1 C 32,2 km/h (5 Bft) 100,00 %
07.01.2012 10:54 6,3 C 63 % 1017,7 hPa 0,0 l/m 18,6 km/h (3 Bft) W-NW 285 0 min 0,000 mm 93 W/m -0,2 C -0,9 C 29,0 km/h (5 Bft) 100,00 %
07.01.2012 10:55 6,2 C 63 % 1017,7 hPa 0,0 l/m 17,6 km/h (3 Bft) NW 304 0 min 0,000 mm 93 W/m -0,3 C -0,7 C 25,7 km/h (4 Bft) 100,00 %
07.01.2012 10:56 6,2 C 63 % 1017,7 hPa 0,0 l/m 15,3 km/h (3 Bft) W-NW 295 1 min 0,000 mm 174 W/m -0,3 C 0,4 C 20,9 km/h (4 Bft) 100,00 %
07.01.2012 10:57 6,2 C 63 % 1017,6 hPa 0,0 l/m 12,0 km/h (2 Bft) NW 318 1 min 0,000 mm 174 W/m -0,3 C 2,1 C 17,7 km/h (3 Bft) 100,00 %
07.01.2012 10:58 6,2 C 64 % 1017,6 hPa 0,0 l/m 14,8 km/h (3 Bft) NW 306 1 min 0,000 mm 174 W/m -0,1 C 0,6 C 20,9 km/h (4 Bft) 100,00 %
07.01.2012 10:59 6,2 C 63 % 1017,6 hPa 0,0 l/m 18,5 km/h (3 Bft) NW 307 1 min 0,000 mm 287 W/m -0,3 C -1,0 C 25,7 km/h (4 Bft) 100,00 %
07.01.2012 11:00 6,3 C 63 % 1017,6 hPa 0,0 l/m 23,0 km/h (4 Bft) NW 313 1 min 0,000 mm 221 W/m -0,2 C -2,6 C 29,0 km/h (5 Bft) 100,00 %
07.01.2012 11:01 6,3 C 62 % 1017,6 hPa 0,0 l/m 17,5 km/h (3 Bft) NW 304 1 min 0,102 mm 197 W/m -0,4 C -0,5 C 29,0 km/h (5 Bft) 100,00 %
07.01.2012 11:02 6,3 C 62 % 1017,6 hPa 0,0 l/m 14,0 km/h (3 Bft) W-NW 290 0 min 0,000 mm 107 W/m -0,4 C 1,2 C 20,9 km/h (4 Bft) 100,00 %
07.01.2012 11:03 6,3 C 62 % 1017,5 hPa 0,0 l/m 16,9 km/h (3 Bft) W 273 0 min 0,000 mm 107 W/m -0,4 C -0,2 C 24,1 km/h (4 Bft) 100,00 %
07.01.2012 11:04 6,4 C 61 % 1017,6 hPa 0,0 l/m 11,6 km/h (2 Bft) NW 319 1 min 0,000 mm 265 W/m -0,6 C 2,6 C 20,9 km/h (4 Bft) 100,00 %
07.01.2012 11:05 6,4 C 62 % 1017,5 hPa 0,0 l/m 8,0 km/h (2 Bft) W 277 1 min 0,000 mm 288 W/m -0,3 C 5,1 C 14,5 km/h (3 Bft) 100,00 %
07.01.2012 11:06 6,6 C 62 % 1017,6 hPa 0,0 l/m 15,2 km/h (3 Bft) W-NW 295 1 min 0,000 mm 297 W/m -0,1 C 0,9 C 30,6 km/h (5 Bft) 100,00 %
07.01.2012 11:07 6,6 C 60 % 1017,5 hPa 0,0 l/m 18,0 km/h (3 Bft) W 280 1 min 0,000 mm 297 W/m -0,6 C -0,3 C 27,4 km/h (4 Bft) 100,00 %
07.01.2012 11:08 6,6 C 60 % 1017,5 hPa 0,0 l/m 18,2 km/h (3 Bft) W-NW 285 1 min 0,000 mm 272 W/m -0,6 C -0,4 C 25,7 km/h (4 Bft) 100,00 %
07.01.2012 11:09 6,6 C 60 % 1017,4 hPa 0,0 l/m 11,8 km/h (2 Bft) W 261 1 min 0,000 mm 174 W/m -0,6 C 2,7 C 17,7 km/h (3 Bft) 100,00 %
07.01.2012 11:10 6,7 C 60 % 1017,5 hPa 0,0 l/m 10,7 km/h (2 Bft) W-NW 299 1 min 0,000 mm 230 W/m -0,5 C 3,5 C 19,3 km/h (3 Bft) 100,00 %
07.01.2012 11:11 6,7 C 60 % 1017,3 hPa 0,0 l/m 17,6 km/h (3 Bft) N-NW 328 1 min 0,000 mm 290 W/m -0,5 C -0,0 C 27,4 km/h (4 Bft) 100,00 %
07.01.2012 11:12 6,7 C 59 % 1017,4 hPa 0,0 l/m 14,1 km/h (3 Bft) W-NW 289 1 min 0,000 mm 290 W/m -0,7 C 1,6 C 29,0 km/h (5 Bft) 100,00 %
07.01.2012 11:13 6,7 C 59 % 1017,4 hPa 0,0 l/m 10,9 km/h (2 Bft) W-NW 302 1 min 0,000 mm 290 W/m -0,7 C 3,4 C 17,7 km/h (3 Bft) 100,00 %
07.01.2012 11:14 6,7 C 59 % 1017,3 hPa 0,0 l/m 18,8 km/h (3 Bft) W 270 1 min 0,000 mm 301 W/m -0,7 C -0,5 C 30,6 km/h (5 Bft) 100,00 %
07.01.2012 11:15 6,8 C 58 % 1017,4 hPa 0,0 l/m 14,9 km/h (3 Bft) W-NW 303 1 min 0,000 mm 323 W/m -0,9 C 1,3 C 29,0 km/h (5 Bft) 100,00 %
07.01.2012 11:16 6,8 C 58 % 1017,4 hPa 0,0 l/m 15,3 km/h (3 Bft) W-NW 296 1 min 0,000 mm 345 W/m -0,9 C 1,1 C 22,5 km/h (4 Bft) 100,00 %
07.01.2012 11:17 6,9 C 58 % 1017,4 hPa 0,0 l/m 19,0 km/h (3 Bft) W-NW 291 1 min 0,000 mm 355 W/m -0,8 C -0,3 C 32,2 km/h (5 Bft) 100,00 %
07.01.2012 11:18 6,9 C 57 % 1017,4 hPa 0,0 l/m 22,8 km/h (4 Bft) W-NW 284 1 min 0,000 mm 325 W/m -1,0 C -1,7 C 30,6 km/h (5 Bft) 100,00 %
07.01.2012 11:19 6,9 C 57 % 1017,3 hPa 0,0 l/m 19,2 km/h (3 Bft) W-SW 257 1 min 0,000 mm 248 W/m -1,0 C -0,4 C 33,8 km/h (5 Bft) 100,00 %
07.01.2012 11:20 6,9 C 57 % 1017,4 hPa 0,0 l/m 18,1 km/h (3 Bft) NW 315 1 min 0,000 mm 339 W/m -1,0 C 0,0 C 32,2 km/h (5 Bft) 100,00 %
07.01.2012 11:21 6,9 C 56 % 1017,4 hPa 0,0 l/m 23,5 km/h (4 Bft) W-NW 283 1 min 0,000 mm 339 W/m -1,3 C -1,9 C 32,2 km/h (5 Bft) 100,00 %
07.01.2012 11:22 6,9 C 56 % 1017,4 hPa 0,0 l/m 25,7 km/h (4 Bft) W-NW 290 0 min 0,000 mm 120 W/m -1,3 C -2,6 C 33,8 km/h (5 Bft) 100,00 %
07.01.2012 11:23 6,9 C 56 % 1017,4 hPa 0,0 l/m 16,5 km/h (3 Bft) W 268 0 min 0,000 mm 120 W/m -1,3 C 0,7 C 24,1 km/h (4 Bft) 100,00 %
07.01.2012 11:24 6,9 C 56 % 1017,3 hPa 0,0 l/m 19,0 km/h (3 Bft) W-NW 296 0 min 0,000 mm 130 W/m -1,3 C -0,3 C 25,7 km/h (4 Bft) 100,00 %
07.01.2012 11:25 6,9 C 56 % 1017,3 hPa 0,0 l/m 19,7 km/h (3 Bft) W 267 0 min 0,000 mm 130 W/m -1,3 C -0,6 C 27,4 km/h (4 Bft) 100,00 %
07.01.2012 11:26 6,9 C 56 % 1017,3 hPa 0,0 l/m 13,2 km/h (3 Bft) W-NW 289 0 min 0,000 mm 130 W/m -1,3 C 2,3 C 30,6 km/h (5 Bft) 100,00 %
07.01.2012 11:27 6,9 C 57 % 1017,3 hPa 0,0 l/m 14,2 km/h (3 Bft) W 278 0 min 0,000 mm 128 W/m -1,0 C 1,8 C 22,5 km/h (4 Bft) 100,00 %
07.01.2012 11:28 6,9 C 56 % 1017,3 hPa 0,0 l/m 19,2 km/h (3 Bft) W 278 0 min 0,000 mm 128 W/m -1,3 C -0,4 C 27,4 km/h (4 Bft) 100,00 %
07.01.2012 11:29 6,9 C 58 % 1017,3 hPa 0,0 l/m 13,6 km/h (3 Bft) W-NW 295 0 min 0,000 mm 128 W/m -0,8 C 2,1 C 22,5 km/h (4 Bft) 100,00 %
07.01.2012 11:30 6,9 C 56 % 1017,1 hPa 0,0 l/m 10,6 km/h (2 Bft) W-NW 290 1 min 0,000 mm 158 W/m -1,3 C 3,8 C 17,7 km/h (3 Bft) 100,00 %
07.01.2012 11:31 6,9 C 56 % 1017,2 hPa 0,0 l/m 8,2 km/h (2 Bft) W 263 1 min 0,000 mm 158 W/m -1,3 C 5,4 C 12,9 km/h (3 Bft) 100,00 %
07.01.2012 11:32 7,1 C 56 % 1017,2 hPa 0,0 l/m 11,5 km/h (2 Bft) W 260 1 min 0,000 mm 401 W/m -1,1 C 3,5 C 17,7 km/h (3 Bft) 100,00 %
07.01.2012 11:33 7,1 C 56 % 1017,1 hPa 0,0 l/m 10,7 km/h (2 Bft) W 281 1 min 0,000 mm 401 W/m -1,1 C 3,9 C 17,7 km/h (3 Bft) 100,00 %
07.01.2012 11:34 7,1 C 56 % 1017,0 hPa 0,0 l/m 14,3 km/h (3 Bft) W-NW 299 1 min 0,000 mm 186 W/m -1,1 C 2,0 C 24,1 km/h (4 Bft) 100,00 %
07.01.2012 11:35 7,1 C 55 % 1017,0 hPa 0,0 l/m 18,9 km/h (3 Bft) W-NW 285 1 min 0,000 mm 422 W/m -1,3 C -0,0 C 22,5 km/h (4 Bft) 100,00 %
07.01.2012 11:36 7,1 C 55 % 1017,0 hPa 0,0 l/m 13,5 km/h (3 Bft) W-NW 287 1 min 0,000 mm 454 W/m -1,3 C 2,4 C 20,9 km/h (4 Bft) 100,00 %
07.01.2012 11:37 7,2 C 55 % 1017,0 hPa 0,0 l/m 9,0 km/h (2 Bft) W-NW 288 1 min 0,000 mm 441 W/m -1,2 C 5,2 C 19,3 km/h (3 Bft) 100,00 %
07.01.2012 11:38 7,2 C 55 % 1017,0 hPa 0,0 l/m 11,0 km/h (2 Bft) W-NW 299 1 min 0,000 mm 441 W/m -1,2 C 3,9 C 19,3 km/h (3 Bft) 100,00 %
07.01.2012 11:39 7,3 C 55 % 1017,0 hPa 0,0 l/m 16,4 km/h (3 Bft) W 262 1 min 0,000 mm 206 W/m -1,1 C 1,2 C 22,5 km/h (4 Bft) 100,00 %
07.01.2012 11:40 7,4 C 55 % 1017,0 hPa 0,0 l/m 16,7 km/h (3 Bft) W-SW 257 1 min 0,000 mm 192 W/m -1,0 C 1,2 C 25,7 km/h (4 Bft) 100,00 %
07.01.2012 11:41 7,4 C 55 % 1017,0 hPa 0,0 l/m 13,1 km/h (3 Bft) W 265 1 min 0,000 mm 174 W/m -1,0 C 2,9 C 22,5 km/h (4 Bft) 96,00 %
07.01.2012 11:42 7,4 C 54 % 1016,9 hPa 0,0 l/m 12,9 km/h (3 Bft) W-NW 300 1 min 0,000 mm 165 W/m -1,3 C 3,0 C 24,1 km/h (4 Bft) 100,00 %
07.01.2012 11:43 7,4 C 53 % 1016,9 hPa 0,0 l/m 11,6 km/h (2 Bft) W 269 1 min 0,000 mm 162 W/m -1,5 C 3,7 C 16,1 km/h (3 Bft) 100,00 %
07.01.2012 11:44 7,4 C 53 % 1016,9 hPa 0,0 l/m 14,0 km/h (3 Bft) W-NW 302 1 min 0,000 mm 158 W/m -1,5 C 2,5 C 20,9 km/h (4 Bft) 96,00 %
07.01.2012 11:45 7,4 C 53 % 1016,9 hPa 0,0 l/m 15,8 km/h (3 Bft) W 271 1 min 0,000 mm 158 W/m -1,5 C 1,6 C 20,9 km/h (4 Bft) 100,00 %
07.01.2012 11:46 7,3 C 53 % 1016,8 hPa 0,0 l/m 14,4 km/h (3 Bft) W-NW 292 1 min 0,000 mm 155 W/m -1,6 C 2,1 C 25,7 km/h (4 Bft) 100,00 %
07.01.2012 11:47 7,3 C 53 % 1016,8 hPa 0,0 l/m 10,7 km/h (2 Bft) W-NW 286 1 min 0,000 mm 153 W/m -1,6 C 4,2 C 20,9 km/h (4 Bft) 100,00 %
07.01.2012 11:48 7,3 C 53 % 1016,8 hPa 0,0 l/m 12,9 km/h (3 Bft) W-NW 286 0 min 0,000 mm 151 W/m -1,6 C 2,9 C 20,9 km/h (4 Bft) 100,00 %
07.01.2012 11:49 7,2 C 53 % 1016,7 hPa 0,0 l/m 7,9 km/h (2 Bft) W 267 0 min 0,000 mm 148 W/m -1,7 C 6,0 C 16,1 km/h (3 Bft) 100,00 %
07.01.2012 11:50 7,3 C 53 % 1016,8 hPa 0,0 l/m 9,9 km/h (2 Bft) W 277 0 min 0,000 mm 146 W/m -1,6 C 4,7 C 16,1 km/h (3 Bft) 100,00 %
07.01.2012 11:51 7,3 C 54 % 1016,7 hPa 0,0 l/m 10,3 km/h (2 Bft) W 272 0 min 0,000 mm 141 W/m -1,4 C 4,4 C 17,7 km/h (3 Bft) 100,00 %
07.01.2012 11:52 7,3 C 54 % 1016,7 hPa 0,0 l/m 5,9 km/h (2 Bft) W 271 0 min 0,000 mm 137 W/m -1,4 C 7,3 C 16,1 km/h (3 Bft) 100,00 %
07.01.2012 11:53 7,3 C 54 % 1016,7 hPa 0,0 l/m 10,4 km/h (2 Bft) W 264 0 min 0,000 mm 137 W/m -1,4 C 4,4 C 20,9 km/h (4 Bft) 100,00 %
07.01.2012 11:54 7,3 C 53 % 1016,7 hPa 0,0 l/m 14,2 km/h (3 Bft) W 270 0 min 0,000 mm 137 W/m -1,6 C 2,2 C 24,1 km/h (4 Bft) 100,00 %
07.01.2012 11:55 7,3 C 53 % 1016,7 hPa 0,0 l/m 10,4 km/h (2 Bft) W-SW 258 0 min 0,000 mm 137 W/m -1,6 C 4,4 C 17,7 km/h (3 Bft) 100,00 %
07.01.2012 11:56 7,3 C 52 % 1016,7 hPa 0,0 l/m 12,7 km/h (3 Bft) W 259 0 min 0,000 mm 137 W/m -1,9 C 3,0 C 17,7 km/h (3 Bft) 100,00 %
07.01.2012 11:57 7,3 C 52 % 1016,7 hPa 0,0 l/m 10,0 km/h (2 Bft) W-NW 283 0 min 0,000 mm 134 W/m -1,9 C 4,6 C 16,1 km/h (3 Bft) 100,00 %
07.01.2012 11:58 7,3 C 53 % 1016,7 hPa 0,0 l/m 6,2 km/h (2 Bft) W 279 0 min 0,000 mm 132 W/m -1,6 C 7,3 C 9,7 km/h (2 Bft) 100,00 %
07.01.2012 11:59 7,3 C 53 % 1016,7 hPa 0,0 l/m 8,9 km/h (2 Bft) W 275 0 min 0,000 mm 130 W/m -1,6 C 5,4 C 17,7 km/h (3 Bft) 100,00 %
07.01.2012 12:00 7,3 C 52 % 1016,6 hPa 0,0 l/m 11,1 km/h (2 Bft) W 260 0 min 0,000 mm 128 W/m -1,9 C 3,9 C 16,1 km/h (3 Bft) 100,00 %
07.01.2012 12:01 7,3 C 52 % 1016,6 hPa 0,0 l/m 10,2 km/h (2 Bft) W-NW 284 0 min 0,152 mm 127 W/m -1,9 C 4,5 C 17,7 km/h (3 Bft) 100,00 %
07.01.2012 12:02 7,3 C 52 % 1016,6 hPa 0,0 l/m 9,1 km/h (2 Bft) W 263 0 min 0,000 mm 125 W/m -1,9 C 5,2 C 14,5 km/h (3 Bft) 100,00 %
07.01.2012 12:03 7,3 C 53 % 1016,6 hPa 0,0 l/m 8,1 km/h (2 Bft) W 267 0 min 0,000 mm 123 W/m -1,6 C 5,9 C 14,5 km/h (3 Bft) 100,00 %
07.01.2012 12:04 7,3 C 53 % 1016,6 hPa 0,0 l/m 6,4 km/h (2 Bft) W 261 0 min 0,000 mm 120 W/m -1,6 C 7,3 C 14,5 km/h (3 Bft) 100,00 %
07.01.2012 12:05 7,3 C 52 % 1016,5 hPa 0,0 l/m 13,1 km/h (3 Bft) W-SW 254 0 min 0,000 mm 118 W/m -1,9 C 2,8 C 19,3 km/h (3 Bft) 100,00 %
07.01.2012 12:06 7,3 C 52 % 1016,5 hPa 0,0 l/m 11,5 km/h (2 Bft) W-SW 256 0 min 0,000 mm 120 W/m -1,9 C 3,7 C 20,9 km/h (4 Bft) 96,00 %
07.01.2012 12:07 7,3 C 52 % 1016,5 hPa 0,0 l/m 12,0 km/h (2 Bft) SW 232 0 min 0,000 mm 121 W/m -1,9 C 3,4 C 22,5 km/h (4 Bft) 100,00 %
07.01.2012 12:08 7,3 C 52 % 1016,5 hPa 0,0 l/m 7,3 km/h (2 Bft) W-SW 242 0 min 0,000 mm 121 W/m -1,9 C 6,6 C 11,3 km/h (2 Bft) 100,00 %
07.01.2012 12:09 7,3 C 52 % 1016,5 hPa 0,0 l/m 17,3 km/h (3 Bft) W-SW 244 0 min 0,000 mm 121 W/m -1,9 C 0,8 C 27,4 km/h (4 Bft) 100,00 %
07.01.2012 12:10 7,3 C 51 % 1016,4 hPa 0,0 l/m 22,6 km/h (4 Bft) W-SW 246 0 min 0,000 mm 121 W/m -2,2 C -1,1 C 32,2 km/h (5 Bft) 100,00 %
07.01.2012 12:11 7,3 C 51 % 1016,4 hPa 0,0 l/m 15,7 km/h (3 Bft) W 279 0 min 0,000 mm 120 W/m -2,2 C 1,5 C 20,9 km/h (4 Bft) 100,00 %
07.01.2012 12:12 7,3 C 52 % 1016,4 hPa 0,0 l/m 6,8 km/h (2 Bft) W 273 0 min 0,000 mm 116 W/m -1,9 C 7,0 C 16,1 km/h (3 Bft) 100,00 %
07.01.2012 12:13 7,3 C 52 % 1016,4 hPa 0,0 l/m 5,8 km/h (2 Bft) W 273 0 min 0,000 mm 114 W/m -1,9 C 7,3 C 8,0 km/h (2 Bft) 100,00 %
07.01.2012 12:14 7,3 C 52 % 1016,4 hPa 0,0 l/m 8,0 km/h (2 Bft) W 271 0 min 0,000 mm 113 W/m -1,9 C 6,0 C 9,7 km/h (2 Bft) 100,00 %
07.01.2012 12:15 7,3 C 51 % 1016,4 hPa 0,0 l/m 18,6 km/h (3 Bft) W-SW 253 0 min 0,000 mm 113 W/m -2,2 C 0,3 C 27,4 km/h (4 Bft) 100,00 %
07.01.2012 12:16 7,3 C 51 % 1016,5 hPa 0,0 l/m 17,7 km/h (3 Bft) W-SW 257 0 min 0,000 mm 113 W/m -2,2 C 0,7 C 24,1 km/h (4 Bft) 100,00 %
07.01.2012 12:17 7,3 C 51 % 1016,5 hPa 0,0 l/m 18,5 km/h (3 Bft) W-SW 245 0 min 0,000 mm 111 W/m -2,2 C 0,4 C 25,7 km/h (4 Bft) 95,83 %
07.01.2012 12:18 7,3 C 50 % 1016,5 hPa 0,0 l/m 21,8 km/h (4 Bft) W-SW 250 0 min 0,000 mm 107 W/m -2,4 C -0,8 C 25,7 km/h (4 Bft) 100,00 %
07.01.2012 12:19 7,3 C 50 % 1016,5 hPa 0,0 l/m 18,1 km/h (3 Bft) W 278 0 min 0,000 mm 102 W/m -2,4 C 0,5 C 24,1 km/h (4 Bft) 100,00 %
07.01.2012 12:20 7,3 C 50 % 1016,6 hPa 0,0 l/m 12,5 km/h (3 Bft) W-SW 248 0 min 0,000 mm 93 W/m -2,4 C 3,1 C 22,5 km/h (4 Bft) 100,00 %
07.01.2012 12:21 7,3 C 50 % 1016,6 hPa 0,0 l/m 19,9 km/h (4 Bft) W-SW 258 0 min 0,000 mm 88 W/m -2,4 C -0,2 C 29,0 km/h (5 Bft) 100,00 %
07.01.2012 12:22 7,2 C 50 % 1016,5 hPa 0,0 l/m 25,2 km/h (4 Bft) W-SW 248 0 min 0,000 mm 84 W/m -2,5 C -2,0 C 30,6 km/h (5 Bft) 100,00 %
07.01.2012 12:23 7,2 C 50 % 1016,7 hPa 0,0 l/m 23,0 km/h (4 Bft) W-SW 246 0 min 0,000 mm 81 W/m -2,5 C -1,4 C 29,0 km/h (5 Bft) 96,00 %
07.01.2012 12:24 7,2 C 50 % 1016,6 hPa 0,0 l/m 18,3 km/h (3 Bft) W-SW 257 0 min 0,000 mm 77 W/m -2,5 C 0,3 C 24,1 km/h (4 Bft) 100,00 %
07.01.2012 12:25 7,2 C 50 % 1016,5 hPa 0,0 l/m 21,3 km/h (4 Bft) W 260 0 min 0,000 mm 76 W/m -2,5 C -0,8 C 25,7 km/h (4 Bft) 100,00 %
07.01.2012 12:26 7,2 C 50 % 1016,6 hPa 0,0 l/m 21,3 km/h (4 Bft) W 265 0 min 0,000 mm 72 W/m -2,5 C -0,8 C 27,4 km/h (4 Bft) 100,00 %
07.01.2012 12:27 7,2 C 49 % 1016,6 hPa 0,0 l/m 16,8 km/h (3 Bft) W-SW 246 0 min 0,000 mm 69 W/m -2,8 C 0,9 C 25,7 km/h (4 Bft) 100,00 %
07.01.2012 12:28 7,2 C 50 % 1016,6 hPa 0,0 l/m 17,5 km/h (3 Bft) SW 236 0 min 0,000 mm 67 W/m -2,5 C 0,6 C 25,7 km/h (4 Bft) 100,00 %
07.01.2012 12:29 7,1 C 50 % 1016,6 hPa 0,0 l/m 18,4 km/h (3 Bft) W-SW 257 0 min 0,000 mm 65 W/m -2,6 C 0,1 C 27,4 km/h (4 Bft) 100,00 %
07.01.2012 12:30 7,1 C 50 % 1016,6 hPa 0,0 l/m 11,3 km/h (2 Bft) W-SW 250 0 min 0,000 mm 63 W/m -2,6 C 3,6 C 14,5 km/h (3 Bft) 100,00 %
07.01.2012 12:31 7,1 C 50 % 1016,6 hPa 0,0 l/m 8,8 km/h (2 Bft) W-SW 257 0 min 0,000 mm 62 W/m -2,6 C 5,2 C 14,5 km/h (3 Bft) 100,00 %
07.01.2012 12:32 7,1 C 50 % 1016,6 hPa 0,0 l/m 9,2 km/h (2 Bft) W-SW 252 0 min 0,000 mm 60 W/m -2,6 C 4,9 C 16,1 km/h (3 Bft) 100,00 %
07.01.2012 12:33 7,1 C 51 % 1016,6 hPa 0,0 l/m 15,5 km/h (3 Bft) W-SW 255 0 min 0,000 mm 60 W/m -2,3 C 1,4 C 20,9 km/h (4 Bft) 100,00 %
07.01.2012 12:34 7,1 C 50 % 1016,6 hPa 0,0 l/m 14,4 km/h (3 Bft) W-SW 255 0 min 0,000 mm 60 W/m -2,6 C 1,9 C 20,9 km/h (4 Bft) 100,00 %
07.01.2012 12:35 7,1 C 50 % 1016,5 hPa 0,0 l/m 14,3 km/h (3 Bft) W 259 0 min 0,000 mm 58 W/m -2,6 C 2,0 C 25,7 km/h (4 Bft) 100,00 %
07.01.2012 12:36 7,1 C 50 % 1016,5 hPa 0,0 l/m 15,3 km/h (3 Bft) W 264 0 min 0,000 mm 58 W/m -2,6 C 1,5 C 20,9 km/h (4 Bft) 100,00 %
07.01.2012 12:37 7,1 C 50 % 1016,5 hPa 0,0 l/m 13,2 km/h (3 Bft) W 264 0 min 0,000 mm 58 W/m -2,6 C 2,5 C 16,1 km/h (3 Bft) 100,00 %
07.01.2012 12:38 7,1 C 50 % 1016,5 hPa 0,0 l/m 12,5 km/h (3 Bft) W 280 0 min 0,000 mm 56 W/m -2,6 C 2,9 C 22,5 km/h (4 Bft) 100,00 %
07.01.2012 12:39 7,1 C 50 % 1016,5 hPa 0,0 l/m 16,1 km/h (3 Bft) W-SW 254 0 min 0,000 mm 54 W/m -2,6 C 1,1 C 22,5 km/h (4 Bft) 100,00 %
07.01.2012 12:40 7,1 C 50 % 1016,5 hPa 0,0 l/m 14,4 km/h (3 Bft) W 265 0 min 0,000 mm 54 W/m -2,6 C 1,9 C 19,3 km/h (3 Bft) 100,00 %
07.01.2012 12:41 7,1 C 50 % 1016,6 hPa 0,0 l/m 11,0 km/h (2 Bft) W 265 0 min 0,000 mm 53 W/m -2,6 C 3,8 C 16,1 km/h (3 Bft) 100,00 %
07.01.2012 12:42 7,1 C 51 % 1016,5 hPa 0,0 l/m 10,8 km/h (2 Bft) W 277 0 min 0,000 mm 53 W/m -2,3 C 3,9 C 16,1 km/h (3 Bft) 100,00 %
07.01.2012 12:43 7,1 C 51 % 1016,4 hPa 0,0 l/m 10,5 km/h (2 Bft) W-SW 252 0 min 0,000 mm 53 W/m -2,3 C 4,1 C 16,1 km/h (3 Bft) 100,00 %
07.01.2012 12:44 7,0 C 51 % 1016,5 hPa 0,0 l/m 7,8 km/h (2 Bft) W 261 0 min 0,000 mm 54 W/m -2,4 C 5,9 C 14,5 km/h (3 Bft) 100,00 %
07.01.2012 12:45 7,0 C 51 % 1016,4 hPa 0,0 l/m 7,6 km/h (2 Bft) W 264 0 min 0,000 mm 54 W/m -2,4 C 6,0 C 11,3 km/h (2 Bft) 100,00 %
07.01.2012 12:46 7,0 C 51 % 1016,4 hPa 0,0 l/m 13,3 km/h (3 Bft) W 271 0 min 0,000 mm 54 W/m -2,4 C 2,3 C 20,9 km/h (4 Bft) 100,00 %
07.01.2012 12:47 7,0 C 51 % 1016,3 hPa 0,0 l/m 8,0 km/h (2 Bft) W-SW 254 0 min 0,000 mm 54 W/m -2,4 C 5,7 C 11,3 km/h (2 Bft) 100,00 %
07.01.2012 12:49 7,0 C 51 % 1016,4 hPa 0,0 l/m 9,4 km/h (2 Bft) W 267 0 min 0,000 mm 54 W/m -2,4 C 4,7 C 22,5 km/h (4 Bft) 100,00 %
07.01.2012 12:50 7,0 C 51 % 1016,4 hPa 0,0 l/m 18,3 km/h (3 Bft) W 263 0 min 0,000 mm 56 W/m -2,4 C 0,1 C 25,7 km/h (4 Bft) 100,00 %
07.01.2012 12:51 6,9 C 51 % 1016,3 hPa 0,0 l/m 16,2 km/h (3 Bft) W-NW 292 0 min 0,000 mm 56 W/m -2,5 C 0,8 C 24,1 km/h (4 Bft) 100,00 %
07.01.2012 12:52 7,0 C 51 % 1016,3 hPa 0,0 l/m 15,2 km/h (3 Bft) W-SW 254 0 min 0,000 mm 56 W/m -2,4 C 1,4 C 27,4 km/h (4 Bft) 100,00 %
07.01.2012 12:53 6,9 C 51 % 1016,3 hPa 0,0 l/m 17,7 km/h (3 Bft) W 269 0 min 0,000 mm 56 W/m -2,5 C 0,2 C 25,7 km/h (4 Bft) 100,00 %
07.01.2012 12:54 6,9 C 50 % 1016,3 hPa 0,0 l/m 13,2 km/h (3 Bft) W 261 0 min 0,000 mm 54 W/m -2,8 C 2,3 C 19,3 km/h (3 Bft) 100,00 %
07.01.2012 12:55 6,9 C 50 % 1016,2 hPa 0,0 l/m 15,0 km/h (3 Bft) W-SW 257 0 min 0,000 mm 54 W/m -2,8 C 1,4 C 25,7 km/h (4 Bft) 100,00 %
07.01.2012 12:56 7,0 C 50 % 1016,2 hPa 0,0 l/m 12,7 km/h (3 Bft) W-SW 252 0 min 0,000 mm 53 W/m -2,7 C 2,7 C 20,9 km/h (4 Bft) 100,00 %
07.01.2012 12:57 6,9 C 50 % 1016,2 hPa 0,0 l/m 13,0 km/h (3 Bft) W-SW 253 0 min 0,000 mm 53 W/m -2,8 C 2,4 C 19,3 km/h (3 Bft) 100,00 %
07.01.2012 12:58 7,0 C 50 % 1016,1 hPa 0,0 l/m 16,4 km/h (3 Bft) W 261 0 min 0,000 mm 54 W/m -2,7 C 0,9 C 22,5 km/h (4 Bft) 100,00 %
07.01.2012 12:59 7,0 C 50 % 1016,1 hPa 0,0 l/m 12,9 km/h (3 Bft) W-SW 247 0 min 0,000 mm 54 W/m -2,7 C 2,6 C 20,9 km/h (4 Bft) 100,00 %
07.01.2012 13:00 7,0 C 51 % 1016,1 hPa 0,0 l/m 11,3 km/h (2 Bft) W-SW 247 0 min 0,102 mm 56 W/m -2,4 C 3,5 C 14,5 km/h (3 Bft) 100,00 %
07.01.2012 13:01 7,0 C 51 % 1016,1 hPa 0,0 l/m 12,9 km/h (3 Bft) W 270 0 min 0,000 mm 60 W/m -2,4 C 2,6 C 19,3 km/h (3 Bft) 100,00 %
07.01.2012 13:02 7,0 C 51 % 1016,0 hPa 0,0 l/m 12,9 km/h (3 Bft) W 270 0 min 0,000 mm 60 W/m -2,4 C 2,6 C 19,3 km/h (3 Bft) 100,00 %
07.01.2012 13:03 6,9 C 51 % 1015,9 hPa 0,0 l/m 9,7 km/h (2 Bft) W-NW 292 0 min 0,000 mm 60 W/m -2,5 C 4,4 C 17,7 km/h (3 Bft) 100,00 %
07.01.2012 13:04 6,9 C 51 % 1015,9 hPa 0,0 l/m 8,0 km/h (2 Bft) W 270 0 min 0,000 mm 58 W/m -2,5 C 5,6 C 11,3 km/h (2 Bft) 100,00 %
07.01.2012 13:05 6,9 C 51 % 1016,0 hPa 0,0 l/m 8,0 km/h (2 Bft) W 270 0 min 0,000 mm 58 W/m -2,5 C 5,6 C 14,5 km/h (3 Bft) 100,00 %
07.01.2012 13:06 6,9 C 51 % 1015,9 hPa 0,0 l/m 11,3 km/h (2 Bft) W-SW 247 0 min 0,000 mm 56 W/m -2,5 C 3,4 C 19,3 km/h (3 Bft) 100,00 %
07.01.2012 13:07 6,9 C 51 % 1015,8 hPa 0,0 l/m 11,3 km/h (2 Bft) W-SW 247 0 min 0,000 mm 56 W/m -2,5 C 3,4 C 20,9 km/h (4 Bft) 100,00 %
07.01.2012 13:08 6,9 C 51 % 1015,8 hPa 0,0 l/m 12,9 km/h (3 Bft) W-SW 247 0 min 0,000 mm 54 W/m -2,5 C 2,4 C 22,5 km/h (4 Bft) 100,00 %
07.01.2012 13:09 6,9 C 51 % 1015,8 hPa 0,0 l/m 8,0 km/h (2 Bft) W 270 0 min 0,000 mm 54 W/m -2,5 C 5,6 C 9,7 km/h (2 Bft) 100,00 %
07.01.2012 13:10 6,9 C 51 % 1015,8 hPa 0,0 l/m 11,3 km/h (2 Bft) W 270 0 min 0,000 mm 53 W/m -2,5 C 3,4 C 20,9 km/h (4 Bft) 100,00 %
07.01.2012 13:11 6,9 C 51 % 1015,8 hPa 0,0 l/m 11,3 km/h (2 Bft) W 270 0 min 0,000 mm 53 W/m -2,5 C 3,4 C 16,1 km/h (3 Bft) 100,00 %
07.01.2012 13:12 6,9 C 51 % 1015,8 hPa 0,0 l/m 12,9 km/h (3 Bft) W-SW 247 0 min 0,000 mm 53 W/m -2,5 C 2,4 C 16,1 km/h (3 Bft) 100,00 %
07.01.2012 13:13 6,9 C 51 % 1015,8 hPa 0,0 l/m 11,3 km/h (2 Bft) W-SW 247 0 min 0,000 mm 54 W/m -2,5 C 3,4 C 17,7 km/h (3 Bft) 100,00 %
07.01.2012 13:14 6,9 C 51 % 1015,8 hPa 0,0 l/m 12,9 km/h (3 Bft) W-SW 247 0 min 0,000 mm 56 W/m -2,5 C 2,4 C 16,1 km/h (3 Bft) 100,00 %
07.01.2012 13:15 6,9 C 51 % 1015,8 hPa 0,0 l/m 9,7 km/h (2 Bft) W-SW 247 0 min 0,000 mm 58 W/m -2,5 C 4,4 C 16,1 km/h (3 Bft) 100,00 %
07.01.2012 13:16 6,9 C 51 % 1015,8 hPa 0,0 l/m 11,3 km/h (2 Bft) W-SW 247 0 min 0,000 mm 58 W/m -2,5 C 3,4 C 17,7 km/h (3 Bft) 100,00 %
07.01.2012 13:17 6,9 C 51 % 1015,8 hPa 0,0 l/m 12,9 km/h (3 Bft) W-SW 247 0 min 0,000 mm 60 W/m -2,5 C 2,4 C 19,3 km/h (3 Bft) 100,00 %
07.01.2012 13:18 6,9 C 51 % 1015,8 hPa 0,0 l/m 9,7 km/h (2 Bft) W-SW 247 0 min 0,000 mm 60 W/m -2,5 C 4,4 C 16,1 km/h (3 Bft) 100,00 %
07.01.2012 13:19 6,9 C 51 % 1015,8 hPa 0,0 l/m 12,9 km/h (3 Bft) W-SW 247 0 min 0,000 mm 63 W/m -2,5 C 2,4 C 19,3 km/h (3 Bft) 100,00 %
07.01.2012 13:20 6,9 C 51 % 1015,8 hPa 0,0 l/m 11,3 km/h (2 Bft) W-SW 247 0 min 0,000 mm 63 W/m -2,5 C 3,4 C 16,1 km/h (3 Bft) 100,00 %
07.01.2012 13:21 6,9 C 51 % 1015,8 hPa 0,0 l/m 11,3 km/h (2 Bft) W-SW 247 0 min 0,000 mm 65 W/m -2,5 C 3,4 C 17,7 km/h (3 Bft) 100,00 %
07.01.2012 13:22 6,9 C 51 % 1015,8 hPa 0,0 l/m 14,5 km/h (3 Bft) W-SW 247 0 min 0,000 mm 65 W/m -2,5 C 1,6 C 20,9 km/h (4 Bft) 100,00 %
07.01.2012 13:23 6,9 C 50 % 1015,7 hPa 0,0 l/m 14,5 km/h (3 Bft) W-SW 247 0 min 0,000 mm 67 W/m -2,8 C 1,6 C 17,7 km/h (3 Bft) 100,00 %
07.01.2012 13:24 6,9 C 51 % 1015,8 hPa 0,0 l/m 9,7 km/h (2 Bft) W-SW 247 0 min 0,000 mm 67 W/m -2,5 C 4,4 C 12,9 km/h (3 Bft) 100,00 %
07.01.2012 13:25 6,9 C 51 % 1015,8 hPa 0,0 l/m 6,4 km/h (2 Bft) W-SW 247 0 min 0,000 mm 65 W/m -2,5 C 6,9 C 11,3 km/h (2 Bft) 100,00 %
07.01.2012 13:26 6,9 C 51 % 1015,8 hPa 0,0 l/m 14,5 km/h (3 Bft) W-SW 247 0 min 0,000 mm 62 W/m -2,5 C 1,6 C 20,9 km/h (4 Bft) 100,00 %
07.01.2012 13:27 6,9 C 50 % 1015,8 hPa 0,0 l/m 14,5 km/h (3 Bft) W 270 0 min 0,000 mm 62 W/m -2,8 C 1,6 C 24,1 km/h (4 Bft) 100,00 %
07.01.2012 13:28 6,9 C 50 % 1015,8 hPa 0,0 l/m 12,9 km/h (3 Bft) W-SW 247 0 min 0,000 mm 60 W/m -2,8 C 2,4 C 17,7 km/h (3 Bft) 100,00 %
07.01.2012 13:29 6,9 C 50 % 1015,7 hPa 0,0 l/m 11,3 km/h (2 Bft) W-SW 247 0 min 0,000 mm 58 W/m -2,8 C 3,4 C 22,5 km/h (4 Bft) 100,00 %
07.01.2012 13:30 6,9 C 50 % 1015,8 hPa 0,0 l/m 14,5 km/h (3 Bft) W-SW 247 0 min 0,000 mm 58 W/m -2,8 C 1,6 C 24,1 km/h (4 Bft) 100,00 %
07.01.2012 13:31 6,9 C 50 % 1015,8 hPa 0,0 l/m 8,0 km/h (2 Bft) W-SW 247 0 min 0,000 mm 56 W/m -2,8 C 5,6 C 11,3 km/h (2 Bft) 100,00 %
07.01.2012 13:32 6,9 C 50 % 1015,7 hPa 0,0 l/m 14,5 km/h (3 Bft) W-SW 247 0 min 0,000 mm 54 W/m -2,8 C 1,6 C 19,3 km/h (3 Bft) 100,00 %
07.01.2012 13:33 6,9 C 50 % 1015,7 hPa 0,0 l/m 14,5 km/h (3 Bft) W-SW 247 0 min 0,000 mm 54 W/m -2,8 C 1,6 C 20,9 km/h (4 Bft) 100,00 %
07.01.2012 13:34 6,9 C 50 % 1015,7 hPa 0,0 l/m 14,5 km/h (3 Bft) W-SW 247 0 min 0,000 mm 53 W/m -2,8 C 1,6 C 19,3 km/h (3 Bft) 100,00 %
07.01.2012 13:35 6,9 C 50 % 1015,7 hPa 0,0 l/m 14,5 km/h (3 Bft) W-SW 247 0 min 0,000 mm 51 W/m -2,8 C 1,6 C 20,9 km/h (4 Bft) 100,00 %
07.01.2012 13:36 6,9 C 50 % 1015,7 hPa 0,0 l/m 12,9 km/h (3 Bft) W-SW 247 0 min 0,000 mm 49 W/m -2,8 C 2,4 C 19,3 km/h (3 Bft) 100,00 %
07.01.2012 13:37 6,9 C 50 % 1015,7 hPa 0,0 l/m 11,3 km/h (2 Bft) W 270 0 min 0,000 mm 47 W/m -2,8 C 3,4 C 17,7 km/h (3 Bft) 100,00 %
07.01.2012 13:38 6,9 C 50 % 1015,7 hPa 0,0 l/m 14,5 km/h (3 Bft) W-SW 247 0 min 0,000 mm 46 W/m -2,8 C 1,6 C 24,1 km/h (4 Bft) 100,00 %
07.01.2012 13:39 6,9 C 50 % 1015,6 hPa 0,0 l/m 16,1 km/h (3 Bft) W-SW 247 0 min 0,000 mm 44 W/m -2,8 C 0,9 C 22,5 km/h (4 Bft) 100,00 %
07.01.2012 13:40 6,9 C 50 % 1015,6 hPa 0,0 l/m 12,9 km/h (3 Bft) W 270 0 min 0,000 mm 44 W/m -2,8 C 2,4 C 20,9 km/h (4 Bft) 100,00 %
07.01.2012 13:41 6,9 C 50 % 1015,6 hPa 0,0 l/m 9,7 km/h (2 Bft) W-SW 247 0 min 0,000 mm 42 W/m -2,8 C 4,4 C 14,5 km/h (3 Bft) 100,00 %
07.01.2012 13:42 6,9 C 50 % 1015,6 hPa 0,0 l/m 12,9 km/h (3 Bft) W-SW 247 0 min 0,000 mm 42 W/m -2,8 C 2,4 C 20,9 km/h (4 Bft) 100,00 %
07.01.2012 13:43 6,9 C 50 % 1015,6 hPa 0,0 l/m 17,7 km/h (3 Bft) W-SW 247 0 min 0,000 mm 42 W/m -2,8 C 0,2 C 25,7 km/h (4 Bft) 100,00 %
07.01.2012 13:44 6,9 C 50 % 1015,6 hPa 0,0 l/m 14,5 km/h (3 Bft) W-SW 247 0 min 0,000 mm 42 W/m -2,8 C 1,6 C 22,5 km/h (4 Bft) 100,00 %
07.01.2012 13:45 6,9 C 50 % 1015,5 hPa 0,0 l/m 17,7 km/h (3 Bft) W 270 0 min 0,000 mm 42 W/m -2,8 C 0,2 C 22,5 km/h (4 Bft) 100,00 %
07.01.2012 13:46 6,9 C 50 % 1015,5 hPa 0,0 l/m 16,1 km/h (3 Bft) W 270 0 min 0,000 mm 42 W/m -2,8 C 0,9 C 29,0 km/h (5 Bft) 100,00 %
07.01.2012 13:47 6,9 C 50 % 1015,5 hPa 0,0 l/m 20,9 km/h (4 Bft) W 270 0 min 0,000 mm 42 W/m -2,8 C -1,0 C 29,0 km/h (5 Bft) 100,00 %
07.01.2012 13:48 6,9 C 50 % 1015,5 hPa 0,0 l/m 17,7 km/h (3 Bft) W-SW 247 0 min 0,000 mm 42 W/m -2,8 C 0,2 C 25,7 km/h (4 Bft) 100,00 %
07.01.2012 13:49 6,9 C 50 % 1015,5 hPa 0,0 l/m 14,5 km/h (3 Bft) W-SW 247 0 min 0,000 mm 42 W/m -2,8 C 1,6 C 19,3 km/h (3 Bft) 100,00 %
07.01.2012 13:50 6,9 C 50 % 1015,5 hPa 0,0 l/m 14,5 km/h (3 Bft) W-SW 247 0 min 0,000 mm 42 W/m -2,8 C 1,6 C 19,3 km/h (3 Bft) 100,00 %
07.01.2012 13:51 6,9 C 51 % 1015,5 hPa 0,0 l/m 16,1 km/h (3 Bft) W-SW 247 0 min 0,000 mm 42 W/m -2,5 C 0,9 C 24,1 km/h (4 Bft) 100,00 %
07.01.2012 13:52 6,8 C 51 % 1015,5 hPa 0,0 l/m 12,9 km/h (3 Bft) W-SW 247 0 min 0,000 mm 42 W/m -2,6 C 2,3 C 17,7 km/h (3 Bft) 100,00 %
07.01.2012 13:53 6,8 C 51 % 1015,5 hPa 0,0 l/m 11,3 km/h (2 Bft) W-SW 247 0 min 0,000 mm 42 W/m -2,6 C 3,2 C 16,1 km/h (3 Bft) 100,00 %
07.01.2012 13:54 6,8 C 51 % 1015,5 hPa 0,0 l/m 12,9 km/h (3 Bft) W-SW 247 0 min 0,000 mm 44 W/m -2,6 C 2,3 C 20,9 km/h (4 Bft) 100,00 %
07.01.2012 13:55 6,8 C 51 % 1015,5 hPa 0,0 l/m 8,0 km/h (2 Bft) W-SW 247 0 min 0,000 mm 44 W/m -2,6 C 5,5 C 14,5 km/h (3 Bft) 100,00 %
07.01.2012 13:56 6,8 C 51 % 1015,5 hPa 0,0 l/m 16,1 km/h (3 Bft) W 270 0 min 0,000 mm 44 W/m -2,6 C 0,7 C 25,7 km/h (4 Bft) 100,00 %
07.01.2012 13:57 6,8 C 51 % 1015,5 hPa 0,0 l/m 17,7 km/h (3 Bft) W-SW 247 0 min 0,000 mm 44 W/m -2,6 C 0,1 C 24,1 km/h (4 Bft) 100,00 %
07.01.2012 13:58 6,8 C 51 % 1015,5 hPa 0,0 l/m 20,9 km/h (4 Bft) W-SW 247 0 min 0,000 mm 46 W/m -2,6 C -1,2 C 25,7 km/h (4 Bft) 100,00 %
07.01.2012 13:59 6,8 C 51 % 1015,5 hPa 0,0 l/m 19,3 km/h (3 Bft) W-SW 247 0 min 0,000 mm 46 W/m -2,6 C -0,6 C 24,1 km/h (4 Bft) 100,00 %
07.01.2012 14:00 6,7 C 51 % 1015,5 hPa 0,0 l/m 16,1 km/h (3 Bft) W-SW 247 0 min 0,076 mm 47 W/m -2,7 C 0,6 C 20,9 km/h (4 Bft) 95,65 %
07.01.2012 14:01 6,7 C 52 % 1015,5 hPa 0,0 l/m 9,7 km/h (2 Bft) W 270 0 min 0,000 mm 47 W/m -2,4 C 4,2 C 11,3 km/h (2 Bft) 100,00 %
07.01.2012 14:02 6,7 C 52 % 1015,5 hPa 0,0 l/m 9,7 km/h (2 Bft) W-SW 247 0 min 0,000 mm 47 W/m -2,4 C 4,2 C 16,1 km/h (3 Bft) 100,00 %
07.01.2012 14:03 6,7 C 53 % 1015,5 hPa 0,0 l/m 12,9 km/h (3 Bft) W 270 0 min 0,000 mm 47 W/m -2,2 C 2,2 C 19,3 km/h (3 Bft) 100,00 %
07.01.2012 14:04 6,7 C 53 % 1015,4 hPa 0,0 l/m 14,5 km/h (3 Bft) W 270 0 min 0,000 mm 47 W/m -2,2 C 1,4 C 22,5 km/h (4 Bft) 100,00 %
07.01.2012 14:05 6,7 C 53 % 1015,5 hPa 0,0 l/m 14,5 km/h (3 Bft) W-SW 247 0 min 0,000 mm 47 W/m -2,2 C 1,4 C 17,7 km/h (3 Bft) 100,00 %
07.01.2012 14:06 6,6 C 53 % 1015,5 hPa 0,0 l/m 9,7 km/h (2 Bft) W 270 0 min 0,000 mm 46 W/m -2,3 C 4,0 C 12,9 km/h (3 Bft) 100,00 %
07.01.2012 14:07 6,6 C 54 % 1015,4 hPa 0,0 l/m 11,3 km/h (2 Bft) W 270 0 min 0,000 mm 44 W/m -2,0 C 3,0 C 17,7 km/h (3 Bft) 100,00 %
07.01.2012 14:08 6,6 C 54 % 1015,4 hPa 0,0 l/m 4,8 km/h (1 Bft) W 270 0 min 0,000 mm 42 W/m -2,0 C 6,6 C 9,7 km/h (2 Bft) 100,00 %
07.01.2012 14:09 6,6 C 55 % 1015,4 hPa 0,0 l/m 8,0 km/h (2 Bft) W-SW 247 0 min 0,000 mm 42 W/m -1,8 C 5,3 C 17,7 km/h (3 Bft) 100,00 %
07.01.2012 14:10 6,5 C 55 % 1015,4 hPa 0,0 l/m 9,7 km/h (2 Bft) W 270 0 min 0,000 mm 40 W/m -1,9 C 3,9 C 14,5 km/h (3 Bft) 100,00 %
07.01.2012 14:11 6,4 C 55 % 1015,4 hPa 0,0 l/m 12,9 km/h (3 Bft) W-SW 247 0 min 0,000 mm 40 W/m -2,0 C 1,9 C 19,3 km/h (3 Bft) 100,00 %
07.01.2012 14:12 6,4 C 55 % 1015,4 hPa 0,0 l/m 11,3 km/h (2 Bft) W-SW 247 0 min 0,000 mm 42 W/m -2,0 C 2,8 C 16,1 km/h (3 Bft) 100,00 %
07.01.2012 14:13 6,4 C 55 % 1015,3 hPa 0,0 l/m 11,3 km/h (2 Bft) W-SW 247 0 min 0,000 mm 42 W/m -2,0 C 2,8 C 16,1 km/h (3 Bft) 100,00 %
07.01.2012 14:14 6,4 C 55 % 1015,3 hPa 0,0 l/m 6,4 km/h (2 Bft) W 270 0 min 0,000 mm 42 W/m -2,0 C 6,4 C 9,7 km/h (2 Bft) 100,00 %
07.01.2012 14:15 6,4 C 56 % 1015,3 hPa 0,0 l/m 8,0 km/h (2 Bft) W 270 0 min 0,000 mm 44 W/m -1,7 C 5,1 C 11,3 km/h (2 Bft) 100,00 %
07.01.2012 14:16 6,3 C 56 % 1015,3 hPa 0,0 l/m 8,0 km/h (2 Bft) W-SW 247 0 min 0,000 mm 44 W/m -1,8 C 5,0 C 14,5 km/h (3 Bft) 100,00 %
07.01.2012 14:17 6,3 C 56 % 1015,2 hPa 0,0 l/m 11,3 km/h (2 Bft) W 270 0 min 0,000 mm 46 W/m -1,8 C 2,7 C 19,3 km/h (3 Bft) 100,00 %
07.01.2012 14:18 6,3 C 56 % 1015,2 hPa 0,0 l/m 11,3 km/h (2 Bft) W 270 0 min 0,000 mm 46 W/m -1,8 C 2,7 C 22,5 km/h (4 Bft) 100,00 %
07.01.2012 14:19 6,3 C 56 % 1015,3 hPa 0,0 l/m 12,9 km/h (3 Bft) W-SW 247 0 min 0,000 mm 46 W/m -1,8 C 1,7 C 20,9 km/h (4 Bft) 100,00 %
07.01.2012 14:20 6,3 C 56 % 1015,2 hPa 0,0 l/m 16,1 km/h (3 Bft) W 270 0 min 0,000 mm 46 W/m -1,8 C 0,1 C 24,1 km/h (4 Bft) 100,00 %
07.01.2012 14:21 6,3 C 56 % 1015,2 hPa 0,0 l/m 11,3 km/h (2 Bft) W 270 0 min 0,000 mm 46 W/m -1,8 C 2,7 C 16,1 km/h (3 Bft) 100,00 %
07.01.2012 14:22 6,3 C 56 % 1015,1 hPa 0,0 l/m 9,7 km/h (2 Bft) W-SW 247 0 min 0,000 mm 46 W/m -1,8 C 3,7 C 14,5 km/h (3 Bft) 100,00 %
07.01.2012 14:23 6,3 C 57 % 1015,1 hPa 0,0 l/m 6,4 km/h (2 Bft) W-SW 247 0 min 0,000 mm 47 W/m -1,6 C 6,3 C 9,7 km/h (2 Bft) 100,00 %
07.01.2012 14:24 6,3 C 57 % 1015,1 hPa 0,0 l/m 12,9 km/h (3 Bft) W-SW 247 0 min 0,000 mm 49 W/m -1,6 C 1,7 C 17,7 km/h (3 Bft) 100,00 %
07.01.2012 14:25 6,2 C 57 % 1015,1 hPa 0,0 l/m 14,5 km/h (3 Bft) W 270 0 min 0,000 mm 51 W/m -1,7 C 0,8 C 20,9 km/h (4 Bft) 100,00 %
07.01.2012 14:26 6,2 C 57 % 1015,1 hPa 0,0 l/m 17,7 km/h (3 Bft) W 270 0 min 0,000 mm 51 W/m -1,7 C -0,7 C 24,1 km/h (4 Bft) 100,00 %
07.01.2012 14:27 6,2 C 56 % 1015,1 hPa 0,0 l/m 17,7 km/h (3 Bft) W 270 0 min 0,000 mm 51 W/m -1,9 C -0,7 C 22,5 km/h (4 Bft) 100,00 %
07.01.2012 14:28 6,2 C 57 % 1015,1 hPa 0,0 l/m 12,9 km/h (3 Bft) W 270 0 min 0,000 mm 51 W/m -1,7 C 1,6 C 19,3 km/h (3 Bft) 100,00 %
07.01.2012 14:29 6,2 C 57 % 1015,0 hPa 0,0 l/m 6,4 km/h (2 Bft) W-SW 247 0 min 0,000 mm 49 W/m -1,7 C 6,2 C 11,3 km/h (2 Bft) 100,00 %
07.01.2012 14:30 6,2 C 57 % 1015,0 hPa 0,0 l/m 8,0 km/h (2 Bft) W-SW 247 0 min 0,000 mm 46 W/m -1,7 C 4,9 C 11,3 km/h (2 Bft) 100,00 %
07.01.2012 14:31 6,2 C 57 % 1015,0 hPa 0,0 l/m 4,8 km/h (1 Bft) W-SW 247 0 min 0,000 mm 46 W/m -1,7 C 6,2 C 9,7 km/h (2 Bft) 100,00 %
07.01.2012 14:32 6,2 C 57 % 1015,0 hPa 0,0 l/m 3,2 km/h (1 Bft) W-SW 247 0 min 0,000 mm 44 W/m -1,7 C 6,2 C 6,4 km/h (2 Bft) 100,00 %
07.01.2012 14:33 6,2 C 58 % 1015,0 hPa 0,0 l/m 4,8 km/h (1 Bft) W-SW 247 0 min 0,000 mm 42 W/m -1,4 C 6,2 C 9,7 km/h (2 Bft) 100,00 %
07.01.2012 14:34 6,1 C 58 % 1014,9 hPa 0,0 l/m 6,4 km/h (2 Bft) W 270 0 min 0,000 mm 40 W/m -1,5 C 6,1 C 8,0 km/h (2 Bft) 95,65 %
07.01.2012 14:35 6,1 C 57 % 1014,9 hPa 0,0 l/m 8,0 km/h (2 Bft) W-SW 247 0 min 0,000 mm 39 W/m -1,8 C 4,8 C 16,1 km/h (3 Bft) 100,00 %
07.01.2012 14:36 6,1 C 58 % 1015,0 hPa 0,0 l/m 3,2 km/h (1 Bft) W-SW 247 0 min 0,000 mm 37 W/m -1,5 C 6,1 C 6,4 km/h (2 Bft) 100,00 %
07.01.2012 14:37 6,1 C 58 % 1014,9 hPa 0,0 l/m 3,2 km/h (1 Bft) W-SW 247 0 min 0,000 mm 35 W/m -1,5 C 6,1 C 4,8 km/h (1 Bft) 100,00 %
07.01.2012 14:38 6,1 C 58 % 1014,9 hPa 0,0 l/m 3,2 km/h (1 Bft) W-SW 247 0 min 0,000 mm 33 W/m -1,5 C 6,1 C 4,8 km/h (1 Bft) 100,00 %
07.01.2012 14:39 6,1 C 58 % 1014,9 hPa 0,0 l/m 3,2 km/h (1 Bft) W-SW 247 0 min 0,000 mm 33 W/m -1,5 C 6,1 C 8,0 km/h (2 Bft) 100,00 %
07.01.2012 14:40 6,1 C 58 % 1014,9 hPa 0,0 l/m 1,6 km/h (1 Bft) W-SW 247 0 min 0,000 mm 32 W/m -1,5 C 6,1 C 6,4 km/h (2 Bft) 100,00 %
07.01.2012 14:41 6,0 C 59 % 1014,9 hPa 0,0 l/m 0,0 km/h (0 Bft) W-SW 247 0 min 0,000 mm 32 W/m -1,4 C 6,0 C 1,6 km/h (1 Bft) 100,00 %
07.01.2012 14:42 6,0 C 59 % 1014,9 hPa 0,0 l/m 3,2 km/h (1 Bft) W-SW 247 0 min 0,000 mm 32 W/m -1,4 C 6,0 C 8,0 km/h (2 Bft) 100,00 %
07.01.2012 14:43 6,0 C 58 % 1014,9 hPa 0,0 l/m 0,0 km/h (0 Bft) W-SW 247 0 min 0,000 mm 30 W/m -1,6 C 6,0 C 3,2 km/h (1 Bft) 100,00 %
07.01.2012 14:44 6,0 C 58 % 1014,9 hPa 0,0 l/m 0,0 km/h (0 Bft) W-SW 247 0 min 0,000 mm 30 W/m -1,6 C 6,0 C 1,6 km/h (1 Bft) 100,00 %
07.01.2012 14:45 6,0 C 58 % 1014,9 hPa 0,0 l/m 1,6 km/h (1 Bft) W-SW 247 0 min 0,000 mm 30 W/m -1,6 C 6,0 C 3,2 km/h (1 Bft) 100,00 %
07.01.2012 14:46 6,0 C 58 % 1015,0 hPa 0,0 l/m 0,0 km/h (0 Bft) W-SW 247 0 min 0,000 mm 30 W/m -1,6 C 6,0 C 1,6 km/h (1 Bft) 100,00 %
07.01.2012 14:47 6,0 C 57 % 1014,9 hPa 0,0 l/m 0,0 km/h (0 Bft) N 0 0 min 0,000 mm 32 W/m -1,9 C 6,0 C 0,0 km/h (0 Bft) 100,00 %
07.01.2012 14:48 6,0 C 58 % 1015,0 hPa 0,0 l/m 0,0 km/h (0 Bft) N 0 0 min 0,000 mm 32 W/m -1,6 C 6,0 C 0,0 km/h (0 Bft) 100,00 %
07.01.2012 14:49 6,0 C 58 % 1014,9 hPa 0,0 l/m 0,0 km/h (0 Bft) N 0 0 min 0,000 mm 32 W/m -1,6 C 6,0 C 0,0 km/h (0 Bft) 100,00 %
07.01.2012 14:50 6,0 C 58 % 1014,9 hPa 0,0 l/m 0,0 km/h (0 Bft) N 0 0 min 0,000 mm 32 W/m -1,6 C 6,0 C 0,0 km/h (0 Bft) 100,00 %
07.01.2012 14:51 6,0 C 58 % 1015,0 hPa 0,0 l/m 0,0 km/h (0 Bft) N 0 0 min 0,000 mm 32 W/m -1,6 C 6,0 C 0,0 km/h (0 Bft) 100,00 %
07.01.2012 14:52 6,0 C 58 % 1014,9 hPa 0,0 l/m 0,0 km/h (0 Bft) N 0 0 min 0,000 mm 32 W/m -1,6 C 6,0 C 0,0 km/h (0 Bft) 100,00 %
07.01.2012 14:53 6,0 C 58 % 1014,8 hPa 0,0 l/m 0,0 km/h (0 Bft) N 0 0 min 0,000 mm 30 W/m -1,6 C 6,0 C 0,0 km/h (0 Bft) 100,00 %
07.01.2012 14:54 6,0 C 58 % 1014,8 hPa 0,0 l/m 0,0 km/h (0 Bft) N 0 0 min 0,000 mm 30 W/m -1,6 C 6,0 C 0,0 km/h (0 Bft) 100,00 %
07.01.2012 14:55 5,9 C 58 % 1014,7 hPa 0,0 l/m 0,0 km/h (0 Bft) N 0 0 min 0,000 mm 30 W/m -1,7 C 5,9 C 0,0 km/h (0 Bft) 100,00 %
07.01.2012 14:56 5,9 C 57 % 1014,7 hPa 0,0 l/m 6,4 km/h (2 Bft) W-SW 247 0 min 0,000 mm 30 W/m -2,0 C 5,9 C 12,9 km/h (3 Bft) 100,00 %
07.01.2012 14:57 6,0 C 56 % 1014,7 hPa 0,0 l/m 8,0 km/h (2 Bft) W-SW 247 0 min 0,000 mm 30 W/m -2,1 C 4,7 C 12,9 km/h (3 Bft) 100,00 %
07.01.2012 14:58 6,1 C 56 % 1014,7 hPa 0,0 l/m 1,6 km/h (1 Bft) W-SW 247 0 min 0,000 mm 30 W/m -2,0 C 6,1 C 6,4 km/h (2 Bft) 100,00 %
07.01.2012 14:59 6,1 C 56 % 1014,7 hPa 0,0 l/m 0,0 km/h (0 Bft) N 0 0 min 0,000 mm 30 W/m -2,0 C 6,1 C 0,0 km/h (0 Bft) 100,00 %
07.01.2012 15:00 6,1 C 56 % 1014,7 hPa 0,0 l/m 0,0 km/h (0 Bft) N 0 0 min 0,051 mm 30 W/m -2,0 C 6,1 C 0,0 km/h (0 Bft) 100,00 %
07.01.2012 15:01 6,1 C 56 % 1014,7 hPa 0,0 l/m 0,0 km/h (0 Bft) N 0 0 min 0,000 mm 30 W/m -2,0 C 6,1 C 0,0 km/h (0 Bft) 100,00 %
07.01.2012 15:02 6,1 C 57 % 1014,7 hPa 0,0 l/m 1,6 km/h (1 Bft) W-SW 247 0 min 0,000 mm 30 W/m -1,8 C 6,1 C 6,4 km/h (2 Bft) 100,00 %
07.01.2012 15:03 6,1 C 57 % 1014,6 hPa 0,0 l/m 0,0 km/h (0 Bft) W-SW 247 0 min 0,000 mm 30 W/m -1,8 C 6,1 C 3,2 km/h (1 Bft) 100,00 %
07.01.2012 15:04 6,2 C 57 % 1014,6 hPa 0,0 l/m 0,0 km/h (0 Bft) N 0 0 min 0,000 mm 30 W/m -1,7 C 6,2 C 0,0 km/h (0 Bft) 100,00 %
07.01.2012 15:05 6,1 C 57 % 1014,6 hPa 0,0 l/m 0,0 km/h (0 Bft) N 0 0 min 0,000 mm 30 W/m -1,8 C 6,1 C 0,0 km/h (0 Bft) 100,00 %
07.01.2012 15:06 6,1 C 57 % 1014,6 hPa 0,0 l/m 0,0 km/h (0 Bft) N 0 0 min 0,000 mm 28 W/m -1,8 C 6,1 C 0,0 km/h (0 Bft) 100,00 %
07.01.2012 15:07 6,1 C 57 % 1014,6 hPa 0,0 l/m 0,0 km/h (0 Bft) N 0 0 min 0,000 mm 28 W/m -1,8 C 6,1 C 0,0 km/h (0 Bft) 100,00 %
07.01.2012 15:08 6,1 C 58 % 1014,6 hPa 0,0 l/m 0,0 km/h (0 Bft) N 0 0 min 0,000 mm 26 W/m -1,5 C 6,1 C 0,0 km/h (0 Bft) 100,00 %
07.01.2012 15:09 6,1 C 58 % 1014,6 hPa 0,0 l/m 0,0 km/h (0 Bft) N 0 0 min 0,000 mm 25 W/m -1,5 C 6,1 C 0,0 km/h (0 Bft) 100,00 %
07.01.2012 15:10 6,0 C 58 % 1014,6 hPa 0,0 l/m 0,0 km/h (0 Bft) N 0 0 min 0,000 mm 25 W/m -1,6 C 6,0 C 0,0 km/h (0 Bft) 100,00 %
07.01.2012 15:11 6,0 C 59 % 1014,6 hPa 0,0 l/m 0,0 km/h (0 Bft) N 0 0 min 0,000 mm 21 W/m -1,4 C 6,0 C 0,0 km/h (0 Bft) 100,00 %
07.01.2012 15:12 6,0 C 58 % 1014,5 hPa 0,0 l/m 0,0 km/h (0 Bft) N 0 0 min 0,000 mm 21 W/m -1,6 C 6,0 C 0,0 km/h (0 Bft) 100,00 %
07.01.2012 15:13 5,9 C 58 % 1014,6 hPa 0,0 l/m 0,0 km/h (0 Bft) N 0 0 min 0,000 mm 19 W/m -1,7 C 5,9 C 0,0 km/h (0 Bft) 100,00 %
07.01.2012 15:14 5,9 C 58 % 1014,5 hPa 0,0 l/m 0,0 km/h (0 Bft) N 0 0 min 0,000 mm 19 W/m -1,7 C 5,9 C 0,0 km/h (0 Bft) 100,00 %
07.01.2012 15:15 5,9 C 58 % 1014,6 hPa 0,0 l/m 0,0 km/h (0 Bft) N 0 0 min 0,000 mm 19 W/m -1,7 C 5,9 C 0,0 km/h (0 Bft) 100,00 %
07.01.2012 15:16 5,9 C 59 % 1014,5 hPa 0,0 l/m 0,0 km/h (0 Bft) N 0 0 min 0,000 mm 19 W/m -1,5 C 5,9 C 0,0 km/h (0 Bft) 100,00 %
07.01.2012 15:17 5,9 C 59 % 1014,6 hPa 0,0 l/m 0,0 km/h (0 Bft) N 0 0 min 0,000 mm 18 W/m -1,5 C 5,9 C 0,0 km/h (0 Bft) 100,00 %
07.01.2012 15:18 5,9 C 59 % 1014,5 hPa 0,0 l/m 0,0 km/h (0 Bft) N 0 0 min 0,000 mm 16 W/m -1,5 C 5,9 C 0,0 km/h (0 Bft) 100,00 %
07.01.2012 15:19 5,8 C 59 % 1014,6 hPa 0,0 l/m 0,0 km/h (0 Bft) N 0 0 min 0,000 mm 16 W/m -1,6 C 5,8 C 0,0 km/h (0 Bft) 95,65 %
07.01.2012 15:20 5,8 C 59 % 1014,6 hPa 0,0 l/m 0,0 km/h (0 Bft) N 0 0 min 0,000 mm 16 W/m -1,6 C 5,8 C 0,0 km/h (0 Bft) 100,00 %
07.01.2012 15:21 5,8 C 59 % 1014,5 hPa 0,0 l/m 0,0 km/h (0 Bft) N 0 0 min 0,000 mm 16 W/m -1,6 C 5,8 C 0,0 km/h (0 Bft) 100,00 %
07.01.2012 15:22 5,8 C 59 % 1014,5 hPa 0,0 l/m 0,0 km/h (0 Bft) N 0 0 min 0,000 mm 16 W/m -1,6 C 5,8 C 0,0 km/h (0 Bft) 100,00 %
07.01.2012 15:23 5,8 C 59 % 1014,5 hPa 0,0 l/m 0,0 km/h (0 Bft) N 0 0 min 0,000 mm 16 W/m -1,6 C 5,8 C 0,0 km/h (0 Bft) 100,00 %
07.01.2012 15:24 5,8 C 60 % 1014,4 hPa 0,0 l/m 0,0 km/h (0 Bft) N 0 0 min 0,000 mm 16 W/m -1,4 C 5,8 C 0,0 km/h (0 Bft) 100,00 %
07.01.2012 15:25 5,8 C 60 % 1014,4 hPa 0,0 l/m 0,0 km/h (0 Bft) N 0 0 min 0,000 mm 16 W/m -1,4 C 5,8 C 0,0 km/h (0 Bft) 100,00 %
07.01.2012 15:26 5,7 C 60 % 1014,3 hPa 0,0 l/m 0,0 km/h (0 Bft) N 0 0 min 0,000 mm 18 W/m -1,4 C 5,7 C 0,0 km/h (0 Bft) 100,00 %
07.01.2012 15:27 5,7 C 60 % 1014,3 hPa 0,0 l/m 0,0 km/h (0 Bft) N 0 0 min 0,000 mm 18 W/m -1,4 C 5,7 C 0,0 km/h (0 Bft) 100,00 %
07.01.2012 15:28 5,7 C 60 % 1014,2 hPa 0,0 l/m 0,0 km/h (0 Bft) N 0 0 min 0,000 mm 18 W/m -1,4 C 5,7 C 0,0 km/h (0 Bft) 100,00 %
07.01.2012 15:29 5,7 C 60 % 1014,2 hPa 0,0 l/m 0,0 km/h (0 Bft) N 0 0 min 0,000 mm 19 W/m -1,4 C 5,7 C 0,0 km/h (0 Bft) 100,00 %
07.01.2012 15:30 5,7 C 60 % 1014,2 hPa 0,0 l/m 0,0 km/h (0 Bft) N 0 0 min 0,000 mm 19 W/m -1,4 C 5,7 C 0,0 km/h (0 Bft) 100,00 %
07.01.2012 15:31 5,7 C 60 % 1014,2 hPa 0,0 l/m 0,0 km/h (0 Bft) N 0 0 min 0,000 mm 19 W/m -1,4 C 5,7 C 0,0 km/h (0 Bft) 100,00 %
07.01.2012 15:32 5,7 C 60 % 1014,2 hPa 0,0 l/m 0,0 km/h (0 Bft) N 0 0 min 0,000 mm 19 W/m -1,4 C 5,7 C 0,0 km/h (0 Bft) 100,00 %
07.01.2012 15:33 5,7 C 60 % 1014,2 hPa 0,0 l/m 0,0 km/h (0 Bft) N 0 0 min 0,000 mm 19 W/m -1,4 C 5,7 C 0,0 km/h (0 Bft) 100,00 %
07.01.2012 15:34 5,7 C 60 % 1014,2 hPa 0,0 l/m 0,0 km/h (0 Bft) N 0 0 min 0,000 mm 19 W/m -1,4 C 5,7 C 0,0 km/h (0 Bft) 100,00 %
07.01.2012 15:35 5,7 C 60 % 1014,2 hPa 0,0 l/m 0,0 km/h (0 Bft) N 0 0 min 0,000 mm 18 W/m -1,4 C 5,7 C 0,0 km/h (0 Bft) 100,00 %
07.01.2012 15:36 5,7 C 60 % 1014,1 hPa 0,0 l/m 0,0 km/h (0 Bft) N 0 0 min 0,000 mm 16 W/m -1,4 C 5,7 C 0,0 km/h (0 Bft) 100,00 %
07.01.2012 15:37 5,7 C 61 % 1014,2 hPa 0,0 l/m 0,0 km/h (0 Bft) N 0 0 min 0,000 mm 14 W/m -1,2 C 5,7 C 0,0 km/h (0 Bft) 100,00 %
07.01.2012 15:38 5,7 C 61 % 1014,2 hPa 0,0 l/m 0,0 km/h (0 Bft) N 0 0 min 0,000 mm 14 W/m -1,2 C 5,7 C 0,0 km/h (0 Bft) 100,00 %
07.01.2012 15:39 5,7 C 61 % 1014,2 hPa 0,0 l/m 0,0 km/h (0 Bft) N 0 0 min 0,000 mm 12 W/m -1,2 C 5,7 C 0,0 km/h (0 Bft) 100,00 %
07.01.2012 15:40 5,7 C 61 % 1014,2 hPa 0,0 l/m 0,0 km/h (0 Bft) N 0 0 min 0,000 mm 11 W/m -1,2 C 5,7 C 0,0 km/h (0 Bft) 100,00 %
07.01.2012 15:41 5,7 C 61 % 1014,2 hPa 0,0 l/m 0,0 km/h (0 Bft) N 0 0 min 0,000 mm 7 W/m -1,2 C 5,7 C 0,0 km/h (0 Bft) 100,00 %
07.01.2012 15:42 5,7 C 61 % 1014,2 hPa 0,0 l/m 0,0 km/h (0 Bft) N 0 0 min 0,000 mm 7 W/m -1,2 C 5,7 C 0,0 km/h (0 Bft) 100,00 %
07.01.2012 15:43 5,6 C 61 % 1014,2 hPa 0,0 l/m 0,0 km/h (0 Bft) N 0 0 min 0,000 mm 7 W/m -1,3 C 5,6 C 0,0 km/h (0 Bft) 100,00 %
07.01.2012 15:44 5,6 C 61 % 1014,2 hPa 0,0 l/m 0,0 km/h (0 Bft) N 0 0 min 0,000 mm 7 W/m -1,3 C 5,6 C 0,0 km/h (0 Bft) 100,00 %
07.01.2012 15:45 5,6 C 61 % 1014,3 hPa 0,0 l/m 0,0 km/h (0 Bft) N 0 0 min 0,000 mm 7 W/m -1,3 C 5,6 C 0,0 km/h (0 Bft) 100,00 %
07.01.2012 15:46 5,6 C 61 % 1014,1 hPa 0,0 l/m 0,0 km/h (0 Bft) N 0 0 min 0,000 mm 7 W/m -1,3 C 5,6 C 0,0 km/h (0 Bft) 100,00 %
07.01.2012 15:47 5,6 C 61 % 1014,1 hPa 0,0 l/m 0,0 km/h (0 Bft) N 0 0 min 0,000 mm 7 W/m -1,3 C 5,6 C 0,0 km/h (0 Bft) 100,00 %
07.01.2012 15:48 5,6 C 61 % 1014,2 hPa 0,0 l/m 0,0 km/h (0 Bft) N 0 0 min 0,000 mm 7 W/m -1,3 C 5,6 C 0,0 km/h (0 Bft) 100,00 %
07.01.2012 15:49 5,6 C 61 % 1014,2 hPa 0,0 l/m 0,0 km/h (0 Bft) N 0 0 min 0,000 mm 5 W/m -1,3 C 5,6 C 0,0 km/h (0 Bft) 100,00 %
07.01.2012 15:50 5,6 C 61 % 1014,2 hPa 0,0 l/m 0,0 km/h (0 Bft) N 0 0 min 0,000 mm 5 W/m -1,3 C 5,6 C 0,0 km/h (0 Bft) 100,00 %
07.01.2012 15:51 5,6 C 61 % 1014,2 hPa 0,0 l/m 0,0 km/h (0 Bft) N 0 0 min 0,000 mm 5 W/m -1,3 C 5,6 C 0,0 km/h (0 Bft) 100,00 %
07.01.2012 15:52 5,6 C 61 % 1014,1 hPa 0,0 l/m 0,0 km/h (0 Bft) N 0 0 min 0,000 mm 5 W/m -1,3 C 5,6 C 0,0 km/h (0 Bft) 100,00 %
07.01.2012 15:53 5,6 C 60 % 1014,1 hPa 0,0 l/m 0,0 km/h (0 Bft) N 0 0 min 0,000 mm 5 W/m -1,5 C 5,6 C 0,0 km/h (0 Bft) 100,00 %
07.01.2012 15:54 5,6 C 60 % 1014,1 hPa 0,0 l/m 12,9 km/h (3 Bft) S-SW 202 0 min 0,000 mm 5 W/m -1,5 C 0,9 C 20,9 km/h (4 Bft) 100,00 %
07.01.2012 15:55 5,7 C 60 % 1014,1 hPa 0,0 l/m 9,7 km/h (2 Bft) S 180 0 min 0,000 mm 5 W/m -1,4 C 3,1 C 16,1 km/h (3 Bft) 100,00 %
07.01.2012 15:56 5,7 C 60 % 1014,0 hPa 0,0 l/m 6,4 km/h (2 Bft) S 180 0 min 0,000 mm 0 W/m -1,4 C 5,7 C 9,7 km/h (2 Bft) 100,00 %
07.01.2012 15:57 5,8 C 59 % 1014,0 hPa 0,0 l/m 8,0 km/h (2 Bft) S-SW 202 0 min 0,000 mm 0 W/m -1,6 C 4,4 C 11,3 km/h (2 Bft) 100,00 %
07.01.2012 15:58 5,8 C 60 % 1014,0 hPa 0,0 l/m 6,4 km/h (2 Bft) S-SW 202 0 min 0,000 mm 0 W/m -1,4 C 5,8 C 11,3 km/h (2 Bft) 100,00 %
07.01.2012 15:59 5,9 C 60 % 1014,0 hPa 0,0 l/m 6,4 km/h (2 Bft) S-SW 202 0 min 0,000 mm 0 W/m -1,3 C 5,9 C 9,7 km/h (2 Bft) 100,00 %
07.01.2012 16:00 5,9 C 60 % 1014,0 hPa 0,0 l/m 6,4 km/h (2 Bft) SW 225 0 min 0,025 mm 0 W/m -1,3 C 5,9 C 9,7 km/h (2 Bft) 100,00 %
07.01.2012 16:01 5,9 C 60 % 1014,0 hPa 0,0 l/m 6,4 km/h (2 Bft) SW 225 0 min 0,000 mm 0 W/m -1,3 C 5,9 C 12,9 km/h (3 Bft) 100,00 %
07.01.2012 16:02 5,9 C 59 % 1014,0 hPa 0,0 l/m 6,4 km/h (2 Bft) SW 225 0 min 0,000 mm 0 W/m -1,5 C 5,9 C 9,7 km/h (2 Bft) 100,00 %
07.01.2012 16:03 5,9 C 59 % 1014,0 hPa 0,0 l/m 4,8 km/h (1 Bft) SW 225 0 min 0,000 mm 0 W/m -1,5 C 5,9 C 8,0 km/h (2 Bft) 100,00 %
07.01.2012 16:04 5,9 C 59 % 1014,0 hPa 0,0 l/m 6,4 km/h (2 Bft) SW 225 0 min 0,000 mm 0 W/m -1,5 C 5,9 C 9,7 km/h (2 Bft) 100,00 %
07.01.2012 16:05 5,9 C 59 % 1014,0 hPa 0,0 l/m 6,4 km/h (2 Bft) SW 225 0 min 0,000 mm 0 W/m -1,5 C 5,9 C 8,0 km/h (2 Bft) 100,00 %
07.01.2012 16:06 5,9 C 59 % 1014,0 hPa 0,0 l/m 4,8 km/h (1 Bft) S-SW 202 0 min 0,000 mm 0 W/m -1,5 C 5,9 C 9,7 km/h (2 Bft) 100,00 %
07.01.2012 16:07 5,9 C 59 % 1014,1 hPa 0,0 l/m 4,8 km/h (1 Bft) S-SW 202 0 min 0,000 mm 0 W/m -1,5 C 5,9 C 9,7 km/h (2 Bft) 100,00 %
07.01.2012 16:08 5,9 C 60 % 1014,1 hPa 0,0 l/m 3,2 km/h (1 Bft) S-SW 202 0 min 0,000 mm 0 W/m -1,3 C 5,9 C 9,7 km/h (2 Bft) 100,00 %
07.01.2012 16:09 5,9 C 60 % 1014,1 hPa 0,0 l/m 4,8 km/h (1 Bft) S-SW 202 0 min 0,000 mm 0 W/m -1,3 C 5,9 C 9,7 km/h (2 Bft) 100,00 %
07.01.2012 16:10 5,9 C 59 % 1014,1 hPa 0,0 l/m 3,2 km/h (1 Bft) S-SW 202 0 min 0,000 mm 0 W/m -1,5 C 5,9 C 6,4 km/h (2 Bft) 100,00 %
07.01.2012 16:11 5,9 C 59 % 1014,1 hPa 0,0 l/m 6,4 km/h (2 Bft) S-SW 202 0 min 0,000 mm 0 W/m -1,5 C 5,9 C 8,0 km/h (2 Bft) 100,00 %
07.01.2012 16:12 5,9 C 58 % 1014,1 hPa 0,0 l/m 4,8 km/h (1 Bft) S-SW 202 0 min 0,000 mm 0 W/m -1,7 C 5,9 C 8,0 km/h (2 Bft) 100,00 %
07.01.2012 16:13 5,9 C 59 % 1014,1 hPa 0,0 l/m 1,6 km/h (1 Bft) S-SW 202 0 min 0,000 mm 0 W/m -1,5 C 5,9 C 4,8 km/h (1 Bft) 100,00 %
07.01.2012 16:14 5,9 C 59 % 1014,1 hPa 0,0 l/m 1,6 km/h (1 Bft) S-SW 202 0 min 0,000 mm 0 W/m -1,5 C 5,9 C 8,0 km/h (2 Bft) 100,00 %
07.01.2012 16:15 5,9 C 59 % 1014,1 hPa 0,0 l/m 1,6 km/h (1 Bft) S-SW 202 0 min 0,000 mm 0 W/m -1,5 C 5,9 C 4,8 km/h (1 Bft) 100,00 %
07.01.2012 16:16 5,9 C 59 % 1014,1 hPa 0,0 l/m 3,2 km/h (1 Bft) S-SW 202 0 min 0,000 mm 0 W/m -1,5 C 5,9 C 6,4 km/h (2 Bft) 100,00 %
07.01.2012 16:17 5,9 C 59 % 1014,1 hPa 0,0 l/m 3,2 km/h (1 Bft) S-SW 202 0 min 0,000 mm 0 W/m -1,5 C 5,9 C 4,8 km/h (1 Bft) 100,00 %
07.01.2012 16:18 5,9 C 59 % 1014,1 hPa 0,0 l/m 1,6 km/h (1 Bft) S-SW 202 0 min 0,000 mm 0 W/m -1,5 C 5,9 C 3,2 km/h (1 Bft) 100,00 %
07.01.2012 16:19 5,9 C 59 % 1014,0 hPa 0,0 l/m 0,0 km/h (0 Bft) S-SW 202 0 min 0,000 mm 0 W/m -1,5 C 5,9 C 1,6 km/h (1 Bft) 100,00 %
07.01.2012 16:20 5,9 C 59 % 1014,0 hPa 0,0 l/m 0,0 km/h (0 Bft) N 0 0 min 0,000 mm 0 W/m -1,5 C 5,9 C 0,0 km/h (0 Bft) 100,00 %
07.01.2012 16:21 5,8 C 59 % 1014,1 hPa 0,0 l/m 1,6 km/h (1 Bft) S-SW 202 0 min 0,000 mm 0 W/m -1,6 C 5,8 C 8,0 km/h (2 Bft) 100,00 %
07.01.2012 16:22 5,8 C 60 % 1014,1 hPa 0,0 l/m 6,4 km/h (2 Bft) S-SW 202 0 min 0,000 mm 0 W/m -1,4 C 5,8 C 8,0 km/h (2 Bft) 100,00 %
07.01.2012 16:23 5,8 C 59 % 1014,1 hPa 0,0 l/m 4,8 km/h (1 Bft) S-SW 202 0 min 0,000 mm 0 W/m -1,6 C 5,8 C 6,4 km/h (2 Bft) 100,00 %
07.01.2012 16:24 5,8 C 60 % 1014,1 hPa 0,0 l/m 3,2 km/h (1 Bft) S-SW 202 0 min 0,000 mm 0 W/m -1,4 C 5,8 C 6,4 km/h (2 Bft) 100,00 %
07.01.2012 16:25 5,8 C 60 % 1014,0 hPa 0,0 l/m 3,2 km/h (1 Bft) S-SW 202 0 min 0,000 mm 0 W/m -1,4 C 5,8 C 8,0 km/h (2 Bft) 100,00 %
07.01.2012 16:26 5,8 C 60 % 1014,1 hPa 0,0 l/m 4,8 km/h (1 Bft) S 180 0 min 0,000 mm 0 W/m -1,4 C 5,8 C 9,7 km/h (2 Bft) 100,00 %
07.01.2012 16:27 5,7 C 60 % 1014,1 hPa 0,0 l/m 1,6 km/h (1 Bft) S 180 0 min 0,000 mm 0 W/m -1,4 C 5,7 C 6,4 km/h (2 Bft) 100,00 %
07.01.2012 16:28 5,7 C 61 % 1014,1 hPa 0,0 l/m 4,8 km/h (1 Bft) S 180 0 min 0,000 mm 0 W/m -1,2 C 5,7 C 9,7 km/h (2 Bft) 100,00 %
07.01.2012 16:29 5,7 C 61 % 1014,1 hPa 0,0 l/m 1,6 km/h (1 Bft) S-SO 157 0 min 0,000 mm 0 W/m -1,2 C 5,7 C 6,4 km/h (2 Bft) 100,00 %
07.01.2012 16:30 5,7 C 61 % 1014,1 hPa 0,0 l/m 1,6 km/h (1 Bft) S-SO 157 0 min 0,000 mm 0 W/m -1,2 C 5,7 C 6,4 km/h (2 Bft) 100,00 %
07.01.2012 16:31 5,7 C 61 % 1014,2 hPa 0,0 l/m 4,8 km/h (1 Bft) S-SO 157 0 min 0,000 mm 0 W/m -1,2 C 5,7 C 11,3 km/h (2 Bft) 100,00 %
07.01.2012 16:32 5,7 C 61 % 1014,1 hPa 0,0 l/m 1,6 km/h (1 Bft) S-SO 157 0 min 0,000 mm 0 W/m -1,2 C 5,7 C 6,4 km/h (2 Bft) 100,00 %
07.01.2012 16:33 5,7 C 62 % 1014,1 hPa 0,0 l/m 3,2 km/h (1 Bft) S-SO 157 0 min 0,000 mm 0 W/m -1,0 C 5,7 C 6,4 km/h (2 Bft) 100,00 %
07.01.2012 16:34 5,7 C 62 % 1014,1 hPa 0,0 l/m 4,8 km/h (1 Bft) S-SO 157 0 min 0,000 mm 0 W/m -1,0 C 5,7 C 9,7 km/h (2 Bft) 100,00 %
07.01.2012 16:35 5,7 C 62 % 1014,1 hPa 0,0 l/m 4,8 km/h (1 Bft) S 180 0 min 0,000 mm 0 W/m -1,0 C 5,7 C 16,1 km/h (3 Bft) 100,00 %
07.01.2012 16:36 5,7 C 61 % 1014,1 hPa 0,0 l/m 1,6 km/h (1 Bft) S 180 0 min 0,000 mm 0 W/m -1,2 C 5,7 C 6,4 km/h (2 Bft) 100,00 %
07.01.2012 16:37 5,7 C 61 % 1014,1 hPa 0,0 l/m 3,2 km/h (1 Bft) S 180 0 min 0,000 mm 0 W/m -1,2 C 5,7 C 8,0 km/h (2 Bft) 100,00 %
07.01.2012 16:38 5,8 C 61 % 1014,1 hPa 0,0 l/m 3,2 km/h (1 Bft) S 180 0 min 0,000 mm 0 W/m -1,1 C 5,8 C 8,0 km/h (2 Bft) 100,00 %
07.01.2012 16:39 5,8 C 62 % 1014,1 hPa 0,0 l/m 12,9 km/h (3 Bft) S-SW 202 0 min 0,000 mm 0 W/m -0,9 C 1,2 C 19,3 km/h (3 Bft) 100,00 %
07.01.2012 16:40 5,8 C 62 % 1014,1 hPa 0,0 l/m 11,3 km/h (2 Bft) S-SW 202 0 min 0,000 mm 0 W/m -0,9 C 2,1 C 19,3 km/h (3 Bft) 100,00 %
07.01.2012 16:41 5,7 C 62 % 1014,1 hPa 0,0 l/m 11,3 km/h (2 Bft) SW 225 0 min 0,000 mm 0 W/m -1,0 C 2,0 C 14,5 km/h (3 Bft) 100,00 %
07.01.2012 16:42 5,8 C 62 % 1014,1 hPa 0,0 l/m 8,0 km/h (2 Bft) S-SW 202 0 min 0,000 mm 0 W/m -0,9 C 4,4 C 9,7 km/h (2 Bft) 100,00 %
07.01.2012 16:43 5,7 C 63 % 1014,0 hPa 0,0 l/m 3,2 km/h (1 Bft) S-SW 202 0 min 0,000 mm 0 W/m -0,8 C 5,7 C 6,4 km/h (2 Bft) 100,00 %
07.01.2012 16:44 5,8 C 63 % 1014,0 hPa 0,0 l/m 0,0 km/h (0 Bft) S-SW 202 0 min 0,000 mm 0 W/m -0,7 C 5,8 C 1,6 km/h (1 Bft) 100,00 %
07.01.2012 16:45 5,8 C 63 % 1013,9 hPa 0,0 l/m 6,4 km/h (2 Bft) S-SW 202 0 min 0,000 mm 0 W/m -0,7 C 5,8 C 11,3 km/h (2 Bft) 100,00 %
07.01.2012 16:46 5,8 C 63 % 1013,9 hPa 0,0 l/m 3,2 km/h (1 Bft) S-SW 202 0 min 0,000 mm 0 W/m -0,7 C 5,8 C 8,0 km/h (2 Bft) 100,00 %
07.01.2012 16:47 5,8 C 63 % 1013,9 hPa 0,0 l/m 1,6 km/h (1 Bft) S-SW 202 0 min 0,000 mm 0 W/m -0,7 C 5,8 C 4,8 km/h (1 Bft) 100,00 %
07.01.2012 16:48 5,7 C 64 % 1013,9 hPa 0,0 l/m 3,2 km/h (1 Bft) S-SW 202 0 min 0,000 mm 0 W/m -0,6 C 5,7 C 6,4 km/h (2 Bft) 100,00 %
07.01.2012 16:49 5,7 C 64 % 1013,9 hPa 0,0 l/m 1,6 km/h (1 Bft) S-SW 202 0 min 0,000 mm 0 W/m -0,6 C 5,7 C 8,0 km/h (2 Bft) 100,00 %
07.01.2012 16:50 5,7 C 64 % 1013,9 hPa 0,0 l/m 4,8 km/h (1 Bft) S-SW 202 0 min 0,000 mm 0 W/m -0,6 C 5,7 C 11,3 km/h (2 Bft) 100,00 %
07.01.2012 16:51 5,6 C 65 % 1013,9 hPa 0,0 l/m 4,8 km/h (1 Bft) S 180 0 min 0,000 mm 0 W/m -0,4 C 5,6 C 11,3 km/h (2 Bft) 100,00 %
07.01.2012 16:52 5,6 C 65 % 1013,9 hPa 0,0 l/m 6,4 km/h (2 Bft) S 180 0 min 0,000 mm 0 W/m -0,4 C 5,6 C 9,7 km/h (2 Bft) 100,00 %
07.01.2012 16:53 5,6 C 65 % 1013,9 hPa 0,0 l/m 3,2 km/h (1 Bft) S-SW 202 0 min 0,000 mm 0 W/m -0,4 C 5,6 C 9,7 km/h (2 Bft) 100,00 %
07.01.2012 16:54 5,5 C 65 % 1013,9 hPa 0,0 l/m 3,2 km/h (1 Bft) S-SW 202 0 min 0,000 mm 0 W/m -0,5 C 5,5 C 9,7 km/h (2 Bft) 100,00 %
07.01.2012 16:55 5,5 C 65 % 1013,8 hPa 0,0 l/m 8,0 km/h (2 Bft) S 180 0 min 0,000 mm 0 W/m -0,5 C 4,1 C 12,9 km/h (3 Bft) 100,00 %
07.01.2012 16:56 5,5 C 65 % 1013,8 hPa 0,0 l/m 4,8 km/h (1 Bft) S 180 0 min 0,000 mm 0 W/m -0,5 C 5,5 C 8,0 km/h (2 Bft) 100,00 %
07.01.2012 16:57 5,5 C 65 % 1013,9 hPa 0,0 l/m 0,0 km/h (0 Bft) S 180 0 min 0,000 mm 0 W/m -0,5 C 5,5 C 1,6 km/h (1 Bft) 100,00 %
07.01.2012 16:58 5,6 C 65 % 1013,9 hPa 0,0 l/m 0,0 km/h (0 Bft) S 180 0 min 0,000 mm 0 W/m -0,4 C 5,6 C 1,6 km/h (1 Bft) 100,00 %
07.01.2012 16:59 5,5 C 65 % 1013,9 hPa 0,0 l/m 3,2 km/h (1 Bft) S 180 0 min 0,000 mm 0 W/m -0,5 C 5,5 C 6,4 km/h (2 Bft) 100,00 %
07.01.2012 17:00 5,5 C 65 % 1013,9 hPa 0,0 l/m 6,4 km/h (2 Bft) S 180 0 min 0,025 mm 0 W/m -0,5 C 5,5 C 8,0 km/h (2 Bft) 100,00 %
07.01.2012 17:01 5,5 C 66 % 1013,9 hPa 0,0 l/m 1,6 km/h (1 Bft) S 180 0 min 0,000 mm 0 W/m -0,3 C 5,5 C 3,2 km/h (1 Bft) 100,00 %
07.01.2012 17:02 5,4 C 66 % 1013,9 hPa 0,0 l/m 3,2 km/h (1 Bft) S 180 0 min 0,000 mm 0 W/m -0,4 C 5,4 C 8,0 km/h (2 Bft) 100,00 %
07.01.2012 17:03 5,4 C 66 % 1013,9 hPa 0,0 l/m 1,6 km/h (1 Bft) S 180 0 min 0,000 mm 0 W/m -0,4 C 5,4 C 3,2 km/h (1 Bft) 100,00 %
07.01.2012 17:04 5,4 C 67 % 1014,0 hPa 0,0 l/m 0,0 km/h (0 Bft) S 180 0 min 0,000 mm 0 W/m -0,2 C 5,4 C 3,2 km/h (1 Bft) 100,00 %
07.01.2012 17:05 5,3 C 67 % 1014,0 hPa 0,0 l/m 0,0 km/h (0 Bft) S 180 0 min 0,000 mm 0 W/m -0,3 C 5,3 C 1,6 km/h (1 Bft) 100,00 %
07.01.2012 17:06 5,3 C 68 % 1014,0 hPa 0,0 l/m 0,0 km/h (0 Bft) S 180 0 min 0,000 mm 0 W/m -0,1 C 5,3 C 1,6 km/h (1 Bft) 100,00 %
07.01.2012 17:07 5,2 C 68 % 1014,0 hPa 0,0 l/m 0,0 km/h (0 Bft) N 0 0 min 0,000 mm 0 W/m -0,2 C 5,2 C 0,0 km/h (0 Bft) 100,00 %
07.01.2012 17:08 5,2 C 69 % 1014,0 hPa 0,0 l/m 0,0 km/h (0 Bft) S 180 0 min 0,000 mm 0 W/m -0,0 C 5,2 C 4,8 km/h (1 Bft) 100,00 %
07.01.2012 17:09 5,2 C 69 % 1014,0 hPa 0,0 l/m 0,0 km/h (0 Bft) S 180 0 min 0,000 mm 0 W/m -0,0 C 5,2 C 3,2 km/h (1 Bft) 100,00 %
07.01.2012 17:10 5,1 C 70 % 1014,0 hPa 0,0 l/m 1,6 km/h (1 Bft) S 180 0 min 0,000 mm 0 W/m 0,1 C 5,1 C 6,4 km/h (2 Bft) 100,00 %
07.01.2012 17:11 5,1 C 71 % 1014,0 hPa 0,0 l/m 0,0 km/h (0 Bft) S 180 0 min 0,000 mm 0 W/m 0,3 C 5,1 C 3,2 km/h (1 Bft) 100,00 %
07.01.2012 17:12 4,9 C 71 % 1014,0 hPa 0,0 l/m 1,6 km/h (1 Bft) S 180 0 min 0,000 mm 0 W/m 0,1 C 4,9 C 8,0 km/h (2 Bft) 100,00 %
07.01.2012 17:13 4,9 C 72 % 1014,0 hPa 0,0 l/m 3,2 km/h (1 Bft) S 180 0 min 0,000 mm 0 W/m 0,3 C 4,9 C 8,0 km/h (2 Bft) 100,00 %
07.01.2012 17:14 4,8 C 76 % 1014,0 hPa 0,0 l/m 8,0 km/h (2 Bft) S-SW 202 0 min 0,000 mm 0 W/m 0,9 C 3,4 C 22,5 km/h (4 Bft) 100,00 %
07.01.2012 17:15 4,8 C 73 % 1014,1 hPa 0,0 l/m 14,5 km/h (3 Bft) S-SW 202 0 min 0,000 mm 0 W/m 0,4 C -0,9 C 22,5 km/h (4 Bft) 100,00 %
07.01.2012 17:16 4,7 C 74 % 1014,1 hPa 0,0 l/m 14,5 km/h (3 Bft) S-SW 202 0 min 0,000 mm 0 W/m 0,5 C -1,0 C 27,4 km/h (4 Bft) 100,00 %
07.01.2012 17:17 4,7 C 75 % 1014,1 hPa 0,0 l/m 8,0 km/h (2 Bft) S-SW 202 0 min 0,000 mm 0 W/m 0,7 C 3,3 C 11,3 km/h (2 Bft) 100,00 %
07.01.2012 17:18 4,6 C 76 % 1014,1 hPa 0,3 l/m 9,7 km/h (2 Bft) S 180 0 min 0,000 mm 0 W/m 0,7 C 1,8 C 16,1 km/h (3 Bft) 100,00 %
07.01.2012 17:19 4,4 C 76 % 1014,1 hPa 0,0 l/m 11,3 km/h (2 Bft) S-SW 202 0 min 0,000 mm 0 W/m 0,5 C 0,5 C 16,1 km/h (3 Bft) 100,00 %
07.01.2012 17:20 4,4 C 77 % 1014,1 hPa 0,0 l/m 8,0 km/h (2 Bft) S 180 0 min 0,000 mm 0 W/m 0,7 C 3,0 C 16,1 km/h (3 Bft) 100,00 %
07.01.2012 17:21 4,3 C 78 % 1014,0 hPa 0,0 l/m 4,8 km/h (1 Bft) S-SW 202 0 min 0,000 mm 0 W/m 0,8 C 4,3 C 9,7 km/h (2 Bft) 100,00 %
07.01.2012 17:22 4,2 C 78 % 1014,1 hPa 0,0 l/m 11,3 km/h (2 Bft) S-SW 202 0 min 0,000 mm 0 W/m 0,7 C 0,3 C 17,7 km/h (3 Bft) 100,00 %
07.01.2012 17:23 4,1 C 79 % 1014,0 hPa 0,0 l/m 8,0 km/h (2 Bft) S-SW 202 0 min 0,000 mm 0 W/m 0,8 C 2,7 C 9,7 km/h (2 Bft) 100,00 %
07.01.2012 17:24 4,1 C 80 % 1014,0 hPa 0,0 l/m 8,0 km/h (2 Bft) S-SW 202 0 min 0,000 mm 0 W/m 1,0 C 2,7 C 14,5 km/h (3 Bft) 100,00 %
07.01.2012 17:25 4,1 C 80 % 1014,0 hPa 0,0 l/m 9,7 km/h (2 Bft) S-SW 202 0 min 0,000 mm 0 W/m 1,0 C 1,3 C 17,7 km/h (3 Bft) 100,00 %
07.01.2012 17:26 4,0 C 80 % 1014,0 hPa 0,0 l/m 8,0 km/h (2 Bft) S-SW 202 0 min 0,000 mm 0 W/m 0,9 C 2,6 C 14,5 km/h (3 Bft) 100,00 %
07.01.2012 17:27 3,9 C 80 % 1014,0 hPa 0,3 l/m 9,7 km/h (2 Bft) S-SW 202 0 min 0,000 mm 0 W/m 0,8 C 1,1 C 19,3 km/h (3 Bft) 100,00 %
07.01.2012 17:28 3,9 C 81 % 1014,0 hPa 0,0 l/m 6,4 km/h (2 Bft) SW 225 0 min 0,000 mm 0 W/m 0,9 C 3,9 C 11,3 km/h (2 Bft) 100,00 %
07.01.2012 17:29 3,8 C 81 % 1013,9 hPa 0,0 l/m 9,7 km/h (2 Bft) S-SW 202 0 min 0,000 mm 0 W/m 0,8 C 1,0 C 12,9 km/h (3 Bft) 100,00 %
07.01.2012 17:30 3,8 C 81 % 1014,0 hPa 0,0 l/m 4,8 km/h (1 Bft) S-SW 202 0 min 0,000 mm 0 W/m 0,8 C 3,8 C 8,0 km/h (2 Bft) 100,00 %
07.01.2012 17:31 3,7 C 81 % 1014,0 hPa 0,0 l/m 4,8 km/h (1 Bft) S 180 0 min 0,000 mm 0 W/m 0,7 C 3,7 C 8,0 km/h (2 Bft) 100,00 %
07.01.2012 17:32 3,7 C 82 % 1014,0 hPa 0,0 l/m 6,4 km/h (2 Bft) S 180 0 min 0,000 mm 0 W/m 0,9 C 3,7 C 17,7 km/h (3 Bft) 100,00 %
07.01.2012 17:33 3,6 C 82 % 1013,9 hPa 0,0 l/m 11,3 km/h (2 Bft) S-SW 202 0 min 0,000 mm 0 W/m 0,8 C -0,4 C 19,3 km/h (3 Bft) 100,00 %
07.01.2012 17:34 3,6 C 82 % 1013,9 hPa 0,3 l/m 3,2 km/h (1 Bft) S-SW 202 0 min 0,000 mm 0 W/m 0,8 C 3,6 C 12,9 km/h (3 Bft) 100,00 %
07.01.2012 17:35 3,6 C 83 % 1013,9 hPa 0,0 l/m 4,8 km/h (1 Bft) S 180 0 min 0,000 mm 0 W/m 1,0 C 3,6 C 17,7 km/h (3 Bft) 100,00 %
07.01.2012 17:36 3,4 C 83 % 1013,8 hPa 0,0 l/m 1,6 km/h (1 Bft) S 180 0 min 0,000 mm 0 W/m 0,8 C 3,4 C 4,8 km/h (1 Bft) 100,00 %
07.01.2012 17:37 3,4 C 83 % 1013,9 hPa 0,0 l/m 4,8 km/h (1 Bft) S-SO 157 0 min 0,000 mm 0 W/m 0,8 C 3,4 C 9,7 km/h (2 Bft) 100,00 %
07.01.2012 17:38 3,4 C 83 % 1013,8 hPa 0,0 l/m 6,4 km/h (2 Bft) S-SW 202 0 min 0,000 mm 0 W/m 0,8 C 3,4 C 16,1 km/h (3 Bft) 100,00 %
07.01.2012 17:39 3,4 C 83 % 1013,7 hPa 0,0 l/m 4,8 km/h (1 Bft) S-SW 202 0 min 0,000 mm 0 W/m 0,8 C 3,4 C 16,1 km/h (3 Bft) 100,00 %
07.01.2012 17:40 3,3 C 84 % 1013,7 hPa 0,0 l/m 3,2 km/h (1 Bft) S-SW 202 0 min 0,000 mm 0 W/m 0,9 C 3,3 C 4,8 km/h (1 Bft) 100,00 %
07.01.2012 17:41 3,3 C 84 % 1013,7 hPa 0,0 l/m 6,4 km/h (2 Bft) S 180 0 min 0,000 mm 0 W/m 0,9 C 3,3 C 11,3 km/h (2 Bft) 100,00 %
07.01.2012 17:42 3,3 C 84 % 1013,7 hPa 0,3 l/m 1,6 km/h (1 Bft) S 180 0 min 0,000 mm 0 W/m 0,9 C 3,3 C 4,8 km/h (1 Bft) 100,00 %
07.01.2012 17:43 3,2 C 84 % 1013,7 hPa 0,0 l/m 1,6 km/h (1 Bft) S 180 0 min 0,000 mm 0 W/m 0,8 C 3,2 C 4,8 km/h (1 Bft) 100,00 %
07.01.2012 17:44 3,2 C 84 % 1013,7 hPa 0,0 l/m 0,0 km/h (0 Bft) S 180 0 min 0,000 mm 0 W/m 0,8 C 3,2 C 3,2 km/h (1 Bft) 100,00 %
07.01.2012 17:45 3,2 C 84 % 1013,7 hPa 0,0 l/m 1,6 km/h (1 Bft) S 180 0 min 0,000 mm 0 W/m 0,8 C 3,2 C 4,8 km/h (1 Bft) 100,00 %
07.01.2012 17:46 3,2 C 85 % 1013,7 hPa 0,0 l/m 4,8 km/h (1 Bft) S 180 0 min 0,000 mm 0 W/m 0,9 C 3,2 C 16,1 km/h (3 Bft) 100,00 %
07.01.2012 17:47 3,1 C 85 % 1013,6 hPa 0,0 l/m 3,2 km/h (1 Bft) SW 225 0 min 0,000 mm 0 W/m 0,8 C 3,1 C 9,7 km/h (2 Bft) 100,00 %
07.01.2012 17:48 3,1 C 85 % 1013,6 hPa 0,0 l/m 1,6 km/h (1 Bft) SW 225 0 min 0,000 mm 0 W/m 0,8 C 3,1 C 4,8 km/h (1 Bft) 100,00 %
07.01.2012 17:49 3,1 C 85 % 1013,6 hPa 0,0 l/m 1,6 km/h (1 Bft) S-SW 202 0 min 0,000 mm 0 W/m 0,8 C 3,1 C 6,4 km/h (2 Bft) 100,00 %
07.01.2012 17:50 3,1 C 86 % 1013,6 hPa 0,0 l/m 1,6 km/h (1 Bft) S 180 0 min 0,000 mm 0 W/m 1,0 C 3,1 C 9,7 km/h (2 Bft) 100,00 %
07.01.2012 17:51 3,0 C 86 % 1013,6 hPa 0,0 l/m 4,8 km/h (1 Bft) S 180 0 min 0,000 mm 0 W/m 0,9 C 3,0 C 9,7 km/h (2 Bft) 100,00 %
07.01.2012 17:52 2,9 C 86 % 1013,6 hPa 0,0 l/m 1,6 km/h (1 Bft) S 180 0 min 0,000 mm 0 W/m 0,8 C 2,9 C 4,8 km/h (1 Bft) 100,00 %
07.01.2012 17:53 2,9 C 86 % 1013,6 hPa 0,3 l/m 0,0 km/h (0 Bft) N 0 0 min 0,000 mm 0 W/m 0,8 C 2,9 C 0,0 km/h (0 Bft) 100,00 %
07.01.2012 17:54 2,9 C 86 % 1013,5 hPa 0,0 l/m 0,0 km/h (0 Bft) S 180 0 min 0,000 mm 0 W/m 0,8 C 2,9 C 3,2 km/h (1 Bft) 100,00 %
07.01.2012 17:55 2,8 C 87 % 1013,5 hPa 0,0 l/m 1,6 km/h (1 Bft) S 180 0 min 0,000 mm 0 W/m 0,9 C 2,8 C 8,0 km/h (2 Bft) 100,00 %
07.01.2012 17:56 2,8 C 87 % 1013,5 hPa 0,0 l/m 3,2 km/h (1 Bft) S 180 0 min 0,000 mm 0 W/m 0,9 C 2,8 C 6,4 km/h (2 Bft) 100,00 %
07.01.2012 17:57 2,8 C 87 % 1013,5 hPa 0,0 l/m 1,6 km/h (1 Bft) S 180 0 min 0,000 mm 0 W/m 0,9 C 2,8 C 4,8 km/h (1 Bft) 100,00 %
07.01.2012 17:58 2,8 C 87 % 1013,5 hPa 0,0 l/m 0,0 km/h (0 Bft) S 180 0 min 0,000 mm 0 W/m 0,9 C 2,8 C 1,6 km/h (1 Bft) 100,00 %
07.01.2012 17:59 2,7 C 87 % 1013,4 hPa 0,0 l/m 0,0 km/h (0 Bft) S 180 0 min 0,000 mm 0 W/m 0,8 C 2,7 C 1,6 km/h (1 Bft) 95,65 %
07.01.2012 18:00 2,7 C 87 % 1013,4 hPa 0,3 l/m 1,6 km/h (1 Bft) S 180 0 min 0,025 mm 0 W/m 0,8 C 2,7 C 6,4 km/h (2 Bft) 100,00 %
07.01.2012 18:01 2,7 C 87 % 1013,4 hPa 0,0 l/m 0,0 km/h (0 Bft) N 0 0 min 0,000 mm 0 W/m 0,8 C 2,7 C 0,0 km/h (0 Bft) 100,00 %
07.01.2012 18:02 2,7 C 88 % 1013,4 hPa 0,0 l/m 3,2 km/h (1 Bft) S 180 0 min 0,000 mm 0 W/m 0,9 C 2,7 C 9,7 km/h (2 Bft) 100,00 %
07.01.2012 18:03 2,6 C 88 % 1013,3 hPa 0,0 l/m 1,6 km/h (1 Bft) S 180 0 min 0,000 mm 0 W/m 0,8 C 2,6 C 6,4 km/h (2 Bft) 100,00 %
07.01.2012 18:04 2,6 C 88 % 1013,3 hPa 0,0 l/m 1,6 km/h (1 Bft) S 180 0 min 0,000 mm 0 W/m 0,8 C 2,6 C 4,8 km/h (1 Bft) 100,00 %
07.01.2012 18:05 2,6 C 88 % 1013,4 hPa 0,0 l/m 0,0 km/h (0 Bft) N 0 0 min 0,000 mm 0 W/m 0,8 C 2,6 C 0,0 km/h (0 Bft) 100,00 %
07.01.2012 18:06 2,6 C 88 % 1013,3 hPa 0,0 l/m 0,0 km/h (0 Bft) N 0 0 min 0,000 mm 0 W/m 0,8 C 2,6 C 0,0 km/h (0 Bft) 100,00 %
07.01.2012 18:07 2,6 C 88 % 1013,3 hPa 0,0 l/m 0,0 km/h (0 Bft) S 180 0 min 0,000 mm 0 W/m 0,8 C 2,6 C 3,2 km/h (1 Bft) 100,00 %
07.01.2012 18:08 2,6 C 88 % 1013,2 hPa 0,0 l/m 1,6 km/h (1 Bft) S 180 0 min 0,000 mm 0 W/m 0,8 C 2,6 C 4,8 km/h (1 Bft) 100,00 %
07.01.2012 18:09 2,6 C 89 % 1013,2 hPa 0,0 l/m 1,6 km/h (1 Bft) S 180 0 min 0,000 mm 0 W/m 1,0 C 2,6 C 4,8 km/h (1 Bft) 100,00 %
07.01.2012 18:10 2,6 C 89 % 1013,2 hPa 0,0 l/m 1,6 km/h (1 Bft) S 180 0 min 0,000 mm 0 W/m 1,0 C 2,6 C 4,8 km/h (1 Bft) 100,00 %
07.01.2012 18:11 2,5 C 89 % 1013,2 hPa 0,0 l/m 0,0 km/h (0 Bft) S 180 0 min 0,000 mm 0 W/m 0,9 C 2,5 C 4,8 km/h (1 Bft) 100,00 %
07.01.2012 18:12 2,5 C 89 % 1013,2 hPa 0,0 l/m 0,0 km/h (0 Bft) N 0 0 min 0,000 mm 0 W/m 0,9 C 2,5 C 0,0 km/h (0 Bft) 100,00 %
07.01.2012 18:13 2,5 C 89 % 1013,2 hPa 0,0 l/m 0,0 km/h (0 Bft) S 180 0 min 0,000 mm 0 W/m 0,9 C 2,5 C 4,8 km/h (1 Bft) 100,00 %
07.01.2012 18:14 2,5 C 89 % 1013,2 hPa 0,0 l/m 0,0 km/h (0 Bft) N 0 0 min 0,000 mm 0 W/m 0,9 C 2,5 C 0,0 km/h (0 Bft) 100,00 %
07.01.2012 18:15 2,5 C 89 % 1013,3 hPa 0,0 l/m 0,0 km/h (0 Bft) N 0 0 min 0,000 mm 0 W/m 0,9 C 2,5 C 0,0 km/h (0 Bft) 100,00 %
07.01.2012 18:16 2,5 C 89 % 1013,2 hPa 0,0 l/m 0,0 km/h (0 Bft) N 0 0 min 0,000 mm 0 W/m 0,9 C 2,5 C 0,0 km/h (0 Bft) 100,00 %
07.01.2012 18:17 2,5 C 89 % 1013,2 hPa 0,0 l/m 0,0 km/h (0 Bft) N 0 0 min 0,000 mm 0 W/m 0,9 C 2,5 C 0,0 km/h (0 Bft) 100,00 %
07.01.2012 18:18 2,5 C 90 % 1013,3 hPa 0,0 l/m 0,0 km/h (0 Bft) N 0 0 min 0,000 mm 0 W/m 1,0 C 2,5 C 0,0 km/h (0 Bft) 100,00 %
07.01.2012 18:19 2,5 C 90 % 1013,2 hPa 0,3 l/m 0,0 km/h (0 Bft) N 0 0 min 0,000 mm 0 W/m 1,0 C 2,5 C 0,0 km/h (0 Bft) 100,00 %
07.01.2012 18:20 2,5 C 90 % 1013,2 hPa 0,0 l/m 0,0 km/h (0 Bft) N 0 0 min 0,000 mm 0 W/m 1,0 C 2,5 C 0,0 km/h (0 Bft) 100,00 %
07.01.2012 18:21 2,5 C 90 % 1013,2 hPa 0,0 l/m 0,0 km/h (0 Bft) N 0 0 min 0,000 mm 0 W/m 1,0 C 2,5 C 0,0 km/h (0 Bft) 100,00 %
07.01.2012 18:22 2,5 C 90 % 1013,2 hPa 0,0 l/m 0,0 km/h (0 Bft) S 180 0 min 0,000 mm 0 W/m 1,0 C 2,5 C 3,2 km/h (1 Bft) 100,00 %
07.01.2012 18:23 2,5 C 90 % 1013,2 hPa 0,0 l/m 0,0 km/h (0 Bft) N 0 0 min 0,000 mm 0 W/m 1,0 C 2,5 C 0,0 km/h (0 Bft) 100,00 %
07.01.2012 18:24 2,5 C 90 % 1013,2 hPa 0,0 l/m 0,0 km/h (0 Bft) N 0 0 min 0,000 mm 0 W/m 1,0 C 2,5 C 0,0 km/h (0 Bft) 100,00 %
07.01.2012 18:25 2,6 C 90 % 1013,2 hPa 0,0 l/m 0,0 km/h (0 Bft) N 0 0 min 0,000 mm 0 W/m 1,1 C 2,6 C 0,0 km/h (0 Bft) 100,00 %
07.01.2012 18:26 2,5 C 90 % 1013,2 hPa 0,0 l/m 0,0 km/h (0 Bft) N 0 0 min 0,000 mm 0 W/m 1,0 C 2,5 C 0,0 km/h (0 Bft) 100,00 %
07.01.2012 18:27 2,5 C 90 % 1013,2 hPa 0,0 l/m 0,0 km/h (0 Bft) N 0 0 min 0,000 mm 0 W/m 1,0 C 2,5 C 0,0 km/h (0 Bft) 100,00 %
07.01.2012 18:28 2,5 C 90 % 1013,2 hPa 0,0 l/m 0,0 km/h (0 Bft) N 0 0 min 0,000 mm 0 W/m 1,0 C 2,5 C 0,0 km/h (0 Bft) 100,00 %
07.01.2012 18:29 2,5 C 90 % 1013,2 hPa 0,0 l/m 0,0 km/h (0 Bft) N 0 0 min 0,000 mm 0 W/m 1,0 C 2,5 C 0,0 km/h (0 Bft) 100,00 %
07.01.2012 18:30 2,5 C 90 % 1013,2 hPa 0,0 l/m 0,0 km/h (0 Bft) N 0 0 min 0,000 mm 0 W/m 1,0 C 2,5 C 0,0 km/h (0 Bft) 100,00 %
07.01.2012 18:31 2,5 C 90 % 1013,2 hPa 0,0 l/m 0,0 km/h (0 Bft) N 0 0 min 0,000 mm 0 W/m 1,0 C 2,5 C 0,0 km/h (0 Bft) 100,00 %
07.01.2012 18:32 2,5 C 90 % 1013,2 hPa 0,3 l/m 0,0 km/h (0 Bft) N 0 0 min 0,000 mm 0 W/m 1,0 C 2,5 C 0,0 km/h (0 Bft) 100,00 %
07.01.2012 18:33 2,6 C 91 % 1013,2 hPa 0,0 l/m 0,0 km/h (0 Bft) N 0 0 min 0,000 mm 0 W/m 1,3 C 2,6 C 0,0 km/h (0 Bft) 100,00 %
07.01.2012 18:34 2,6 C 91 % 1013,2 hPa 0,0 l/m 0,0 km/h (0 Bft) N 0 0 min 0,000 mm 0 W/m 1,3 C 2,6 C 0,0 km/h (0 Bft) 100,00 %
07.01.2012 18:35 2,5 C 91 % 1013,2 hPa 0,0 l/m 0,0 km/h (0 Bft) N 0 0 min 0,000 mm 0 W/m 1,2 C 2,5 C 0,0 km/h (0 Bft) 100,00 %
07.01.2012 18:36 2,6 C 91 % 1013,1 hPa 0,0 l/m 0,0 km/h (0 Bft) N 0 0 min 0,000 mm 0 W/m 1,3 C 2,6 C 0,0 km/h (0 Bft) 100,00 %
07.01.2012 18:37 2,5 C 91 % 1013,2 hPa 0,0 l/m 0,0 km/h (0 Bft) N 0 0 min 0,000 mm 0 W/m 1,2 C 2,5 C 0,0 km/h (0 Bft) 100,00 %
07.01.2012 18:38 2,5 C 91 % 1013,2 hPa 0,0 l/m 0,0 km/h (0 Bft) N 0 0 min 0,000 mm 0 W/m 1,2 C 2,5 C 0,0 km/h (0 Bft) 100,00 %
07.01.2012 18:39 2,5 C 91 % 1013,1 hPa 0,0 l/m 0,0 km/h (0 Bft) N 0 0 min 0,000 mm 0 W/m 1,2 C 2,5 C 0,0 km/h (0 Bft) 100,00 %
07.01.2012 18:40 2,5 C 91 % 1013,1 hPa 0,0 l/m 0,0 km/h (0 Bft) N 0 0 min 0,000 mm 0 W/m 1,2 C 2,5 C 0,0 km/h (0 Bft) 100,00 %
07.01.2012 18:41 2,5 C 91 % 1013,1 hPa 0,0 l/m 0,0 km/h (0 Bft) N 0 0 min 0,000 mm 0 W/m 1,2 C 2,5 C 0,0 km/h (0 Bft) 100,00 %
07.01.2012 18:42 2,5 C 91 % 1013,2 hPa 0,0 l/m 0,0 km/h (0 Bft) N 0 0 min 0,000 mm 0 W/m 1,2 C 2,5 C 0,0 km/h (0 Bft) 100,00 %
07.01.2012 18:43 2,5 C 91 % 1013,1 hPa 0,0 l/m 0,0 km/h (0 Bft) N 0 0 min 0,000 mm 0 W/m 1,2 C 2,5 C 0,0 km/h (0 Bft) 100,00 %
07.01.2012 18:44 2,5 C 91 % 1013,1 hPa 0,3 l/m 0,0 km/h (0 Bft) N 0 0 min 0,000 mm 0 W/m 1,2 C 2,5 C 0,0 km/h (0 Bft) 100,00 %
07.01.2012 18:45 2,5 C 91 % 1013,0 hPa 0,0 l/m 0,0 km/h (0 Bft) N 0 0 min 0,000 mm 0 W/m 1,2 C 2,5 C 0,0 km/h (0 Bft) 78,26 %
07.01.2012 18:46 2,6 C 91 % 1013,0 hPa 0,0 l/m 0,0 km/h (0 Bft) N 0 0 min 0,000 mm 0 W/m 1,3 C 2,6 C 0,0 km/h (0 Bft) 100,00 %
07.01.2012 18:47 2,6 C 91 % 1013,0 hPa 0,0 l/m 0,0 km/h (0 Bft) N 0 0 min 0,000 mm 0 W/m 1,3 C 2,6 C 0,0 km/h (0 Bft) 100,00 %
07.01.2012 18:48 2,6 C 91 % 1013,0 hPa 0,0 l/m 0,0 km/h (0 Bft) N 0 0 min 0,000 mm 0 W/m 1,3 C 2,6 C 0,0 km/h (0 Bft) 100,00 %
07.01.2012 18:49 2,6 C 91 % 1013,0 hPa 0,0 l/m 0,0 km/h (0 Bft) N 0 0 min 0,000 mm 0 W/m 1,3 C 2,6 C 0,0 km/h (0 Bft) 100,00 %
07.01.2012 18:50 2,6 C 91 % 1013,0 hPa 0,0 l/m 0,0 km/h (0 Bft) N 0 0 min 0,000 mm 0 W/m 1,3 C 2,6 C 0,0 km/h (0 Bft) 100,00 %
07.01.2012 18:51 2,6 C 91 % 1013,0 hPa 0,0 l/m 0,0 km/h (0 Bft) N 0 0 min 0,000 mm 0 W/m 1,3 C 2,6 C 0,0 km/h (0 Bft) 100,00 %
07.01.2012 18:52 2,6 C 91 % 1013,0 hPa 0,0 l/m 0,0 km/h (0 Bft) N 0 0 min 0,000 mm 0 W/m 1,3 C 2,6 C 0,0 km/h (0 Bft) 100,00 %
07.01.2012 18:53 2,6 C 91 % 1013,0 hPa 0,0 l/m 0,0 km/h (0 Bft) N 0 0 min 0,000 mm 0 W/m 1,3 C 2,6 C 0,0 km/h (0 Bft) 100,00 %
07.01.2012 18:54 2,6 C 91 % 1013,0 hPa 0,0 l/m 0,0 km/h (0 Bft) N 0 0 min 0,000 mm 0 W/m 1,3 C 2,6 C 0,0 km/h (0 Bft) 100,00 %
07.01.2012 18:55 2,6 C 91 % 1013,0 hPa 0,3 l/m 0,0 km/h (0 Bft) N 0 0 min 0,000 mm 0 W/m 1,3 C 2,6 C 0,0 km/h (0 Bft) 100,00 %
07.01.2012 18:56 2,6 C 91 % 1013,0 hPa 0,0 l/m 0,0 km/h (0 Bft) N 0 0 min 0,000 mm 0 W/m 1,3 C 2,6 C 0,0 km/h (0 Bft) 100,00 %
07.01.2012 18:57 2,6 C 91 % 1013,0 hPa 0,0 l/m 0,0 km/h (0 Bft) N 0 0 min 0,000 mm 0 W/m 1,3 C 2,6 C 0,0 km/h (0 Bft) 100,00 %
07.01.2012 18:58 2,6 C 91 % 1012,9 hPa 0,0 l/m 0,0 km/h (0 Bft) N 0 0 min 0,000 mm 0 W/m 1,3 C 2,6 C 0,0 km/h (0 Bft) 100,00 %
07.01.2012 18:59 2,6 C 91 % 1013,0 hPa 0,0 l/m 0,0 km/h (0 Bft) N 0 0 min 0,000 mm 0 W/m 1,3 C 2,6 C 0,0 km/h (0 Bft) 100,00 %
07.01.2012 19:00 2,6 C 91 % 1012,9 hPa 0,0 l/m 0,0 km/h (0 Bft) N 0 0 min 0,000 mm 0 W/m 1,3 C 2,6 C 0,0 km/h (0 Bft) 100,00 %
07.01.2012 19:01 2,6 C 91 % 1012,9 hPa 0,0 l/m 0,0 km/h (0 Bft) N 0 0 min 0,000 mm 0 W/m 1,3 C 2,6 C 0,0 km/h (0 Bft) 100,00 %
07.01.2012 19:02 2,6 C 91 % 1013,0 hPa 0,0 l/m 0,0 km/h (0 Bft) N 0 0 min 0,000 mm 0 W/m 1,3 C 2,6 C 0,0 km/h (0 Bft) 100,00 %
07.01.2012 19:03 2,6 C 91 % 1013,0 hPa 0,0 l/m 0,0 km/h (0 Bft) N 0 0 min 0,000 mm 0 W/m 1,3 C 2,6 C 0,0 km/h (0 Bft) 100,00 %
07.01.2012 19:04 2,6 C 91 % 1012,9 hPa 0,0 l/m 0,0 km/h (0 Bft) N 0 0 min 0,000 mm 0 W/m 1,3 C 2,6 C 0,0 km/h (0 Bft) 100,00 %
07.01.2012 19:05 2,6 C 91 % 1012,9 hPa 0,0 l/m 0,0 km/h (0 Bft) N 0 0 min 0,000 mm 0 W/m 1,3 C 2,6 C 0,0 km/h (0 Bft) 100,00 %
07.01.2012 19:06 2,6 C 91 % 1012,9 hPa 0,0 l/m 0,0 km/h (0 Bft) N 0 0 min 0,000 mm 0 W/m 1,3 C 2,6 C 0,0 km/h (0 Bft) 100,00 %
07.01.2012 19:07 2,6 C 91 % 1012,9 hPa 0,0 l/m 0,0 km/h (0 Bft) N 0 0 min 0,000 mm 0 W/m 1,3 C 2,6 C 0,0 km/h (0 Bft) 100,00 %
07.01.2012 19:08 2,6 C 91 % 1013,0 hPa 0,3 l/m 0,0 km/h (0 Bft) N 0 0 min 0,000 mm 0 W/m 1,3 C 2,6 C 0,0 km/h (0 Bft) 100,00 %
07.01.2012 19:09 2,6 C 91 % 1012,9 hPa 0,0 l/m 0,0 km/h (0 Bft) N 0 0 min 0,000 mm 0 W/m 1,3 C 2,6 C 0,0 km/h (0 Bft) 100,00 %
07.01.2012 19:10 2,6 C 91 % 1012,9 hPa 0,0 l/m 0,0 km/h (0 Bft) N 0 0 min 0,000 mm 0 W/m 1,3 C 2,6 C 0,0 km/h (0 Bft) 100,00 %
07.01.2012 19:11 2,6 C 91 % 1012,9 hPa 0,0 l/m 0,0 km/h (0 Bft) N 0 0 min 0,000 mm 0 W/m 1,3 C 2,6 C 0,0 km/h (0 Bft) 100,00 %
07.01.2012 19:12 2,6 C 91 % 1012,9 hPa 0,0 l/m 0,0 km/h (0 Bft) N 0 0 min 0,000 mm 0 W/m 1,3 C 2,6 C 0,0 km/h (0 Bft) 100,00 %
07.01.2012 19:13 2,6 C 91 % 1012,9 hPa 0,0 l/m 0,0 km/h (0 Bft) N 0 0 min 0,000 mm 0 W/m 1,3 C 2,6 C 0,0 km/h (0 Bft) 100,00 %
07.01.2012 19:14 2,6 C 91 % 1012,9 hPa 0,3 l/m 0,0 km/h (0 Bft) N 0 0 min 0,000 mm 0 W/m 1,3 C 2,6 C 0,0 km/h (0 Bft) 100,00 %
07.01.2012 19:15 2,6 C 91 % 1012,8 hPa 0,0 l/m 0,0 km/h (0 Bft) N 0 0 min 0,000 mm 0 W/m 1,3 C 2,6 C 0,0 km/h (0 Bft) 100,00 %
07.01.2012 19:16 2,6 C 91 % 1012,9 hPa 0,0 l/m 0,0 km/h (0 Bft) N 0 0 min 0,000 mm 0 W/m 1,3 C 2,6 C 0,0 km/h (0 Bft) 100,00 %
07.01.2012 19:17 2,6 C 91 % 1012,9 hPa 0,0 l/m 0,0 km/h (0 Bft) N 0 0 min 0,000 mm 0 W/m 1,3 C 2,6 C 0,0 km/h (0 Bft) 100,00 %
07.01.2012 19:18 2,6 C 91 % 1012,9 hPa 0,0 l/m 0,0 km/h (0 Bft) N 0 0 min 0,000 mm 0 W/m 1,3 C 2,6 C 0,0 km/h (0 Bft) 100,00 %
07.01.2012 19:19 2,6 C 91 % 1012,8 hPa 0,0 l/m 0,0 km/h (0 Bft) N 0 0 min 0,000 mm 0 W/m 1,3 C 2,6 C 0,0 km/h (0 Bft) 100,00 %
07.01.2012 19:20 2,6 C 91 % 1012,8 hPa 0,0 l/m 0,0 km/h (0 Bft) N 0 0 min 0,000 mm 0 W/m 1,3 C 2,6 C 0,0 km/h (0 Bft) 100,00 %
07.01.2012 19:21 2,6 C 91 % 1012,8 hPa 0,0 l/m 0,0 km/h (0 Bft) N 0 0 min 0,000 mm 0 W/m 1,3 C 2,6 C 0,0 km/h (0 Bft) 100,00 %
07.01.2012 19:22 2,6 C 92 % 1012,8 hPa 0,3 l/m 0,0 km/h (0 Bft) N 0 0 min 0,000 mm 0 W/m 1,4 C 2,6 C 0,0 km/h (0 Bft) 100,00 %
07.01.2012 19:23 2,6 C 92 % 1012,8 hPa 0,0 l/m 0,0 km/h (0 Bft) N 0 0 min 0,000 mm 0 W/m 1,4 C 2,6 C 0,0 km/h (0 Bft) 100,00 %
07.01.2012 19:24 2,6 C 92 % 1012,8 hPa 0,0 l/m 0,0 km/h (0 Bft) N 0 0 min 0,000 mm 0 W/m 1,4 C 2,6 C 0,0 km/h (0 Bft) 100,00 %
07.01.2012 19:25 2,6 C 92 % 1012,7 hPa 0,0 l/m 0,0 km/h (0 Bft) N 0 0 min 0,000 mm 0 W/m 1,4 C 2,6 C 0,0 km/h (0 Bft) 100,00 %
07.01.2012 19:26 2,6 C 92 % 1012,7 hPa 0,0 l/m 0,0 km/h (0 Bft) N 0 0 min 0,000 mm 0 W/m 1,4 C 2,6 C 0,0 km/h (0 Bft) 100,00 %
07.01.2012 19:27 2,6 C 92 % 1012,7 hPa 0,3 l/m 0,0 km/h (0 Bft) N 0 0 min 0,000 mm 0 W/m 1,4 C 2,6 C 0,0 km/h (0 Bft) 100,00 %
07.01.2012 19:28 2,6 C 92 % 1012,7 hPa 0,0 l/m 0,0 km/h (0 Bft) N 0 0 min 0,000 mm 0 W/m 1,4 C 2,6 C 0,0 km/h (0 Bft) 100,00 %
07.01.2012 19:29 2,6 C 92 % 1012,6 hPa 0,0 l/m 0,0 km/h (0 Bft) N 0 0 min 0,000 mm 0 W/m 1,4 C 2,6 C 0,0 km/h (0 Bft) 100,00 %
07.01.2012 19:30 2,6 C 92 % 1012,6 hPa 0,0 l/m 0,0 km/h (0 Bft) N 0 0 min 0,000 mm 0 W/m 1,4 C 2,6 C 0,0 km/h (0 Bft) 100,00 %
07.01.2012 19:31 2,6 C 92 % 1012,6 hPa 0,0 l/m 0,0 km/h (0 Bft) N 0 0 min 0,000 mm 0 W/m 1,4 C 2,6 C 0,0 km/h (0 Bft) 100,00 %
07.01.2012 19:32 2,6 C 92 % 1012,6 hPa 0,0 l/m 0,0 km/h (0 Bft) N 0 0 min 0,000 mm 0 W/m 1,4 C 2,6 C 0,0 km/h (0 Bft) 100,00 %
07.01.2012 19:33 2,6 C 92 % 1012,6 hPa 0,0 l/m 0,0 km/h (0 Bft) N 0 0 min 0,000 mm 0 W/m 1,4 C 2,6 C 0,0 km/h (0 Bft) 100,00 %
07.01.2012 19:34 2,6 C 92 % 1012,6 hPa 0,0 l/m 0,0 km/h (0 Bft) N 0 0 min 0,000 mm 0 W/m 1,4 C 2,6 C 0,0 km/h (0 Bft) 100,00 %
07.01.2012 19:35 2,6 C 92 % 1012,5 hPa 0,3 l/m 0,0 km/h (0 Bft) N 0 0 min 0,000 mm 0 W/m 1,4 C 2,6 C 0,0 km/h (0 Bft) 100,00 %
07.01.2012 19:36 2,6 C 92 % 1012,6 hPa 0,0 l/m 0,0 km/h (0 Bft) N 0 0 min 0,000 mm 0 W/m 1,4 C 2,6 C 0,0 km/h (0 Bft) 100,00 %
07.01.2012 19:37 2,6 C 92 % 1012,5 hPa 0,0 l/m 0,0 km/h (0 Bft) N 0 0 min 0,000 mm 0 W/m 1,4 C 2,6 C 0,0 km/h (0 Bft) 100,00 %
07.01.2012 19:38 2,6 C 92 % 1012,5 hPa 0,0 l/m 0,0 km/h (0 Bft) N 0 0 min 0,000 mm 0 W/m 1,4 C 2,6 C 0,0 km/h (0 Bft) 100,00 %
07.01.2012 19:39 2,6 C 92 % 1012,5 hPa 0,0 l/m 0,0 km/h (0 Bft) N 0 0 min 0,000 mm 0 W/m 1,4 C 2,6 C 0,0 km/h (0 Bft) 100,00 %
07.01.2012 19:40 2,6 C 92 % 1012,5 hPa 0,3 l/m 0,0 km/h (0 Bft) N 0 0 min 0,000 mm 0 W/m 1,4 C 2,6 C 0,0 km/h (0 Bft) 100,00 %
07.01.2012 19:41 2,6 C 92 % 1012,5 hPa 0,0 l/m 0,0 km/h (0 Bft) N 0 0 min 0,000 mm 0 W/m 1,4 C 2,6 C 0,0 km/h (0 Bft) 100,00 %
07.01.2012 19:42 2,6 C 92 % 1012,5 hPa 0,0 l/m 0,0 km/h (0 Bft) N 0 0 min 0,000 mm 0 W/m 1,4 C 2,6 C 0,0 km/h (0 Bft) 100,00 %
07.01.2012 19:43 2,6 C 92 % 1012,5 hPa 0,0 l/m 0,0 km/h (0 Bft) N 0 0 min 0,000 mm 0 W/m 1,4 C 2,6 C 0,0 km/h (0 Bft) 100,00 %
07.01.2012 19:44 2,6 C 92 % 1012,6 hPa 0,0 l/m 0,0 km/h (0 Bft) N 0 0 min 0,000 mm 0 W/m 1,4 C 2,6 C 0,0 km/h (0 Bft) 100,00 %
07.01.2012 19:45 2,6 C 92 % 1012,6 hPa 0,0 l/m 0,0 km/h (0 Bft) N 0 0 min 0,000 mm 0 W/m 1,4 C 2,6 C 0,0 km/h (0 Bft) 100,00 %
07.01.2012 19:46 2,6 C 92 % 1012,5 hPa 0,3 l/m 0,0 km/h (0 Bft) N 0 0 min 0,000 mm 0 W/m 1,4 C 2,6 C 0,0 km/h (0 Bft) 100,00 %
07.01.2012 19:47 2,6 C 92 % 1012,6 hPa 0,0 l/m 0,0 km/h (0 Bft) N 0 0 min 0,000 mm 0 W/m 1,4 C 2,6 C 0,0 km/h (0 Bft) 100,00 %
07.01.2012 19:48 2,6 C 92 % 1012,5 hPa 0,3 l/m 0,0 km/h (0 Bft) N 0 0 min 0,000 mm 0 W/m 1,4 C 2,6 C 0,0 km/h (0 Bft) 100,00 %
07.01.2012 19:49 2,6 C 92 % 1012,6 hPa 0,0 l/m 0,0 km/h (0 Bft) N 0 0 min 0,000 mm 0 W/m 1,4 C 2,6 C 0,0 km/h (0 Bft) 100,00 %
07.01.2012 19:50 2,6 C 92 % 1012,5 hPa 0,0 l/m 0,0 km/h (0 Bft) N 0 0 min 0,000 mm 0 W/m 1,4 C 2,6 C 0,0 km/h (0 Bft) 100,00 %
07.01.2012 19:51 2,6 C 92 % 1012,6 hPa 0,3 l/m 0,0 km/h (0 Bft) N 0 0 min 0,000 mm 0 W/m 1,4 C 2,6 C 0,0 km/h (0 Bft) 100,00 %
07.01.2012 19:52 2,6 C 92 % 1012,5 hPa 0,0 l/m 0,0 km/h (0 Bft) N 0 0 min 0,000 mm 0 W/m 1,4 C 2,6 C 0,0 km/h (0 Bft) 100,00 %
07.01.2012 19:53 2,6 C 92 % 1012,5 hPa 0,0 l/m 0,0 km/h (0 Bft) N 0 0 min 0,000 mm 0 W/m 1,4 C 2,6 C 0,0 km/h (0 Bft) 100,00 %
07.01.2012 19:54 2,6 C 92 % 1012,5 hPa 0,3 l/m 0,0 km/h (0 Bft) N 0 0 min 0,000 mm 0 W/m 1,4 C 2,6 C 0,0 km/h (0 Bft) 100,00 %
07.01.2012 19:55 2,6 C 92 % 1012,5 hPa 0,0 l/m 0,0 km/h (0 Bft) N 0 0 min 0,000 mm 0 W/m 1,4 C 2,6 C 0,0 km/h (0 Bft) 100,00 %
07.01.2012 19:56 2,6 C 92 % 1012,5 hPa 0,0 l/m 0,0 km/h (0 Bft) N 0 0 min 0,000 mm 0 W/m 1,4 C 2,6 C 0,0 km/h (0 Bft) 100,00 %
07.01.2012 19:57 2,6 C 92 % 1012,5 hPa 0,0 l/m 0,0 km/h (0 Bft) N 0 0 min 0,000 mm 0 W/m 1,4 C 2,6 C 0,0 km/h (0 Bft) 100,00 %
07.01.2012 19:58 2,6 C 92 % 1012,5 hPa 0,0 l/m 0,0 km/h (0 Bft) N 0 0 min 0,000 mm 0 W/m 1,4 C 2,6 C 0,0 km/h (0 Bft) 100,00 %
07.01.2012 19:59 2,6 C 92 % 1012,4 hPa 0,3 l/m 0,0 km/h (0 Bft) N 0 0 min 0,000 mm 0 W/m 1,4 C 2,6 C 0,0 km/h (0 Bft) 100,00 %
07.01.2012 20:00 2,6 C 92 % 1012,4 hPa 0,0 l/m 0,0 km/h (0 Bft) N 0 0 min 0,000 mm 0 W/m 1,4 C 2,6 C 0,0 km/h (0 Bft) 100,00 %
07.01.2012 20:01 2,6 C 92 % 1012,4 hPa 0,0 l/m 0,0 km/h (0 Bft) N 0 0 min 0,000 mm 0 W/m 1,4 C 2,6 C 0,0 km/h (0 Bft) 100,00 %
07.01.2012 20:02 2,6 C 92 % 1012,3 hPa 0,0 l/m 0,0 km/h (0 Bft) S 180 0 min 0,000 mm 0 W/m 1,4 C 2,6 C 1,6 km/h (1 Bft) 100,00 %
07.01.2012 20:03 2,6 C 92 % 1012,3 hPa 0,0 l/m 0,0 km/h (0 Bft) N 0 0 min 0,000 mm 0 W/m 1,4 C 2,6 C 0,0 km/h (0 Bft) 100,00 %
07.01.2012 20:04 2,6 C 92 % 1012,3 hPa 0,0 l/m 0,0 km/h (0 Bft) N 0 0 min 0,000 mm 0 W/m 1,4 C 2,6 C 0,0 km/h (0 Bft) 100,00 %
07.01.2012 20:05 2,6 C 92 % 1012,3 hPa 0,0 l/m 0,0 km/h (0 Bft) N 0 0 min 0,000 mm 0 W/m 1,4 C 2,6 C 0,0 km/h (0 Bft) 100,00 %
07.01.2012 20:06 2,6 C 92 % 1012,2 hPa 0,0 l/m 0,0 km/h (0 Bft) N 0 0 min 0,000 mm 0 W/m 1,4 C 2,6 C 0,0 km/h (0 Bft) 100,00 %
07.01.2012 20:07 2,6 C 92 % 1012,4 hPa 0,0 l/m 0,0 km/h (0 Bft) N 0 0 min 0,000 mm 0 W/m 1,4 C 2,6 C 0,0 km/h (0 Bft) 100,00 %
07.01.2012 20:08 2,6 C 92 % 1012,3 hPa 0,0 l/m 0,0 km/h (0 Bft) S 171 0 min 0,001 mm 0 W/m 1,4 C 2,6 C 0,0 km/h (0 Bft) 99,90 %
07.01.2012 20:09 2,6 C 92 % 1012,2 hPa 0,3 l/m 0,0 km/h (0 Bft) S 171 0 min 0,000 mm 0 W/m 1,4 C 2,6 C 0,0 km/h (0 Bft) 100,00 %
07.01.2012 20:10 2,6 C 92 % 1012,2 hPa 0,0 l/m 0,0 km/h (0 Bft) S 171 0 min 0,000 mm 0 W/m 1,4 C 2,6 C 0,0 km/h (0 Bft) 96,00 %
07.01.2012 20:11 2,6 C 92 % 1012,1 hPa 0,0 l/m 0,0 km/h (0 Bft) S 171 0 min 0,000 mm 0 W/m 1,4 C 2,6 C 0,0 km/h (0 Bft) 100,00 %
07.01.2012 20:12 2,6 C 92 % 1012,1 hPa 0,0 l/m 0,0 km/h (0 Bft) S 171 0 min 0,000 mm 0 W/m 1,4 C 2,6 C 0,0 km/h (0 Bft) 100,00 %
07.01.2012 20:13 2,6 C 92 % 1012,1 hPa 0,0 l/m 0,0 km/h (0 Bft) S 171 0 min 0,000 mm 0 W/m 1,4 C 2,6 C 0,0 km/h (0 Bft) 100,00 %
07.01.2012 20:14 2,6 C 92 % 1012,2 hPa 0,0 l/m 0,0 km/h (0 Bft) S 171 0 min 0,000 mm 0 W/m 1,4 C 2,6 C 0,0 km/h (0 Bft) 100,00 %
07.01.2012 20:15 2,6 C 92 % 1012,1 hPa 0,0 l/m 0,0 km/h (0 Bft) S 171 0 min 0,000 mm 0 W/m 1,4 C 2,6 C 0,0 km/h (0 Bft) 100,00 %
07.01.2012 20:16 2,6 C 92 % 1012,1 hPa 0,0 l/m 0,0 km/h (0 Bft) S 171 0 min 0,000 mm 0 W/m 1,4 C 2,6 C 0,0 km/h (0 Bft) 100,00 %
07.01.2012 20:17 2,6 C 92 % 1012,1 hPa 0,0 l/m 0,0 km/h (0 Bft) S 171 0 min 0,000 mm 0 W/m 1,4 C 2,6 C 0,0 km/h (0 Bft) 100,00 %
07.01.2012 20:18 2,6 C 92 % 1012,1 hPa 0,0 l/m 0,0 km/h (0 Bft) S 171 0 min 0,000 mm 0 W/m 1,4 C 2,6 C 0,0 km/h (0 Bft) 100,00 %
07.01.2012 20:19 2,6 C 92 % 1012,1 hPa 0,0 l/m 0,0 km/h (0 Bft) S 171 0 min 0,000 mm 0 W/m 1,4 C 2,6 C 0,0 km/h (0 Bft) 100,00 %
07.01.2012 20:20 2,6 C 92 % 1012,2 hPa 0,0 l/m 0,0 km/h (0 Bft) S 171 0 min 0,000 mm 0 W/m 1,4 C 2,6 C 0,0 km/h (0 Bft) 100,00 %
07.01.2012 20:21 2,6 C 92 % 1012,2 hPa 0,0 l/m 0,0 km/h (0 Bft) S 171 0 min 0,000 mm 0 W/m 1,4 C 2,6 C 0,0 km/h (0 Bft) 100,00 %
07.01.2012 20:22 2,6 C 92 % 1012,1 hPa 0,0 l/m 0,0 km/h (0 Bft) S 171 0 min 0,000 mm 0 W/m 1,4 C 2,6 C 0,0 km/h (0 Bft) 100,00 %
07.01.2012 20:23 2,6 C 92 % 1012,1 hPa 0,0 l/m 0,0 km/h (0 Bft) S 171 0 min 0,000 mm 0 W/m 1,4 C 2,6 C 0,0 km/h (0 Bft) 100,00 %
07.01.2012 20:24 2,6 C 92 % 1012,1 hPa 0,0 l/m 0,0 km/h (0 Bft) S 171 0 min 0,000 mm 0 W/m 1,4 C 2,6 C 0,0 km/h (0 Bft) 100,00 %
07.01.2012 20:25 2,6 C 92 % 1012,2 hPa 0,0 l/m 0,0 km/h (0 Bft) S 171 0 min 0,000 mm 0 W/m 1,4 C 2,6 C 0,0 km/h (0 Bft) 100,00 %
07.01.2012 20:26 2,6 C 92 % 1012,0 hPa 0,0 l/m 0,0 km/h (0 Bft) S 171 0 min 0,000 mm 0 W/m 1,4 C 2,6 C 0,0 km/h (0 Bft) 100,00 %
07.01.2012 20:27 2,6 C 92 % 1012,1 hPa 0,0 l/m 0,0 km/h (0 Bft) S 171 0 min 0,000 mm 0 W/m 1,4 C 2,6 C 0,0 km/h (0 Bft) 100,00 %
07.01.2012 20:28 2,6 C 92 % 1012,0 hPa 0,0 l/m 0,0 km/h (0 Bft) S 171 0 min 0,000 mm 0 W/m 1,4 C 2,6 C 0,0 km/h (0 Bft) 100,00 %
07.01.2012 20:29 2,6 C 92 % 1012,2 hPa 0,0 l/m 0,0 km/h (0 Bft) S 171 0 min 0,000 mm 0 W/m 1,4 C 2,6 C 0,0 km/h (0 Bft) 100,00 %
07.01.2012 20:30 2,6 C 92 % 1012,2 hPa 0,0 l/m 0,0 km/h (0 Bft) S 171 0 min 0,000 mm 0 W/m 1,4 C 2,6 C 0,0 km/h (0 Bft) 100,00 %
07.01.2012 20:31 2,6 C 92 % 1012,2 hPa 0,0 l/m 0,0 km/h (0 Bft) S 171 0 min 0,000 mm 0 W/m 1,4 C 2,6 C 0,0 km/h (0 Bft) 100,00 %
07.01.2012 20:32 2,6 C 92 % 1012,2 hPa 0,0 l/m 0,0 km/h (0 Bft) S 171 0 min 0,000 mm 0 W/m 1,4 C 2,6 C 0,0 km/h (0 Bft) 100,00 %
07.01.2012 20:33 2,6 C 92 % 1012,2 hPa 0,0 l/m 0,0 km/h (0 Bft) S 171 0 min 0,000 mm 0 W/m 1,4 C 2,6 C 0,0 km/h (0 Bft) 100,00 %
07.01.2012 20:34 2,6 C 92 % 1012,2 hPa 0,0 l/m 2,0 km/h (1 Bft) S 169 0 min 0,000 mm 0 W/m 1,4 C 2,6 C 6,4 km/h (2 Bft) 100,00 %
07.01.2012 20:35 2,6 C 92 % 1012,1 hPa 0,0 l/m 2,7 km/h (1 Bft) S-SO 168 0 min 0,000 mm 0 W/m 1,4 C 2,6 C 4,8 km/h (1 Bft) 100,00 %
07.01.2012 20:36 2,6 C 92 % 1012,1 hPa 0,0 l/m 0,2 km/h (0 Bft) S-SO 168 0 min 0,000 mm 0 W/m 1,4 C 2,6 C 1,6 km/h (1 Bft) 100,00 %
07.01.2012 20:37 2,6 C 92 % 1012,2 hPa 0,0 l/m 0,0 km/h (0 Bft) S-SO 168 0 min 0,000 mm 0 W/m 1,4 C 2,6 C 0,0 km/h (0 Bft) 100,00 %
07.01.2012 20:38 2,6 C 92 % 1012,1 hPa 0,0 l/m 0,0 km/h (0 Bft) S-SO 168 0 min 0,000 mm 0 W/m 1,4 C 2,6 C 0,0 km/h (0 Bft) 100,00 %
07.01.2012 20:39 2,6 C 92 % 1012,0 hPa 0,0 l/m 0,0 km/h (0 Bft) S-SO 167 0 min 0,000 mm 0 W/m 1,4 C 2,6 C 0,0 km/h (0 Bft) 100,00 %
07.01.2012 20:40 2,6 C 92 % 1012,0 hPa 0,0 l/m 0,0 km/h (0 Bft) S-SO 167 0 min 0,000 mm 0 W/m 1,4 C 2,6 C 0,0 km/h (0 Bft) 100,00 %
07.01.2012 20:41 2,6 C 92 % 1012,0 hPa 0,0 l/m 0,2 km/h (0 Bft) S-SO 165 0 min 0,000 mm 0 W/m 1,4 C 2,6 C 3,2 km/h (1 Bft) 100,00 %
07.01.2012 20:42 2,6 C 92 % 1012,0 hPa 0,0 l/m 0,0 km/h (0 Bft) S-SO 164 0 min 0,000 mm 0 W/m 1,4 C 2,6 C 0,0 km/h (0 Bft) 100,00 %
07.01.2012 20:43 2,6 C 92 % 1012,1 hPa 0,0 l/m 0,7 km/h (0 Bft) S-SO 164 0 min 0,000 mm 0 W/m 1,4 C 2,6 C 3,2 km/h (1 Bft) 100,00 %
07.01.2012 20:44 2,6 C 92 % 1012,0 hPa 0,0 l/m 0,0 km/h (0 Bft) S-SO 164 0 min 0,000 mm 0 W/m 1,4 C 2,6 C 0,0 km/h (0 Bft) 100,00 %
07.01.2012 20:45 2,6 C 92 % 1012,0 hPa 0,0 l/m 0,0 km/h (0 Bft) S-SO 164 0 min 0,000 mm 0 W/m 1,4 C 2,6 C 0,0 km/h (0 Bft) 100,00 %
07.01.2012 20:46 2,6 C 92 % 1012,0 hPa 0,0 l/m 0,0 km/h (0 Bft) S-SO 163 0 min 0,000 mm 0 W/m 1,4 C 2,6 C 0,0 km/h (0 Bft) 100,00 %
07.01.2012 20:47 2,6 C 92 % 1012,0 hPa 0,0 l/m 0,0 km/h (0 Bft) S-SO 163 0 min 0,000 mm 0 W/m 1,4 C 2,6 C 0,0 km/h (0 Bft) 100,00 %
07.01.2012 20:48 2,6 C 92 % 1011,9 hPa 0,0 l/m 0,0 km/h (0 Bft) S-SO 163 0 min 0,000 mm 0 W/m 1,4 C 2,6 C 0,0 km/h (0 Bft) 100,00 %
07.01.2012 20:49 2,6 C 92 % 1011,9 hPa 0,0 l/m 0,0 km/h (0 Bft) S-SO 163 0 min 0,000 mm 0 W/m 1,4 C 2,6 C 0,0 km/h (0 Bft) 100,00 %
07.01.2012 20:50 2,6 C 92 % 1011,9 hPa 0,0 l/m 0,0 km/h (0 Bft) S-SO 163 0 min 0,000 mm 0 W/m 1,4 C 2,6 C 0,0 km/h (0 Bft) 100,00 %
07.01.2012 20:51 2,6 C 92 % 1011,9 hPa 0,0 l/m 0,0 km/h (0 Bft) S-SO 163 0 min 0,000 mm 0 W/m 1,4 C 2,6 C 0,0 km/h (0 Bft) 100,00 %
07.01.2012 20:52 2,6 C 92 % 1011,9 hPa 0,0 l/m 0,0 km/h (0 Bft) S-SO 163 0 min 0,000 mm 0 W/m 1,4 C 2,6 C 0,0 km/h (0 Bft) 100,00 %
07.01.2012 20:53 2,6 C 92 % 1011,9 hPa 0,0 l/m 0,0 km/h (0 Bft) S-SO 163 0 min 0,000 mm 0 W/m 1,4 C 2,6 C 0,0 km/h (0 Bft) 100,00 %
07.01.2012 20:54 2,7 C 92 % 1011,9 hPa 0,0 l/m 0,0 km/h (0 Bft) S-SO 163 0 min 0,000 mm 0 W/m 1,5 C 2,7 C 0,0 km/h (0 Bft) 100,00 %
07.01.2012 20:55 2,6 C 92 % 1011,9 hPa 0,0 l/m 0,0 km/h (0 Bft) S-SO 163 0 min 0,000 mm 0 W/m 1,4 C 2,6 C 0,0 km/h (0 Bft) 100,00 %
07.01.2012 20:56 2,6 C 92 % 1011,9 hPa 0,0 l/m 0,0 km/h (0 Bft) S-SO 163 0 min 0,000 mm 0 W/m 1,4 C 2,6 C 0,0 km/h (0 Bft) 100,00 %
07.01.2012 20:57 2,7 C 92 % 1011,9 hPa 0,0 l/m 0,0 km/h (0 Bft) S-SO 163 0 min 0,000 mm 0 W/m 1,5 C 2,7 C 0,0 km/h (0 Bft) 100,00 %
07.01.2012 20:58 2,6 C 92 % 1011,9 hPa 0,0 l/m 0,0 km/h (0 Bft) S-SO 163 0 min 0,000 mm 0 W/m 1,4 C 2,6 C 0,0 km/h (0 Bft) 100,00 %
07.01.2012 20:59 2,7 C 92 % 1011,9 hPa 0,0 l/m 0,0 km/h (0 Bft) S-SO 163 0 min 0,000 mm 0 W/m 1,5 C 2,7 C 0,0 km/h (0 Bft) 100,00 %
07.01.2012 21:00 2,7 C 92 % 1011,9 hPa 0,0 l/m 0,0 km/h (0 Bft) S-SO 163 0 min 0,000 mm 0 W/m 1,5 C 2,7 C 0,0 km/h (0 Bft) 100,00 %
07.01.2012 21:01 2,7 C 92 % 1012,0 hPa 0,0 l/m 0,0 km/h (0 Bft) S-SO 163 0 min 0,000 mm 0 W/m 1,5 C 2,7 C 0,0 km/h (0 Bft) 100,00 %
07.01.2012 21:02 2,7 C 92 % 1011,9 hPa 0,0 l/m 0,0 km/h (0 Bft) S-SO 163 0 min 0,000 mm 0 W/m 1,5 C 2,7 C 0,0 km/h (0 Bft) 100,00 %
07.01.2012 21:03 2,7 C 92 % 1011,9 hPa 0,0 l/m 0,0 km/h (0 Bft) S-SO 163 0 min 0,000 mm 0 W/m 1,5 C 2,7 C 0,0 km/h (0 Bft) 100,00 %
07.01.2012 21:04 2,6 C 92 % 1011,8 hPa 0,0 l/m 0,0 km/h (0 Bft) S-SO 163 0 min 0,000 mm 0 W/m 1,4 C 2,6 C 0,0 km/h (0 Bft) 100,00 %
07.01.2012 21:05 2,7 C 92 % 1011,8 hPa 0,0 l/m 0,0 km/h (0 Bft) S-SO 163 0 min 0,000 mm 0 W/m 1,5 C 2,7 C 0,0 km/h (0 Bft) 100,00 %
07.01.2012 21:06 2,6 C 92 % 1011,8 hPa 0,0 l/m 0,0 km/h (0 Bft) S-SO 163 0 min 0,000 mm 0 W/m 1,4 C 2,6 C 0,0 km/h (0 Bft) 100,00 %
07.01.2012 21:07 2,6 C 92 % 1011,6 hPa 0,0 l/m 0,0 km/h (0 Bft) S-SO 163 0 min 0,000 mm 0 W/m 1,4 C 2,6 C 0,0 km/h (0 Bft) 100,00 %
07.01.2012 21:08 2,6 C 92 % 1011,6 hPa 0,0 l/m 0,0 km/h (0 Bft) S-SO 163 0 min 0,000 mm 0 W/m 1,4 C 2,6 C 0,0 km/h (0 Bft) 100,00 %
07.01.2012 21:09 2,6 C 92 % 1011,6 hPa 0,0 l/m 0,0 km/h (0 Bft) S-SO 163 0 min 0,000 mm 0 W/m 1,4 C 2,6 C 0,0 km/h (0 Bft) 100,00 %
07.01.2012 21:10 2,6 C 92 % 1011,5 hPa 0,0 l/m 0,0 km/h (0 Bft) S-SO 163 0 min 0,000 mm 0 W/m 1,4 C 2,6 C 0,0 km/h (0 Bft) 100,00 %
07.01.2012 21:11 2,6 C 92 % 1011,6 hPa 0,0 l/m 0,0 km/h (0 Bft) S-SO 163 0 min 0,000 mm 0 W/m 1,4 C 2,6 C 0,0 km/h (0 Bft) 100,00 %
07.01.2012 21:12 2,6 C 92 % 1011,6 hPa 0,0 l/m 0,0 km/h (0 Bft) S-SO 163 0 min 0,000 mm 0 W/m 1,4 C 2,6 C 0,0 km/h (0 Bft) 100,00 %
07.01.2012 21:13 2,6 C 92 % 1011,6 hPa 0,0 l/m 0,0 km/h (0 Bft) S-SO 163 0 min 0,000 mm 0 W/m 1,4 C 2,6 C 0,0 km/h (0 Bft) 100,00 %
07.01.2012 21:14 2,6 C 92 % 1011,5 hPa 0,0 l/m 0,0 km/h (0 Bft) S-SO 163 0 min 0,000 mm 0 W/m 1,4 C 2,6 C 0,0 km/h (0 Bft) 100,00 %
07.01.2012 21:15 2,6 C 92 % 1011,6 hPa 0,0 l/m 0,0 km/h (0 Bft) S-SO 163 0 min 0,000 mm 0 W/m 1,4 C 2,6 C 0,0 km/h (0 Bft) 96,00 %
07.01.2012 21:16 2,6 C 92 % 1011,6 hPa 0,0 l/m 0,0 km/h (0 Bft) S-SO 163 0 min 0,000 mm 0 W/m 1,4 C 2,6 C 0,0 km/h (0 Bft) 100,00 %
07.01.2012 21:17 2,6 C 92 % 1011,6 hPa 0,0 l/m 0,0 km/h (0 Bft) S-SO 163 0 min 0,000 mm 0 W/m 1,4 C 2,6 C 0,0 km/h (0 Bft) 96,43 %
07.01.2012 21:18 2,6 C 92 % 1011,6 hPa 0,0 l/m 0,0 km/h (0 Bft) S-SO 163 0 min 0,000 mm 0 W/m 1,4 C 2,6 C 0,0 km/h (0 Bft) 100,00 %
07.01.2012 21:19 2,6 C 92 % 1011,7 hPa 0,0 l/m 0,0 km/h (0 Bft) S-SO 163 0 min 0,000 mm 0 W/m 1,4 C 2,6 C 0,0 km/h (0 Bft) 100,00 %
07.01.2012 21:20 2,6 C 92 % 1011,7 hPa 0,0 l/m 0,0 km/h (0 Bft) S-SO 163 0 min 0,000 mm 0 W/m 1,4 C 2,6 C 0,0 km/h (0 Bft) 100,00 %
07.01.2012 21:21 2,6 C 92 % 1011,6 hPa 0,0 l/m 0,0 km/h (0 Bft) S-SO 163 0 min 0,000 mm 0 W/m 1,4 C 2,6 C 0,0 km/h (0 Bft) 100,00 %
07.01.2012 21:22 2,6 C 92 % 1011,7 hPa 0,0 l/m 0,0 km/h (0 Bft) S-SO 163 0 min 0,000 mm 0 W/m 1,4 C 2,6 C 0,0 km/h (0 Bft) 100,00 %
07.01.2012 21:23 2,6 C 92 % 1011,8 hPa 0,0 l/m 0,0 km/h (0 Bft) S-SO 163 0 min 0,000 mm 0 W/m 1,4 C 2,6 C 0,0 km/h (0 Bft) 100,00 %
07.01.2012 21:24 2,6 C 92 % 1011,8 hPa 0,0 l/m 0,0 km/h (0 Bft) S-SO 163 0 min 0,000 mm 0 W/m 1,4 C 2,6 C 0,0 km/h (0 Bft) 100,00 %
07.01.2012 21:25 2,6 C 92 % 1011,8 hPa 0,0 l/m 0,0 km/h (0 Bft) S-SO 163 0 min 0,000 mm 0 W/m 1,4 C 2,6 C 0,0 km/h (0 Bft) 100,00 %
07.01.2012 21:26 2,6 C 92 % 1011,8 hPa 0,0 l/m 0,0 km/h (0 Bft) S-SO 163 0 min 0,000 mm 0 W/m 1,4 C 2,6 C 0,0 km/h (0 Bft) 100,00 %
07.01.2012 21:27 2,6 C 92 % 1011,8 hPa 0,0 l/m 0,0 km/h (0 Bft) S-SO 163 0 min 0,000 mm 0 W/m 1,4 C 2,6 C 0,0 km/h (0 Bft) 100,00 %
07.01.2012 21:28 2,6 C 92 % 1011,8 hPa 0,0 l/m 0,0 km/h (0 Bft) S-SO 163 0 min 0,000 mm 0 W/m 1,4 C 2,6 C 0,0 km/h (0 Bft) 100,00 %
07.01.2012 21:29 2,6 C 92 % 1011,8 hPa 0,0 l/m 0,0 km/h (0 Bft) S-SO 163 0 min 0,000 mm 0 W/m 1,4 C 2,6 C 0,0 km/h (0 Bft) 100,00 %
07.01.2012 21:30 2,6 C 92 % 1011,8 hPa 0,0 l/m 0,0 km/h (0 Bft) S-SO 163 0 min 0,000 mm 0 W/m 1,4 C 2,6 C 0,0 km/h (0 Bft) 100,00 %
07.01.2012 21:31 2,6 C 92 % 1011,8 hPa 0,0 l/m 1,8 km/h (1 Bft) S-SO 163 0 min 0,000 mm 0 W/m 1,4 C 2,6 C 6,4 km/h (2 Bft) 100,00 %
07.01.2012 21:32 2,6 C 92 % 1011,8 hPa 0,0 l/m 2,7 km/h (1 Bft) S-SO 163 0 min 0,000 mm 0 W/m 1,4 C 2,6 C 4,8 km/h (1 Bft) 100,00 %
07.01.2012 21:33 2,6 C 92 % 1011,9 hPa 0,0 l/m 1,5 km/h (1 Bft) S-SO 163 0 min 0,000 mm 0 W/m 1,4 C 2,6 C 4,8 km/h (1 Bft) 100,00 %
07.01.2012 21:34 2,6 C 92 % 1011,8 hPa 0,0 l/m 0,6 km/h (0 Bft) S-SO 163 0 min 0,000 mm 0 W/m 1,4 C 2,6 C 3,2 km/h (1 Bft) 100,00 %
07.01.2012 21:35 2,6 C 92 % 1011,8 hPa 0,0 l/m 0,0 km/h (0 Bft) S-SO 163 0 min 0,000 mm 0 W/m 1,4 C 2,6 C 0,0 km/h (0 Bft) 100,00 %
07.01.2012 21:36 2,6 C 92 % 1011,8 hPa 0,0 l/m 0,0 km/h (0 Bft) S-SO 163 0 min 0,000 mm 0 W/m 1,4 C 2,6 C 0,0 km/h (0 Bft) 96,15 %
07.01.2012 21:37 2,6 C 92 % 1011,9 hPa 0,0 l/m 0,0 km/h (0 Bft) S-SO 163 0 min 0,000 mm 0 W/m 1,4 C 2,6 C 0,0 km/h (0 Bft) 100,00 %
07.01.2012 21:38 2,6 C 92 % 1011,9 hPa 0,0 l/m 0,0 km/h (0 Bft) S-SO 163 0 min 0,000 mm 0 W/m 1,4 C 2,6 C 0,0 km/h (0 Bft) 100,00 %
07.01.2012 21:39 2,6 C 92 % 1011,8 hPa 0,0 l/m 1,2 km/h (1 Bft) S-SO 163 0 min 0,000 mm 0 W/m 1,4 C 2,6 C 4,8 km/h (1 Bft) 100,00 %
07.01.2012 21:40 2,6 C 92 % 1011,9 hPa 0,0 l/m 0,0 km/h (0 Bft) S-SO 163 0 min 0,000 mm 0 W/m 1,4 C 2,6 C 0,0 km/h (0 Bft) 100,00 %
07.01.2012 21:41 2,6 C 92 % 1011,9 hPa 0,0 l/m 0,0 km/h (0 Bft) S-SO 163 0 min 0,000 mm 0 W/m 1,4 C 2,6 C 0,0 km/h (0 Bft) 100,00 %
07.01.2012 21:42 2,6 C 92 % 1011,9 hPa 0,0 l/m 0,0 km/h (0 Bft) S-SO 163 0 min 0,000 mm 0 W/m 1,4 C 2,6 C 0,0 km/h (0 Bft) 100,00 %
07.01.2012 21:43 2,6 C 92 % 1012,0 hPa 0,0 l/m 0,2 km/h (0 Bft) S-SO 163 0 min 0,000 mm 0 W/m 1,4 C 2,6 C 1,6 km/h (1 Bft) 100,00 %
07.01.2012 21:44 2,6 C 92 % 1012,0 hPa 0,0 l/m 0,5 km/h (0 Bft) S-SO 163 0 min 0,000 mm 0 W/m 1,4 C 2,6 C 3,2 km/h (1 Bft) 100,00 %
07.01.2012 21:45 2,6 C 92 % 1012,0 hPa 0,0 l/m 0,7 km/h (0 Bft) S-SO 163 0 min 0,000 mm 0 W/m 1,4 C 2,6 C 3,2 km/h (1 Bft) 100,00 %
07.01.2012 21:46 2,6 C 92 % 1012,0 hPa 0,0 l/m 0,0 km/h (0 Bft) S-SO 163 0 min 0,000 mm 0 W/m 1,4 C 2,6 C 0,0 km/h (0 Bft) 100,00 %
07.01.2012 21:47 2,6 C 92 % 1012,0 hPa 0,0 l/m 0,0 km/h (0 Bft) S-SO 163 0 min 0,000 mm 0 W/m 1,4 C 2,6 C 0,0 km/h (0 Bft) 100,00 %
07.01.2012 21:48 2,6 C 92 % 1012,0 hPa 0,0 l/m 1,1 km/h (1 Bft) S-SO 163 0 min 0,000 mm 0 W/m 1,4 C 2,6 C 4,8 km/h (1 Bft) 96,15 %
07.01.2012 21:49 2,6 C 92 % 1012,0 hPa 0,0 l/m 4,2 km/h (1 Bft) S-SO 161 0 min 0,000 mm 0 W/m 1,4 C 2,6 C 6,4 km/h (2 Bft) 96,00 %
07.01.2012 21:50 2,6 C 92 % 1012,1 hPa 0,0 l/m 1,6 km/h (1 Bft) S-SO 160 0 min 0,000 mm 0 W/m 1,4 C 2,6 C 4,8 km/h (1 Bft) 100,00 %
07.01.2012 21:51 2,6 C 92 % 1012,1 hPa 0,0 l/m 0,0 km/h (0 Bft) S-SO 160 0 min 0,000 mm 0 W/m 1,4 C 2,6 C 0,0 km/h (0 Bft) 100,00 %
07.01.2012 21:52 2,6 C 92 % 1012,0 hPa 0,0 l/m 0,0 km/h (0 Bft) S-SO 160 0 min 0,000 mm 0 W/m 1,4 C 2,6 C 0,0 km/h (0 Bft) 100,00 %
07.01.2012 21:54 2,6 C 92 % 1012,0 hPa 0,0 l/m 0,0 km/h (0 Bft) S-SO 161 0 min 0,000 mm 0 W/m 1,4 C 2,6 C 0,0 km/h (0 Bft) 100,00 %
07.01.2012 21:55 2,6 C 92 % 1011,9 hPa 0,0 l/m 0,0 km/h (0 Bft) S-SO 161 0 min 0,000 mm 0 W/m 1,4 C 2,6 C 0,0 km/h (0 Bft) 100,00 %
07.01.2012 21:56 2,6 C 92 % 1012,0 hPa 0,0 l/m 2,6 km/h (1 Bft) S-SO 148 0 min 0,000 mm 0 W/m 1,4 C 2,6 C 8,0 km/h (2 Bft) 100,00 %
07.01.2012 21:57 2,6 C 92 % 1011,9 hPa 0,0 l/m 1,8 km/h (1 Bft) S-SO 148 0 min 0,000 mm 0 W/m 1,4 C 2,6 C 4,8 km/h (1 Bft) 100,00 %
07.01.2012 21:58 2,6 C 92 % 1012,0 hPa 0,0 l/m 0,4 km/h (0 Bft) S-SO 148 0 min 0,000 mm 0 W/m 1,4 C 2,6 C 4,8 km/h (1 Bft) 100,00 %
07.01.2012 21:59 2,6 C 92 % 1012,0 hPa 0,0 l/m 0,2 km/h (0 Bft) S-SO 148 0 min 0,000 mm 0 W/m 1,4 C 2,6 C 3,2 km/h (1 Bft) 100,00 %
07.01.2012 22:00 2,6 C 92 % 1011,9 hPa 0,0 l/m 0,5 km/h (0 Bft) S-SO 148 0 min 0,000 mm 0 W/m 1,4 C 2,6 C 6,4 km/h (2 Bft) 100,00 %
07.01.2012 22:01 2,6 C 92 % 1011,9 hPa 0,0 l/m 0,7 km/h (0 Bft) S-SO 148 0 min 0,000 mm 0 W/m 1,4 C 2,6 C 4,8 km/h (1 Bft) 100,00 %
07.01.2012 22:02 2,6 C 92 % 1012,0 hPa 0,0 l/m 0,5 km/h (0 Bft) S-SO 148 0 min 0,000 mm 0 W/m 1,4 C 2,6 C 3,2 km/h (1 Bft) 100,00 %
07.01.2012 22:03 2,6 C 92 % 1011,9 hPa 0,0 l/m 0,0 km/h (0 Bft) S-SO 148 0 min 0,000 mm 0 W/m 1,4 C 2,6 C 0,0 km/h (0 Bft) 100,00 %
07.01.2012 22:04 2,6 C 92 % 1011,8 hPa 0,0 l/m 0,0 km/h (0 Bft) S-SO 148 0 min 0,000 mm 0 W/m 1,4 C 2,6 C 0,0 km/h (0 Bft) 100,00 %
07.01.2012 22:05 2,6 C 92 % 1011,9 hPa 0,0 l/m 0,0 km/h (0 Bft) S-SO 148 0 min 0,000 mm 0 W/m 1,4 C 2,6 C 0,0 km/h (0 Bft) 100,00 %
07.01.2012 22:06 2,6 C 92 % 1012,0 hPa 0,0 l/m 0,0 km/h (0 Bft) S-SO 148 0 min 0,000 mm 0 W/m 1,4 C 2,6 C 0,0 km/h (0 Bft) 100,00 %
07.01.2012 22:07 2,6 C 92 % 1011,9 hPa 0,0 l/m 0,0 km/h (0 Bft) S-SO 148 0 min 0,000 mm 0 W/m 1,4 C 2,6 C 0,0 km/h (0 Bft) 100,00 %
07.01.2012 22:08 2,6 C 92 % 1012,0 hPa 0,0 l/m 0,0 km/h (0 Bft) S-SO 148 0 min 0,000 mm 0 W/m 1,4 C 2,6 C 0,0 km/h (0 Bft) 100,00 %
07.01.2012 22:09 2,6 C 92 % 1011,9 hPa 0,0 l/m 0,4 km/h (0 Bft) S-SO 148 0 min 0,000 mm 0 W/m 1,4 C 2,6 C 3,2 km/h (1 Bft) 100,00 %
07.01.2012 22:10 2,6 C 92 % 1011,9 hPa 0,0 l/m 2,4 km/h (1 Bft) S-SO 148 0 min 0,000 mm 0 W/m 1,4 C 2,6 C 8,0 km/h (2 Bft) 100,00 %
07.01.2012 22:11 2,6 C 92 % 1011,9 hPa 0,0 l/m 1,5 km/h (1 Bft) S-SO 148 0 min 0,000 mm 0 W/m 1,4 C 2,6 C 4,8 km/h (1 Bft) 100,00 %
07.01.2012 22:12 2,6 C 92 % 1011,9 hPa 0,0 l/m 0,0 km/h (0 Bft) S-SO 148 0 min 0,000 mm 0 W/m 1,4 C 2,6 C 0,0 km/h (0 Bft) 96,00 %
07.01.2012 22:13 2,6 C 92 % 1011,9 hPa 0,0 l/m 0,0 km/h (0 Bft) S-SO 148 0 min 0,000 mm 0 W/m 1,4 C 2,6 C 0,0 km/h (0 Bft) 100,00 %
07.01.2012 22:14 2,6 C 92 % 1012,0 hPa 0,0 l/m 0,0 km/h (0 Bft) S-SO 148 0 min 0,000 mm 0 W/m 1,4 C 2,6 C 0,0 km/h (0 Bft) 100,00 %
07.01.2012 22:15 2,6 C 92 % 1011,9 hPa 0,0 l/m 0,0 km/h (0 Bft) S-SO 148 0 min 0,000 mm 0 W/m 1,4 C 2,6 C 0,0 km/h (0 Bft) 96,00 %
07.01.2012 22:16 2,6 C 92 % 1012,0 hPa 0,0 l/m 2,7 km/h (1 Bft) S-SW 212 0 min 0,000 mm 0 W/m 1,4 C 2,6 C 9,7 km/h (2 Bft) 100,00 %
07.01.2012 22:17 2,6 C 92 % 1011,9 hPa 0,0 l/m 12,7 km/h (3 Bft) S-SO 166 0 min 0,000 mm 0 W/m 1,4 C -2,5 C 17,7 km/h (3 Bft) 100,00 %
07.01.2012 22:18 2,6 C 92 % 1012,1 hPa 0,0 l/m 8,5 km/h (2 Bft) S-SW 192 0 min 0,000 mm 0 W/m 1,4 C 0,6 C 11,3 km/h (2 Bft) 100,00 %
07.01.2012 22:19 2,6 C 92 % 1012,0 hPa 0,0 l/m 8,3 km/h (2 Bft) S 182 0 min 0,000 mm 0 W/m 1,4 C 0,8 C 12,9 km/h (3 Bft) 100,00 %
07.01.2012 22:20 2,6 C 92 % 1012,0 hPa 0,0 l/m 7,5 km/h (2 Bft) S 178 0 min 0,000 mm 0 W/m 1,4 C 1,5 C 9,7 km/h (2 Bft) 100,00 %
07.01.2012 22:21 2,6 C 92 % 1012,1 hPa 0,0 l/m 4,3 km/h (1 Bft) S 178 0 min 0,000 mm 0 W/m 1,4 C 2,6 C 6,4 km/h (2 Bft) 100,00 %
07.01.2012 22:22 2,6 C 92 % 1011,9 hPa 0,0 l/m 4,9 km/h (1 Bft) S 178 0 min 0,000 mm 0 W/m 1,4 C 2,6 C 6,4 km/h (2 Bft) 100,00 %
07.01.2012 22:23 2,6 C 92 % 1012,0 hPa 0,0 l/m 7,4 km/h (2 Bft) S 179 0 min 0,000 mm 0 W/m 1,4 C 1,6 C 11,3 km/h (2 Bft) 100,00 %
07.01.2012 22:24 2,6 C 92 % 1012,0 hPa 0,0 l/m 6,2 km/h (2 Bft) S-SO 164 0 min 0,000 mm 0 W/m 1,4 C 2,6 C 9,7 km/h (2 Bft) 100,00 %
07.01.2012 22:25 2,6 C 92 % 1012,1 hPa 0,0 l/m 5,9 km/h (2 Bft) S-SW 199 0 min 0,000 mm 0 W/m 1,4 C 2,6 C 9,7 km/h (2 Bft) 100,00 %
07.01.2012 22:26 2,6 C 92 % 1012,1 hPa 0,0 l/m 2,6 km/h (1 Bft) S-SW 200 0 min 0,000 mm 0 W/m 1,4 C 2,6 C 4,8 km/h (1 Bft) 100,00 %
07.01.2012 22:27 2,6 C 92 % 1012,1 hPa 0,0 l/m 4,5 km/h (1 Bft) S-SW 200 0 min 0,000 mm 0 W/m 1,4 C 2,6 C 6,4 km/h (2 Bft) 100,00 %
07.01.2012 22:28 2,6 C 92 % 1012,0 hPa 0,0 l/m 4,2 km/h (1 Bft) SW 216 0 min 0,000 mm 0 W/m 1,4 C 2,6 C 11,3 km/h (2 Bft) 100,00 %
07.01.2012 22:29 2,6 C 92 % 1012,1 hPa 0,0 l/m 2,9 km/h (1 Bft) S-SW 213 0 min 0,000 mm 0 W/m 1,4 C 2,6 C 6,4 km/h (2 Bft) 100,00 %
07.01.2012 22:30 2,6 C 92 % 1012,0 hPa 0,0 l/m 0,0 km/h (0 Bft) S-SW 213 0 min 0,000 mm 0 W/m 1,4 C 2,6 C 0,0 km/h (0 Bft) 95,83 %
07.01.2012 22:31 2,6 C 92 % 1012,0 hPa 0,0 l/m 1,6 km/h (1 Bft) S-SW 213 0 min 0,000 mm 0 W/m 1,4 C 2,6 C 4,8 km/h (1 Bft) 100,00 %
07.01.2012 22:32 2,7 C 92 % 1012,0 hPa 0,0 l/m 3,4 km/h (1 Bft) S-SW 213 0 min 0,000 mm 0 W/m 1,5 C 2,7 C 6,4 km/h (2 Bft) 100,00 %
07.01.2012 22:33 2,7 C 92 % 1012,0 hPa 0,0 l/m 3,8 km/h (1 Bft) S-SW 211 0 min 0,000 mm 0 W/m 1,5 C 2,7 C 4,8 km/h (1 Bft) 100,00 %
07.01.2012 22:34 2,7 C 92 % 1012,0 hPa 0,0 l/m 0,2 km/h (0 Bft) S-SW 211 0 min 0,000 mm 0 W/m 1,5 C 2,7 C 1,6 km/h (1 Bft) 100,00 %
07.01.2012 22:35 2,7 C 92 % 1012,0 hPa 0,0 l/m 3,6 km/h (1 Bft) S-SW 211 0 min 0,000 mm 0 W/m 1,5 C 2,7 C 4,8 km/h (1 Bft) 100,00 %
07.01.2012 22:36 2,7 C 92 % 1011,9 hPa 0,0 l/m 1,7 km/h (1 Bft) S-SW 211 0 min 0,000 mm 0 W/m 1,5 C 2,7 C 4,8 km/h (1 Bft) 100,00 %
07.01.2012 22:37 2,7 C 92 % 1011,9 hPa 0,0 l/m 1,5 km/h (1 Bft) S-SW 211 0 min 0,000 mm 0 W/m 1,5 C 2,7 C 4,8 km/h (1 Bft) 100,00 %
07.01.2012 22:38 2,7 C 92 % 1012,0 hPa 0,0 l/m 0,9 km/h (0 Bft) S-SW 211 0 min 0,000 mm 0 W/m 1,5 C 2,7 C 3,2 km/h (1 Bft) 100,00 %
07.01.2012 22:39 2,7 C 92 % 1011,9 hPa 0,0 l/m 2,9 km/h (1 Bft) S-SW 211 0 min 0,000 mm 0 W/m 1,5 C 2,7 C 4,8 km/h (1 Bft) 100,00 %
07.01.2012 22:40 2,7 C 92 % 1011,9 hPa 0,0 l/m 0,0 km/h (0 Bft) S-SW 211 0 min 0,000 mm 0 W/m 1,5 C 2,7 C 0,0 km/h (0 Bft) 100,00 %
07.01.2012 22:41 2,7 C 92 % 1011,9 hPa 0,0 l/m 0,0 km/h (0 Bft) S-SW 211 0 min 0,000 mm 0 W/m 1,5 C 2,7 C 0,0 km/h (0 Bft) 100,00 %
07.01.2012 22:42 2,7 C 92 % 1011,9 hPa 0,0 l/m 0,0 km/h (0 Bft) S-SW 211 0 min 0,000 mm 0 W/m 1,5 C 2,7 C 0,0 km/h (0 Bft) 100,00 %
07.01.2012 22:43 2,7 C 92 % 1011,8 hPa 0,0 l/m 0,0 km/h (0 Bft) S-SW 211 0 min 0,000 mm 0 W/m 1,5 C 2,7 C 0,0 km/h (0 Bft) 92,59 %
07.01.2012 22:44 2,7 C 92 % 1011,8 hPa 0,0 l/m 1,4 km/h (1 Bft) S-SW 211 0 min 0,000 mm 0 W/m 1,5 C 2,7 C 6,4 km/h (2 Bft) 100,00 %
07.01.2012 22:45 2,7 C 92 % 1011,8 hPa 0,0 l/m 3,3 km/h (1 Bft) S-SW 211 0 min 0,000 mm 0 W/m 1,5 C 2,7 C 4,8 km/h (1 Bft) 100,00 %
07.01.2012 22:46 2,7 C 92 % 1011,8 hPa 0,0 l/m 2,0 km/h (1 Bft) S-SW 211 0 min 0,000 mm 0 W/m 1,5 C 2,7 C 4,8 km/h (1 Bft) 100,00 %
07.01.2012 22:47 2,7 C 92 % 1011,6 hPa 0,0 l/m 1,1 km/h (1 Bft) S-SW 211 0 min 0,000 mm 0 W/m 1,5 C 2,7 C 4,8 km/h (1 Bft) 100,00 %
07.01.2012 22:48 2,7 C 92 % 1011,7 hPa 0,0 l/m 0,0 km/h (0 Bft) S-SW 211 0 min 0,000 mm 0 W/m 1,5 C 2,7 C 0,0 km/h (0 Bft) 100,00 %
07.01.2012 22:49 2,7 C 92 % 1011,7 hPa 0,0 l/m 0,0 km/h (0 Bft) S-SW 211 0 min 0,000 mm 0 W/m 1,5 C 2,7 C 0,0 km/h (0 Bft) 100,00 %
07.01.2012 22:50 2,7 C 92 % 1011,7 hPa 0,0 l/m 0,0 km/h (0 Bft) S-SW 211 0 min 0,000 mm 0 W/m 1,5 C 2,7 C 0,0 km/h (0 Bft) 100,00 %
07.01.2012 22:51 2,7 C 92 % 1011,7 hPa 0,0 l/m 0,0 km/h (0 Bft) S-SW 211 0 min 0,000 mm 0 W/m 1,5 C 2,7 C 0,0 km/h (0 Bft) 100,00 %
07.01.2012 22:52 2,7 C 92 % 1011,6 hPa 0,0 l/m 0,0 km/h (0 Bft) S-SW 211 0 min 0,000 mm 0 W/m 1,5 C 2,7 C 0,0 km/h (0 Bft) 100,00 %
07.01.2012 22:53 2,7 C 92 % 1011,7 hPa 0,0 l/m 0,0 km/h (0 Bft) S-SW 211 0 min 0,000 mm 0 W/m 1,5 C 2,7 C 0,0 km/h (0 Bft) 100,00 %
07.01.2012 22:54 2,7 C 92 % 1011,6 hPa 0,0 l/m 0,0 km/h (0 Bft) S-SW 211 0 min 0,000 mm 0 W/m 1,5 C 2,7 C 0,0 km/h (0 Bft) 100,00 %
07.01.2012 22:55 2,8 C 92 % 1011,5 hPa 0,0 l/m 0,0 km/h (0 Bft) S-SW 211 0 min 0,000 mm 0 W/m 1,6 C 2,8 C 0,0 km/h (0 Bft) 100,00 %
07.01.2012 22:56 2,7 C 92 % 1011,6 hPa 0,0 l/m 0,0 km/h (0 Bft) S-SW 211 0 min 0,000 mm 0 W/m 1,5 C 2,7 C 0,0 km/h (0 Bft) 100,00 %
07.01.2012 22:57 2,7 C 92 % 1011,6 hPa 0,0 l/m 0,0 km/h (0 Bft) S-SW 211 0 min 0,000 mm 0 W/m 1,5 C 2,7 C 0,0 km/h (0 Bft) 100,00 %
07.01.2012 22:58 2,8 C 92 % 1011,5 hPa 0,0 l/m 0,3 km/h (0 Bft) S-SW 211 0 min 0,000 mm 0 W/m 1,6 C 2,8 C 3,2 km/h (1 Bft) 100,00 %
07.01.2012 22:59 2,8 C 92 % 1011,5 hPa 0,0 l/m 0,3 km/h (0 Bft) S-SW 211 0 min 0,000 mm 0 W/m 1,6 C 2,8 C 3,2 km/h (1 Bft) 100,00 %
07.01.2012 23:00 2,8 C 92 % 1011,5 hPa 0,0 l/m 0,0 km/h (0 Bft) S-SW 211 0 min 0,000 mm 0 W/m 1,6 C 2,8 C 0,0 km/h (0 Bft) 100,00 %
07.01.2012 23:01 2,8 C 92 % 1011,4 hPa 0,0 l/m 0,0 km/h (0 Bft) S-SW 211 0 min 0,000 mm 0 W/m 1,6 C 2,8 C 0,0 km/h (0 Bft) 96,00 %
07.01.2012 23:02 2,8 C 92 % 1011,5 hPa 0,0 l/m 0,9 km/h (0 Bft) S-SW 211 0 min 0,000 mm 0 W/m 1,6 C 2,8 C 3,2 km/h (1 Bft) 100,00 %
07.01.2012 23:03 2,8 C 92 % 1011,4 hPa 0,0 l/m 3,1 km/h (1 Bft) S-SW 212 0 min 0,000 mm 0 W/m 1,6 C 2,8 C 4,8 km/h (1 Bft) 100,00 %
07.01.2012 23:04 2,8 C 92 % 1011,3 hPa 0,0 l/m 1,1 km/h (1 Bft) SW 214 0 min 0,000 mm 0 W/m 1,6 C 2,8 C 6,4 km/h (2 Bft) 100,00 %
07.01.2012 23:05 2,8 C 92 % 1011,3 hPa 0,0 l/m 2,4 km/h (1 Bft) SW 214 0 min 0,000 mm 0 W/m 1,6 C 2,8 C 4,8 km/h (1 Bft) 100,00 %
07.01.2012 23:06 2,8 C 92 % 1011,3 hPa 0,0 l/m 4,4 km/h (1 Bft) SW 214 0 min 0,000 mm 0 W/m 1,6 C 2,8 C 6,4 km/h (2 Bft) 100,00 %
07.01.2012 23:07 2,9 C 92 % 1011,3 hPa 0,0 l/m 0,8 km/h (0 Bft) SW 214 0 min 0,000 mm 0 W/m 1,7 C 2,9 C 3,2 km/h (1 Bft) 100,00 %
07.01.2012 23:08 2,9 C 92 % 1011,3 hPa 0,0 l/m 0,0 km/h (0 Bft) SW 214 0 min 0,000 mm 0 W/m 1,7 C 2,9 C 0,0 km/h (0 Bft) 100,00 %
07.01.2012 23:09 2,9 C 92 % 1011,4 hPa 0,0 l/m 2,1 km/h (1 Bft) SW 217 0 min 0,000 mm 0 W/m 1,7 C 2,9 C 6,4 km/h (2 Bft) 100,00 %
07.01.2012 23:10 2,9 C 92 % 1011,3 hPa 0,0 l/m 2,0 km/h (1 Bft) SW 227 0 min 0,000 mm 0 W/m 1,7 C 2,9 C 8,0 km/h (2 Bft) 100,00 %
07.01.2012 23:11 3,0 C 92 % 1011,3 hPa 0,0 l/m 1,9 km/h (1 Bft) SW 229 0 min 0,000 mm 0 W/m 1,8 C 3,0 C 9,7 km/h (2 Bft) 100,00 %
07.01.2012 23:12 3,1 C 92 % 1011,3 hPa 0,0 l/m 1,0 km/h (0 Bft) SW 229 0 min 0,000 mm 0 W/m 1,9 C 3,1 C 6,4 km/h (2 Bft) 100,00 %
07.01.2012 23:13 3,1 C 92 % 1011,3 hPa 0,0 l/m 3,8 km/h (1 Bft) W-SW 241 0 min 0,000 mm 0 W/m 1,9 C 3,1 C 12,9 km/h (3 Bft) 100,00 %
07.01.2012 23:14 3,1 C 92 % 1011,4 hPa 0,0 l/m 4,9 km/h (1 Bft) W-SW 242 0 min 0,000 mm 0 W/m 1,9 C 3,1 C 9,7 km/h (2 Bft) 100,00 %
07.01.2012 23:15 3,2 C 93 % 1011,4 hPa 0,0 l/m 3,4 km/h (1 Bft) W-SW 242 0 min 0,000 mm 0 W/m 2,2 C 3,2 C 8,0 km/h (2 Bft) 100,00 %
07.01.2012 23:16 3,2 C 93 % 1011,4 hPa 0,0 l/m 0,8 km/h (0 Bft) W-SW 243 0 min 0,000 mm 0 W/m 2,2 C 3,2 C 3,2 km/h (1 Bft) 100,00 %
07.01.2012 23:17 3,2 C 93 % 1011,4 hPa 0,0 l/m 1,3 km/h (1 Bft) W-SW 244 0 min 0,000 mm 0 W/m 2,2 C 3,2 C 6,4 km/h (2 Bft) 100,00 %
07.01.2012 23:18 3,3 C 93 % 1011,3 hPa 0,0 l/m 2,0 km/h (1 Bft) W-SW 244 0 min 0,000 mm 0 W/m 2,3 C 3,3 C 9,7 km/h (2 Bft) 100,00 %
07.01.2012 23:19 3,3 C 92 % 1011,3 hPa 0,0 l/m 0,1 km/h (0 Bft) W-SW 244 0 min 0,000 mm 0 W/m 2,1 C 3,3 C 1,6 km/h (1 Bft) 100,00 %
07.01.2012 23:20 3,3 C 92 % 1011,2 hPa 0,0 l/m 0,0 km/h (0 Bft) W-SW 244 0 min 0,000 mm 0 W/m 2,1 C 3,3 C 0,0 km/h (0 Bft) 100,00 %
07.01.2012 23:21 3,4 C 92 % 1011,3 hPa 0,0 l/m 0,0 km/h (0 Bft) W-SW 244 0 min 0,000 mm 0 W/m 2,2 C 3,4 C 0,0 km/h (0 Bft) 100,00 %
07.01.2012 23:22 3,4 C 92 % 1011,3 hPa 0,0 l/m 1,4 km/h (1 Bft) W-SW 244 0 min 0,000 mm 0 W/m 2,2 C 3,4 C 4,8 km/h (1 Bft) 100,00 %
07.01.2012 23:24 3,4 C 92 % 1011,2 hPa 0,0 l/m 1,4 km/h (1 Bft) W-SW 244 0 min 0,000 mm 0 W/m 2,2 C 3,4 C 6,4 km/h (2 Bft) 100,00 %
07.01.2012 23:25 3,4 C 92 % 1011,3 hPa 0,0 l/m 8,1 km/h (2 Bft) W-SW 242 0 min 0,000 mm 0 W/m 2,2 C 1,8 C 14,5 km/h (3 Bft) 100,00 %
07.01.2012 23:26 3,5 C 92 % 1011,3 hPa 0,0 l/m 3,2 km/h (1 Bft) W-SW 242 0 min 0,000 mm 0 W/m 2,3 C 3,5 C 4,8 km/h (1 Bft) 100,00 %
07.01.2012 23:27 3,6 C 92 % 1011,2 hPa 0,0 l/m 2,3 km/h (1 Bft) W-SW 242 0 min 0,000 mm 0 W/m 2,4 C 3,6 C 9,7 km/h (2 Bft) 100,00 %
07.01.2012 23:28 3,6 C 92 % 1011,3 hPa 0,0 l/m 3,2 km/h (1 Bft) W-SW 242 0 min 0,000 mm 0 W/m 2,4 C 3,6 C 8,0 km/h (2 Bft) 100,00 %
07.01.2012 23:29 3,6 C 92 % 1011,3 hPa 0,0 l/m 2,1 km/h (1 Bft) W-SW 242 0 min 0,000 mm 0 W/m 2,4 C 3,6 C 4,8 km/h (1 Bft) 100,00 %
07.01.2012 23:30 3,6 C 92 % 1011,2 hPa 0,0 l/m 3,6 km/h (1 Bft) W-SW 242 0 min 0,000 mm 0 W/m 2,4 C 3,6 C 6,4 km/h (2 Bft) 100,00 %
07.01.2012 23:31 3,6 C 92 % 1011,3 hPa 0,0 l/m 3,9 km/h (1 Bft) W-SW 242 0 min 0,000 mm 0 W/m 2,4 C 3,6 C 4,8 km/h (1 Bft) 100,00 %
07.01.2012 23:32 3,6 C 92 % 1011,3 hPa 0,0 l/m 5,0 km/h (1 Bft) W-SW 242 0 min 0,000 mm 0 W/m 2,4 C 3,6 C 8,0 km/h (2 Bft) 100,00 %
07.01.2012 23:33 3,6 C 92 % 1011,2 hPa 0,0 l/m 4,0 km/h (1 Bft) W-SW 242 0 min 0,000 mm 0 W/m 2,4 C 3,6 C 6,4 km/h (2 Bft) 100,00 %
07.01.2012 23:34 3,6 C 92 % 1011,3 hPa 0,0 l/m 2,7 km/h (1 Bft) W-SW 242 0 min 0,000 mm 0 W/m 2,4 C 3,6 C 8,0 km/h (2 Bft) 100,00 %
07.01.2012 23:35 3,6 C 92 % 1011,3 hPa 0,0 l/m 0,8 km/h (0 Bft) W-SW 242 0 min 0,000 mm 0 W/m 2,4 C 3,6 C 4,8 km/h (1 Bft) 100,00 %
07.01.2012 23:36 3,6 C 92 % 1011,2 hPa 0,0 l/m 6,2 km/h (2 Bft) SW 223 0 min 0,000 mm 0 W/m 2,4 C 3,6 C 19,3 km/h (3 Bft) 100,00 %
07.01.2012 23:37 3,7 C 92 % 1011,3 hPa 0,0 l/m 8,2 km/h (2 Bft) W-SW 248 0 min 0,000 mm 0 W/m 2,5 C 2,1 C 14,5 km/h (3 Bft) 100,00 %
07.01.2012 23:38 3,7 C 92 % 1011,4 hPa 0,0 l/m 11,2 km/h (2 Bft) W-SW 250 0 min 0,000 mm 0 W/m 2,5 C -0,2 C 17,7 km/h (3 Bft) 100,00 %
07.01.2012 23:39 3,7 C 91 % 1011,3 hPa 0,0 l/m 8,5 km/h (2 Bft) W 260 0 min 0,000 mm 0 W/m 2,4 C 1,8 C 14,5 km/h (3 Bft) 100,00 %
07.01.2012 23:40 3,7 C 91 % 1011,3 hPa 0,0 l/m 8,9 km/h (2 Bft) W-SW 258 0 min 0,000 mm 0 W/m 2,4 C 1,5 C 14,5 km/h (3 Bft) 100,00 %
07.01.2012 23:41 3,7 C 91 % 1011,3 hPa 0,0 l/m 8,4 km/h (2 Bft) W-SW 250 0 min 0,000 mm 0 W/m 2,4 C 1,9 C 14,5 km/h (3 Bft) 100,00 %
07.01.2012 23:42 3,7 C 91 % 1011,2 hPa 0,0 l/m 6,6 km/h (2 Bft) W-SW 249 0 min 0,000 mm 0 W/m 2,4 C 3,5 C 9,7 km/h (2 Bft) 100,00 %
07.01.2012 23:43 3,8 C 91 % 1011,2 hPa 0,0 l/m 8,2 km/h (2 Bft) W-SW 256 0 min 0,000 mm 0 W/m 2,5 C 2,2 C 16,1 km/h (3 Bft) 100,00 %
07.01.2012 23:44 3,8 C 91 % 1011,3 hPa 0,0 l/m 10,6 km/h (2 Bft) W-SW 256 0 min 0,000 mm 0 W/m 2,5 C 0,3 C 19,3 km/h (3 Bft) 100,00 %
07.01.2012 23:45 3,8 C 91 % 1011,2 hPa 0,0 l/m 9,0 km/h (2 Bft) W-SW 246 0 min 0,000 mm 0 W/m 2,5 C 1,5 C 14,5 km/h (3 Bft) 100,00 %
07.01.2012 23:46 3,9 C 91 % 1011,2 hPa 0,0 l/m 10,7 km/h (2 Bft) W-SW 257 0 min 0,000 mm 0 W/m 2,6 C 0,4 C 16,1 km/h (3 Bft) 100,00 %
07.01.2012 23:47 3,9 C 91 % 1011,3 hPa 0,0 l/m 13,0 km/h (3 Bft) W 265 0 min 0,000 mm 0 W/m 2,6 C -1,1 C 20,9 km/h (4 Bft) 100,00 %
07.01.2012 23:48 3,9 C 91 % 1011,2 hPa 0,0 l/m 12,5 km/h (3 Bft) W-SW 257 0 min 0,000 mm 0 W/m 2,6 C -0,8 C 20,9 km/h (4 Bft) 100,00 %
07.01.2012 23:49 4,0 C 91 % 1011,1 hPa 0,0 l/m 11,3 km/h (2 Bft) W 260 0 min 0,000 mm 0 W/m 2,7 C 0,1 C 16,1 km/h (3 Bft) 100,00 %
07.01.2012 23:50 4,0 C 90 % 1011,1 hPa 0,0 l/m 14,1 km/h (3 Bft) W-SW 252 0 min 0,000 mm 0 W/m 2,5 C -1,6 C 19,3 km/h (3 Bft) 100,00 %
07.01.2012 23:51 4,1 C 90 % 1011,1 hPa 0,0 l/m 18,7 km/h (3 Bft) W-SW 254 0 min 0,000 mm 0 W/m 2,6 C -3,8 C 22,5 km/h (4 Bft) 100,00 %
07.01.2012 23:52 4,1 C 90 % 1011,1 hPa 0,0 l/m 12,6 km/h (3 Bft) W 261 0 min 0,000 mm 0 W/m 2,6 C -0,7 C 19,3 km/h (3 Bft) 100,00 %
07.01.2012 23:53 4,2 C 90 % 1011,0 hPa 0,0 l/m 11,7 km/h (2 Bft) W-SW 250 0 min 0,000 mm 0 W/m 2,7 C 0,0 C 19,3 km/h (3 Bft) 100,00 %
07.01.2012 23:54 4,2 C 90 % 1011,1 hPa 0,0 l/m 12,0 km/h (2 Bft) W 260 0 min 0,000 mm 0 W/m 2,7 C -0,2 C 16,1 km/h (3 Bft) 96,30 %
07.01.2012 23:55 4,3 C 89 % 1011,1 hPa 0,0 l/m 19,1 km/h (3 Bft) W 265 0 min 0,000 mm 0 W/m 2,7 C -3,7 C 25,7 km/h (4 Bft) 100,00 %
07.01.2012 23:56 4,3 C 89 % 1011,1 hPa 0,0 l/m 11,4 km/h (2 Bft) W 270 0 min 0,000 mm 0 W/m 2,7 C 0,3 C 17,7 km/h (3 Bft) 100,00 %
07.01.2012 23:57 4,4 C 89 % 1011,1 hPa 0,0 l/m 12,0 km/h (2 Bft) W 259 0 min 0,000 mm 0 W/m 2,7 C 0,1 C 17,7 km/h (3 Bft) 100,00 %
07.01.2012 23:58 4,4 C 89 % 1011,1 hPa 0,0 l/m 15,0 km/h (3 Bft) W 267 0 min 0,000 mm 0 W/m 2,7 C -1,7 C 24,1 km/h (4 Bft) 100,00 %
07.01.2012 23:59 4,5 C 88 % 1011,1 hPa 0,0 l/m 8,6 km/h (2 Bft) W 264 0 min 0,000 mm 0 W/m 2,7 C 2,6 C 16,1 km/h (3 Bft) 95,83 %
_ Min-Zeit 18:45 12:27 23:53 - 23:21 - - - - - 13:50 03:42 23:21 18:45
Minimum _ 2,5 C 49 % 1011,0 hPa - 0,0 km/h (0 Bft) - - - - - -2,8 C -10,5 C 0,0 km/h (0 Bft) 78,26 %
_ Max-Zeit 11:45 23:18 09:01 20:09 03:42 - - 11:47 12:01 11:36 23:58 12:04 03:42 23:58
Maximum _ 7,4 C 93 % 1018,9 hPa 0,3 l/m 41,3 km/h
W-NW (6 Bft)
- - 1 min 0,152 mm 454 W/m 2,7 C 7,3 C 61,2 km/h
W-NW (7 Bft)
100,00 %
Durchschnitt _ 4,4 C 71 % 1015,4 hPa #5,6 l/m 10,9 km/h (2 Bft) W-NW - #51 min. #1,092 mm 77 W/m -0,6 C 0,5 C 17,6 km/h (3 Bft) 99,88 %